[[{"header":{"parameterUnit":"m.s-1","parameterCategory":1,"la1":30.6,"la2":28.766,"lo1":-90.7593,"lo2":-88.6598,"dy":0.0162,"dx":0.0183,"nx":116,"ny":114,"refTime":"2024-06-28T06:00:00:Z","depth":0,"parameterNumber":2,"parameterNumberName":"U-component_of_WINDS"},"data":[0.0,0.0,0.0,0.0,0.0,0.0,0.0,0.0,0.0,0.0,0.0,0.0,0.0,0.0,0.0,0.0,0.0,0.0,0.0,0.0,0.0,0.0,0.0,0.0,0.0,0.0,0.0,0.0,0.0,0.0,0.0,0.0,0.0,0.0,0.0,0.0,0.0,0.0,0.0,0.0,0.0,0.0,0.0,0.0,0.0,0.0,0.0,0.0,0.0,0.0,0.0,0.0,0.0,0.0,0.0,0.0,0.0,0.0,0.0,0.0,0.0,0.0,0.0,0.0,0.0,0.0,0.0,0.0,0.0,0.0,0.0,0.0,0.0,0.0,0.0,0.0,0.0,0.0,0.0,0.0,0.0,0.0,0.0,0.0,0.0,0.0,0.0,0.0,0.0,0.0,0.0,0.0,0.0,0.0,0.0,0.0,0.0,0.0,0.0,0.0,0.0,0.0,0.0,0.0,0.0,0.0,0.0,0.0,0.0,0.0,0.0,0.0,0.0,0.0,0.0,0.0,0.0,0.0,0.0,0.0,0.0,0.0,0.0,0.0,0.0,0.0,0.0,0.0,0.0,0.0,0.0,0.0,0.0,0.0,0.0,0.0,0.0,0.0,0.0,0.0,0.0,0.0,0.0,0.0,0.0,0.0,0.0,0.0,0.0,0.0,0.0,0.0,0.0,0.0,0.0,0.0,0.0,0.0,0.0,0.0,0.0,0.0,0.0,0.0,0.0,0.0,0.0,0.0,0.0,0.0,0.0,0.0,0.0,0.0,0.0,0.0,0.0,0.0,0.0,0.0,0.0,0.0,0.0,0.0,0.0,0.0,0.0,0.0,0.0,0.0,0.0,0.0,0.0,0.0,0.0,0.0,0.0,0.0,0.0,0.0,0.0,0.0,0.0,0.0,0.0,0.0,0.0,0.0,0.0,0.0,0.0,0.0,0.0,0.0,0.0,0.0,0.0,0.0,0.0,0.0,0.0,0.0,0.0,0.0,0.0,0.0,0.0,0.0,0.0,0.0,0.0,0.0,0.0,0.0,0.0,0.0,0.0,0.0,0.0,0.0,0.0,0.0,0.0,0.0,0.0,0.0,0.0,0.0,0.0,0.0,0.0,0.0,0.0,0.0,0.0,0.0,0.0,0.0,0.0,0.0,0.0,0.0,0.0,0.0,0.0,0.0,0.0,0.0,0.0,0.0,0.0,0.0,0.0,0.0,0.0,0.0,0.0,0.0,0.0,0.0,0.0,0.0,0.0,0.0,0.0,0.0,0.0,0.0,0.0,0.0,0.0,0.0,0.0,0.0,0.0,0.0,0.0,0.0,0.0,0.0,0.0,0.0,0.0,0.0,0.0,0.0,0.0,0.0,0.0,0.0,0.0,0.0,0.0,0.0,0.0,0.0,0.0,0.0,0.0,0.0,0.0,0.0,0.0,0.0,0.0,0.0,0.0,0.0,0.0,0.0,0.0,0.0,0.0,0.0,0.0,0.0,0.0,0.0,0.0,0.0,0.0,0.0,0.0,0.0,0.0,0.0,0.0,0.0,0.0,0.0,0.0,0.0,0.0,0.0,0.0,0.0,0.0,0.0,0.0,0.0,0.0,0.0,0.0,0.0,0.0,0.0,0.0,0.0,0.0,0.0,0.0,0.0,0.0,0.0,0.0,0.0,0.0,0.0,0.0,0.0,0.0,0.0,0.0,0.0,0.0,0.0,0.0,0.0,0.0,0.0,0.0,0.0,0.0,0.0,0.0,0.0,0.0,0.0,0.0,0.0,0.0,0.0,0.0,0.0,0.0,0.0,0.0,0.0,0.0,0.0,0.0,0.0,0.0,0.0,0.0,0.0,0.0,0.0,0.0,0.0,0.0,0.0,0.0,0.0,0.0,0.0,0.0,0.0,0.0,0.0,0.0,0.0,0.0,0.0,0.0,0.0,0.0,0.0,0.0,0.0,0.0,0.0,0.0,0.0,0.0,0.0,0.0,0.0,0.0,0.0,0.0,0.0,0.0,0.0,0.0,0.0,0.0,0.0,0.0,0.0,0.0,0.0,0.0,0.0,0.0,0.0,0.0,0.0,0.0,0.0,0.0,0.0,0.0,0.0,0.0,0.0,0.0,0.0,0.0,0.0,0.0,0.0,0.0,0.0,0.0,0.0,0.0,0.0,0.0,0.0,0.0,0.0,0.0,0.0,0.0,0.0,0.0,0.0,0.0,0.0,0.0,0.0,0.0,0.0,0.0,0.0,0.0,0.0,0.0,0.0,0.0,0.0,0.0,0.0,0.0,0.0,0.0,0.0,0.0,0.0,0.0,0.0,0.0,0.0,0.0,0.0,0.0,0.0,0.0,0.0,0.0,0.0,0.0,0.0,0.0,0.0,0.0,0.0,0.0,0.0,0.0,0.0,0.0,0.0,0.0,0.0,0.0,0.0,0.0,0.0,0.0,0.0,0.0,0.0,0.0,0.0,0.0,0.0,0.0,0.0,0.0,0.0,0.0,0.0,0.0,0.0,0.0,0.0,0.0,0.0,0.0,0.0,0.0,0.0,0.0,0.0,0.0,0.0,0.0,0.0,0.0,0.0,0.0,0.0,0.0,0.0,0.0,0.0,0.0,0.0,0.0,0.0,0.0,0.0,0.0,0.0,0.0,0.0,0.0,0.0,0.0,0.0,0.0,0.0,0.0,0.0,0.0,0.0,0.0,0.0,0.0,0.0,0.0,0.0,0.0,0.0,0.0,0.0,0.0,0.0,0.0,0.0,0.0,0.0,0.0,0.0,0.0,0.0,0.0,0.0,0.0,0.0,0.0,0.0,0.0,0.0,0.0,0.0,0.0,0.0,0.0,0.0,0.0,0.0,0.0,0.0,0.0,0.0,0.0,0.0,0.0,0.0,0.0,0.0,0.0,0.0,0.0,0.0,0.0,0.0,0.0,0.0,0.0,0.0,0.0,0.0,0.0,0.0,0.0,0.0,0.0,0.0,0.0,0.0,0.0,0.0,0.0,0.0,0.0,0.0,0.0,0.0,0.0,0.0,0.0,0.0,0.0,0.0,0.0,0.0,0.0,0.0,0.0,0.0,0.0,0.0,0.0,0.0,0.0,0.0,0.0,0.0,0.0,0.0,0.0,0.0,0.0,0.0,0.0,0.0,0.0,0.0,0.0,0.0,0.0,0.0,0.0,0.0,0.0,0.0,0.0,0.0,0.0,0.0,0.0,0.0,0.0,0.0,0.0,0.0,0.0,0.0,0.0,0.0,0.0,0.0,0.0,0.0,0.0,0.0,0.0,0.0,0.0,0.0,0.0,0.0,0.0,0.0,0.0,0.0,0.0,0.0,0.0,0.0,0.0,0.0,0.0,0.0,0.0,0.0,0.0,0.0,0.0,0.0,0.0,0.0,0.0,0.0,0.0,0.0,0.0,0.0,0.0,0.0,0.0,0.0,0.0,0.0,0.0,0.0,0.0,0.0,0.0,0.0,0.0,0.0,0.0,0.0,0.0,0.0,0.0,0.0,0.0,0.0,0.0,0.0,0.0,0.0,0.0,0.0,0.0,0.0,0.0,0.0,0.0,0.0,0.0,0.0,0.0,0.0,0.0,0.0,0.0,0.0,0.0,0.0,0.0,0.0,0.0,0.0,0.0,0.0,0.0,0.0,0.0,0.0,0.0,0.0,0.0,0.0,0.0,0.0,0.0,0.0,0.0,0.0,0.0,0.0,0.0,0.0,0.0,0.0,0.0,0.0,0.0,0.0,0.0,0.0,0.0,0.0,0.0,0.0,0.0,0.0,0.0,0.0,0.0,0.0,0.0,0.0,0.0,0.0,0.0,0.0,0.0,0.0,0.0,0.0,0.0,0.0,0.0,0.0,0.0,0.0,0.0,0.0,0.0,0.0,0.0,0.0,0.0,0.0,0.0,0.0,0.0,0.0,0.0,0.0,0.0,0.0,0.0,0.0,0.0,0.0,0.0,0.0,0.0,0.0,0.0,0.0,0.0,0.0,0.0,0.0,0.0,0.0,0.0,0.0,0.0,0.0,0.0,0.0,0.0,0.0,0.0,0.0,0.0,0.0,0.0,0.0,0.0,0.0,0.0,0.0,0.0,0.0,0.0,0.0,0.0,0.0,0.0,0.0,0.0,0.0,0.0,0.0,0.0,0.0,0.0,0.0,0.0,0.0,0.0,0.0,0.0,0.0,0.0,0.0,0.0,0.0,0.0,0.0,0.0,0.0,0.0,0.0,0.0,0.0,0.0,0.0,0.0,0.0,0.0,0.0,0.0,0.0,0.0,0.0,0.0,0.0,0.0,0.0,0.0,0.0,0.0,0.0,0.0,0.0,0.0,0.0,0.0,0.0,0.0,0.0,0.0,0.0,0.0,0.0,0.0,0.0,0.0,0.0,0.0,0.0,0.0,0.0,0.0,0.0,0.0,0.0,0.0,0.0,0.0,0.0,0.0,0.0,0.0,0.0,0.0,0.0,0.0,0.0,0.0,0.0,0.0,0.0,0.0,0.0,0.0,0.0,0.0,0.0,0.0,0.0,0.0,0.0,0.0,0.0,0.0,0.0,0.0,0.0,0.0,0.0,0.0,0.0,0.0,0.0,0.0,0.0,0.0,0.0,0.0,0.0,0.0,0.0,0.0,0.0,0.0,0.0,0.0,0.0,0.0,0.0,0.0,0.0,0.0,0.0,0.0,0.0,0.0,0.0,0.0,0.0,0.0,0.0,0.0,0.0,0.0,0.0,0.0,0.0,0.0,0.0,0.0,0.0,0.0,0.0,0.0,0.0,0.0,0.0,0.0,0.0,0.0,0.0,0.0,0.0,0.0,0.0,0.0,0.0,0.0,0.0,0.0,0.0,0.0,0.0,0.0,0.0,0.0,0.0,0.0,0.0,0.0,0.0,0.0,0.0,0.0,0.0,0.0,0.0,0.0,0.0,0.0,0.0,0.0,0.0,0.0,0.0,0.0,0.0,0.0,0.0,0.0,0.0,0.0,0.0,0.0,0.0,0.0,0.0,0.0,0.0,0.0,0.0,0.0,0.0,0.0,0.0,0.0,0.0,0.0,0.0,0.0,0.0,0.0,0.0,0.0,0.0,0.0,0.0,0.0,0.0,0.0,0.0,0.0,0.0,0.0,0.0,0.0,0.0,0.0,0.0,0.0,0.0,0.0,0.0,0.0,0.0,0.0,0.0,0.0,0.0,0.0,0.0,0.0,0.0,0.0,0.0,0.0,0.0,0.0,0.0,0.0,0.0,0.0,0.0,0.0,0.0,0.0,0.0,0.0,0.0,0.0,0.0,0.0,0.0,0.0,0.0,0.0,0.0,0.0,0.0,0.0,0.0,0.0,0.0,0.0,0.0,0.0,0.0,0.0,0.0,0.0,0.0,0.0,0.0,0.0,0.0,0.0,0.0,0.0,0.0,0.0,0.0,0.0,0.0,0.0,0.0,0.0,0.0,0.0,0.0,0.0,0.0,0.0,0.0,0.0,0.0,0.0,0.0,0.0,0.0,0.0,0.0,0.0,0.0,0.0,0.0,0.0,0.0,0.0,0.0,0.0,0.0,0.0,0.0,0.0,0.0,0.0,0.0,0.0,0.0,0.0,0.0,0.0,0.0,0.0,0.0,0.0,0.0,0.0,0.0,0.0,0.0,0.0,0.0,0.0,0.0,0.0,0.0,0.0,0.0,0.0,0.0,0.0,0.0,0.0,0.0,0.0,0.0,0.0,0.0,0.0,0.0,0.0,0.0,0.0,0.0,0.0,0.0,0.0,0.0,0.0,0.0,0.0,0.0,0.0,0.0,0.0,0.0,0.0,0.0,0.0,0.0,0.0,0.0,0.0,0.0,0.0,0.0,0.0,0.0,0.0,0.0,0.0,0.0,0.0,0.0,0.0,0.0,0.0,0.0,0.0,0.0,0.0,0.0,0.0,0.0,0.0,0.0,0.0,0.0,0.0,0.0,0.0,0.0,0.0,0.0,0.0,0.0,0.0,0.0,0.0,0.0,0.0,0.0,0.0,0.0,0.0,0.0,0.0,0.0,0.0,0.0,0.0,0.0,0.0,0.0,0.0,0.0,0.0,0.0,0.0,0.0,0.0,0.0,0.0,0.0,-2.7895,-2.7754,0.0,0.0,0.0,0.0,0.0,0.0,0.0,0.0,0.0,0.0,0.0,0.0,0.0,0.0,0.0,0.0,0.0,0.0,0.0,0.0,0.0,0.0,0.0,-2.0738,-2.1652,-2.2042,-2.2484,-2.256,-2.2114,0.0,0.0,0.0,0.0,0.0,-2.0195,-2.0237,-2.0241,-2.0241,-2.0241,-2.0237,-2.0195,-2.0241,-2.0257,-2.0258,0.0,0.0,0.0,0.0,0.0,0.0,0.0,0.0,0.0,0.0,0.0,0.0,0.0,0.0,0.0,0.0,0.0,0.0,0.0,0.0,0.0,0.0,0.0,0.0,0.0,0.0,0.0,0.0,0.0,0.0,0.0,0.0,0.0,0.0,0.0,0.0,0.0,0.0,0.0,0.0,0.0,0.0,0.0,0.0,0.0,0.0,0.0,0.0,0.0,0.0,0.0,0.0,0.0,0.0,0.0,0.0,0.0,0.0,0.0,0.0,0.0,0.0,0.0,0.0,0.0,0.0,0.0,0.0,0.0,0.0,-2.9184,-2.8736,0.0,0.0,0.0,0.0,0.0,0.0,0.0,0.0,0.0,0.0,0.0,0.0,0.0,0.0,0.0,0.0,0.0,0.0,0.0,0.0,0.0,-1.8278,-1.9807,-2.0886,-2.176,-2.2422,-2.2609,-2.2647,-2.2499,-2.1871,0.0,0.0,0.0,-2.0193,-2.0208,-2.0193,-2.0184,-2.0171,-2.0167,-2.0162,-2.0162,-2.0199,-2.0197,-2.0199,-2.0237,0.0,0.0,0.0,0.0,0.0,0.0,0.0,0.0,0.0,0.0,0.0,0.0,0.0,0.0,0.0,0.0,0.0,0.0,0.0,0.0,0.0,0.0,0.0,0.0,0.0,0.0,0.0,0.0,0.0,0.0,0.0,0.0,0.0,0.0,0.0,0.0,0.0,0.0,0.0,0.0,0.0,0.0,0.0,0.0,0.0,0.0,0.0,0.0,0.0,0.0,0.0,0.0,0.0,0.0,0.0,0.0,0.0,0.0,0.0,0.0,0.0,0.0,0.0,-3.2544,-3.2883,-3.289,-3.2878,-3.2897,-3.2788,-3.0667,-3.0083,-3.0645,-3.0627,0.0,0.0,0.0,0.0,0.0,0.0,0.0,0.0,0.0,0.0,0.0,0.0,0.0,0.0,0.0,0.0,0.0,0.0,0.0,-1.8053,-1.8961,-2.0523,-2.1544,-2.1655,-2.2302,-2.2398,-2.1693,-2.1563,0.0,0.0,-2.0257,-2.0203,-2.0201,-2.0203,-2.0134,-2.0026,-2.0039,-2.0029,-2.0029,-2.016,0.0,-2.0201,-2.0084,-2.0031,-2.0041,0.0,0.0,0.0,0.0,0.0,0.0,0.0,0.0,0.0,0.0,0.0,0.0,0.0,0.0,0.0,0.0,0.0,0.0,0.0,0.0,0.0,0.0,0.0,0.0,0.0,0.0,0.0,0.0,0.0,0.0,0.0,0.0,0.0,0.0,0.0,0.0,0.0,0.0,0.0,0.0,0.0,-2.5297,-2.6909,0.0,0.0,0.0,0.0,0.0,0.0,0.0,0.0,0.0,0.0,0.0,0.0,0.0,-3.2478,-3.2471,-3.2586,-3.2644,-3.2644,-3.2766,-3.2804,-3.2804,-3.2811,-3.2831,-3.2884,-3.2486,0.0,-3.1612,-3.1548,0.0,0.0,0.0,0.0,0.0,0.0,0.0,0.0,0.0,0.0,0.0,0.0,0.0,0.0,0.0,0.0,0.0,0.0,0.0,0.0,0.0,-2.0539,-2.1401,-2.1854,-2.2216,-2.2296,-2.2018,0.0,0.0,-2.1437,-2.0604,-2.0274,-2.0583,-2.0218,-1.9979,-1.9839,-1.9822,-1.9841,-1.9834,-1.9885,0.0,-2.0015,-1.9821,-1.9824,-2.0002,-1.9946,0.0,0.0,0.0,0.0,0.0,0.0,0.0,0.0,0.0,0.0,0.0,0.0,0.0,0.0,0.0,0.0,0.0,0.0,0.0,0.0,0.0,0.0,0.0,0.0,0.0,0.0,0.0,0.0,0.0,0.0,0.0,0.0,0.0,0.0,0.0,0.0,0.0,0.0,0.0,-2.5209,-2.6896,-2.8108,-2.8227,-2.8249,0.0,0.0,0.0,0.0,0.0,0.0,0.0,0.0,0.0,-3.2264,-3.2615,-3.2773,-3.2732,-3.3237,-3.3467,-3.3486,-3.3968,-3.4205,-3.4205,-3.4208,-3.4223,-3.4244,-3.4223,-3.3773,-3.307,-3.2571,-3.2189,-3.1897,0.0,0.0,0.0,0.0,-3.1814,-3.1756,0.0,0.0,0.0,0.0,0.0,0.0,0.0,0.0,0.0,0.0,0.0,0.0,-1.9825,-2.035,-2.0884,-2.1485,-2.1533,0.0,0.0,0.0,-2.1035,-2.1683,-2.0603,-2.0172,-2.0576,-2.0064,-1.9738,-1.9624,-1.9624,-1.963,0.0,0.0,0.0,0.0,0.0,0.0,0.0,0.0,0.0,0.0,0.0,0.0,0.0,0.0,0.0,0.0,0.0,0.0,0.0,0.0,0.0,0.0,0.0,0.0,0.0,0.0,0.0,0.0,0.0,0.0,0.0,0.0,0.0,0.0,0.0,0.0,0.0,0.0,0.0,0.0,0.0,0.0,0.0,0.0,0.0,0.0,0.0,-2.6821,-2.8122,-2.9058,-2.9201,-2.9327,0.0,0.0,0.0,0.0,0.0,0.0,-3.2803,-3.3234,-3.3439,-3.3414,-3.3624,-3.3723,-3.3673,-3.4331,-3.4636,-3.4655,-3.5299,-3.5479,-3.5277,-3.5262,-3.5285,-3.5293,-3.5285,-3.4948,-3.4345,-3.3541,-3.3096,-3.2922,-3.291,-3.2904,-3.2915,-3.2904,-3.2904,-3.2897,0.0,0.0,0.0,0.0,0.0,0.0,0.0,0.0,0.0,0.0,0.0,-1.8892,-1.9626,0.0,-1.9693,0.0,0.0,0.0,0.0,0.0,-1.9795,-1.9832,-1.9763,-1.9732,-1.9757,-1.9596,-1.9492,0.0,0.0,0.0,0.0,0.0,0.0,0.0,0.0,0.0,0.0,0.0,0.0,0.0,0.0,0.0,0.0,0.0,0.0,0.0,0.0,0.0,0.0,0.0,0.0,0.0,0.0,0.0,0.0,0.0,0.0,0.0,0.0,0.0,0.0,0.0,0.0,0.0,0.0,0.0,0.0,0.0,0.0,0.0,0.0,0.0,0.0,0.0,0.0,0.0,0.0,0.0,0.0,-2.9769,-3.0513,0.0,0.0,0.0,0.0,-3.2608,-3.2489,-3.2822,-3.3865,-3.473,-3.5154,-3.5076,-3.5878,-3.6309,-3.6309,-3.6347,-3.6366,-3.6366,-3.6424,-3.6012,-3.5209,-3.5209,-3.5234,-3.5312,-3.5234,-3.5219,-3.5174,-3.4364,-3.3635,-3.2985,-3.2929,-3.2934,-3.2984,-3.2915,-3.291,-3.2897,0.0,0.0,0.0,-1.5277,-1.5587,-1.6034,-1.6352,-1.7238,-1.8085,-1.8624,-1.8987,-1.928,0.0,-1.9423,-1.9335,0.0,0.0,0.0,0.0,0.0,-1.9685,-2.0251,-1.9865,-1.9585,-1.9444,-1.9309,-1.9235,0.0,0.0,0.0,0.0,0.0,0.0,0.0,0.0,0.0,0.0,0.0,0.0,0.0,0.0,0.0,0.0,0.0,0.0,0.0,0.0,0.0,0.0,0.0,0.0,0.0,0.0,0.0,0.0,0.0,0.0,0.0,0.0,0.0,0.0,0.0,0.0,0.0,0.0,0.0,0.0,0.0,0.0,0.0,0.0,0.0,0.0,0.0,0.0,0.0,0.0,0.0,0.0,-3.0758,-3.1507,0.0,-3.2145,-3.2243,-3.2805,-3.4056,-3.4097,-3.4678,-3.6102,-3.6599,-3.6831,-3.6814,-3.712,-3.7273,-3.7273,-3.7273,-3.7273,-3.7273,-3.7273,-3.712,-3.6795,-3.6271,-3.605,-3.6048,-3.5439,-3.5207,-3.5269,-3.5537,-3.5185,-3.448,-3.445,-3.4464,-3.4474,-3.4445,-3.4443,-3.4448,-1.6003,-1.5975,0.0,-1.52,-1.5816,-1.6483,-1.6697,-1.7857,-1.8758,-1.8953,-1.9267,-1.9442,0.0,0.0,0.0,0.0,0.0,0.0,0.0,0.0,-1.9494,-2.0066,-1.9952,-1.9808,-1.9635,-1.9557,-1.9644,0.0,0.0,0.0,0.0,0.0,0.0,0.0,0.0,0.0,0.0,0.0,0.0,0.0,0.0,0.0,-1.9725,0.0,0.0,0.0,0.0,0.0,0.0,0.0,0.0,0.0,0.0,0.0,0.0,0.0,0.0,0.0,0.0,0.0,0.0,0.0,0.0,0.0,0.0,0.0,0.0,0.0,0.0,0.0,0.0,0.0,0.0,0.0,0.0,0.0,0.0,-2.9977,-3.0768,-3.1634,-3.2362,-3.2857,-3.2986,-3.3069,-3.3753,-3.5324,-3.5363,-3.6084,-3.7861,-3.8069,-3.8132,-3.8132,-3.8132,-3.8132,-3.8132,-3.8132,-3.8132,-3.8132,-3.8132,-3.798,-3.7674,-3.7158,-3.6901,-3.6863,-3.6298,-3.605,-3.6088,-3.668,-3.6419,-3.5729,-3.6032,-3.599,-3.5737,-3.5737,-3.555,-3.5304,-1.5194,-1.5143,-1.5094,-1.5094,-1.5845,-1.6662,-1.7302,-1.8159,-1.8919,-1.9441,-1.9449,-1.9309,0.0,0.0,0.0,0.0,0.0,0.0,0.0,-1.9101,-1.9107,-1.9107,-1.9924,-2.0361,-2.029,-2.0326,0.0,0.0,0.0,0.0,0.0,0.0,0.0,0.0,0.0,0.0,0.0,0.0,0.0,0.0,0.0,0.0,-1.9696,0.0,0.0,0.0,0.0,0.0,0.0,0.0,0.0,0.0,0.0,0.0,0.0,0.0,0.0,0.0,0.0,0.0,0.0,0.0,0.0,0.0,0.0,0.0,0.0,0.0,0.0,0.0,0.0,0.0,0.0,0.0,0.0,0.0,-3.0235,-3.1006,-3.1798,-3.2377,-3.3155,-3.3657,-3.3695,-3.4211,-3.5121,-3.6474,-3.6331,-3.7015,-3.8945,-3.9049,-3.9049,-3.9049,-3.9049,-3.9049,-3.9049,-3.9049,-3.9049,-3.9049,-3.9049,-3.8591,-3.7769,-3.775,-3.7731,-3.7731,-3.7693,-3.7655,-3.7655,-3.7655,-3.7196,-3.6585,-3.743,-3.7269,-3.6562,-3.6562,-3.6013,-3.5277,-1.5143,-1.5117,-1.5094,-1.5103,-1.6304,-1.7299,-1.7383,-1.854,-1.9439,-1.9483,-1.9372,0.0,0.0,0.0,0.0,0.0,0.0,0.0,-1.8226,-1.8777,-1.9094,-1.9094,-1.9892,0.0,-2.0228,0.0,0.0,0.0,0.0,0.0,0.0,0.0,0.0,0.0,0.0,0.0,0.0,0.0,0.0,0.0,0.0,0.0,-1.9487,0.0,0.0,0.0,0.0,0.0,0.0,0.0,0.0,0.0,0.0,0.0,0.0,0.0,0.0,0.0,0.0,0.0,0.0,0.0,0.0,0.0,0.0,0.0,0.0,0.0,0.0,0.0,0.0,0.0,0.0,0.0,-3.0137,-3.099,-3.1058,-3.2325,-3.3328,-3.3533,-3.4137,-3.485,-3.5632,-3.5685,-3.6397,-3.8191,-3.824,-3.8708,-3.9881,-3.9938,-3.9938,-3.9938,-3.9938,-3.9938,-3.9938,-3.9938,-3.9938,-3.9938,-3.9938,-3.9823,-3.9565,-3.8935,-3.8648,-3.8572,-3.7368,-3.6825,-3.6825,-3.6825,-3.6691,-3.6519,-3.6765,-3.6343,-3.5586,-3.5586,-3.5425,-3.5201,-1.5117,-1.5107,-1.5218,-1.557,-1.672,-1.7668,-1.783,-1.8917,-1.9618,-1.9398,-1.9272,0.0,0.0,0.0,0.0,0.0,0.0,-1.7545,-1.7881,-1.8636,-1.9206,-1.9541,0.0,-2.0859,0.0,0.0,0.0,0.0,0.0,0.0,0.0,0.0,0.0,0.0,0.0,0.0,0.0,0.0,0.0,0.0,0.0,0.0,-1.9837,-2.0451,-2.0482,-2.0314,-2.1161,-2.1214,-2.0962,-2.1333,0.0,0.0,0.0,0.0,0.0,0.0,0.0,0.0,0.0,0.0,0.0,0.0,0.0,0.0,0.0,0.0,0.0,0.0,0.0,0.0,0.0,0.0,0.0,0.0,-3.1333,-3.2321,-3.2398,-3.3277,-3.4001,-3.4293,-3.4983,-3.5647,-3.6262,-3.6502,-3.7271,-3.8878,-3.9011,-3.9374,-4.0244,-4.0301,-4.0301,-4.0301,-4.0301,-4.0301,-4.0301,-4.0301,-4.0301,-4.0301,-4.0301,-4.0301,-4.0282,-3.9766,-3.9546,-3.947,-3.8124,-3.7551,-3.7512,-3.7149,-3.6806,-3.6538,0.0,0.0,0.0,0.0,-3.5141,-3.5063,-1.5383,-1.5391,-1.5631,-1.6392,-1.7217,-1.7917,-1.8433,-1.9194,-1.9585,-1.9253,0.0,0.0,0.0,0.0,0.0,0.0,0.0,-1.7074,0.0,0.0,0.0,-2.0155,-2.0902,0.0,0.0,0.0,0.0,0.0,0.0,0.0,0.0,0.0,0.0,0.0,0.0,0.0,0.0,0.0,0.0,0.0,0.0,0.0,-2.055,-2.0731,-2.0366,-1.9941,-2.1499,-2.1584,-2.1096,-2.1909,0.0,0.0,0.0,0.0,0.0,0.0,0.0,0.0,0.0,0.0,0.0,0.0,0.0,0.0,0.0,0.0,0.0,0.0,0.0,0.0,0.0,0.0,0.0,0.0,-3.2262,-3.3751,-3.391,-3.397,-3.4236,-3.4775,-3.5599,-3.6149,-3.6264,-3.6992,-3.7926,-3.905,-3.9145,-3.9489,-4.0263,-4.0301,0.0,0.0,0.0,-4.0301,-4.0301,-4.0301,-4.0301,-4.0301,-4.0301,-4.0301,-4.0301,-4.0301,-4.0244,-4.0091,-3.924,-3.8801,-3.8648,-3.7789,-3.7005,-3.6424,-3.7139,-3.6986,-3.6252,-3.5488,-3.5072,-3.4908,-1.7205,-1.7152,-1.7164,-1.7336,-1.8077,-1.8649,-1.8665,-1.926,-1.9618,-1.9387,-1.928,0.0,0.0,0.0,0.0,0.0,0.0,0.0,0.0,0.0,-1.9282,-2.0073,0.0,0.0,0.0,0.0,0.0,0.0,0.0,0.0,0.0,0.0,0.0,0.0,0.0,0.0,0.0,0.0,0.0,0.0,0.0,0.0,-2.137,-2.1415,-2.1341,-2.124,-2.1586,-2.1594,-2.1586,-2.2392,-2.2227,-2.1806,-2.2465,0.0,0.0,0.0,0.0,0.0,0.0,0.0,0.0,0.0,0.0,0.0,0.0,0.0,0.0,0.0,0.0,0.0,0.0,0.0,0.0,-3.2756,-3.3401,-3.3922,-3.4595,-3.4745,-3.4876,-3.5101,-3.5695,-3.6453,-3.7317,-3.8023,-3.8887,-3.9967,-4.0053,-4.011,-4.0282,-4.0301,-4.0301,-4.0301,-4.0301,-4.0301,-4.0301,-4.0301,-4.0301,-4.0301,-4.0301,0.0,-4.0301,-4.0301,-3.9919,-3.9202,-3.8323,-3.7578,-3.692,-3.605,-3.5592,-3.5469,-3.563,-3.5592,-3.543,-3.5267,-3.5072,-3.487,-1.887,-1.8224,-1.7737,-1.8172,-1.8612,-1.8978,-1.9165,-1.9475,-1.9612,-1.9376,-1.9256,0.0,0.0,0.0,0.0,0.0,0.0,0.0,0.0,0.0,0.0,0.0,0.0,0.0,0.0,0.0,0.0,0.0,0.0,0.0,0.0,0.0,0.0,0.0,0.0,0.0,0.0,0.0,0.0,0.0,0.0,0.0,-2.2624,-2.1843,-2.1543,-2.1598,-2.2008,-2.2153,-2.2271,-2.3119,-2.3119,-2.2827,-2.3257,-2.3403,-2.3414,0.0,0.0,0.0,0.0,0.0,0.0,0.0,0.0,0.0,0.0,0.0,0.0,0.0,0.0,-2.9688,-3.092,0.0,-3.2728,-3.3562,-3.4036,-3.4434,-3.4832,-3.4927,-3.4992,-3.5084,-3.6055,-3.6956,-3.7621,-3.8669,-3.958,-4.0253,-4.0301,-4.0301,-4.0301,-4.0301,-4.0301,-4.0301,-4.0301,-4.0301,-4.0301,-4.0301,-4.0301,-4.0301,-4.0301,-4.0072,-3.9661,-3.9661,-3.9164,-3.8304,-3.7464,-3.6863,-3.6424,-3.5564,-3.5209,-3.5209,-3.5209,-3.5209,-3.5193,-3.5089,-3.4889,-3.4663,-2.0059,-1.9067,-1.8306,-1.9009,-1.9124,-1.9278,-1.9715,-1.9756,-1.965,-1.9446,-1.9318,-1.8948,-1.8117,-1.7965,-1.7654,0.0,0.0,0.0,0.0,0.0,0.0,0.0,0.0,0.0,0.0,0.0,0.0,0.0,0.0,0.0,0.0,0.0,0.0,0.0,0.0,0.0,0.0,0.0,0.0,0.0,0.0,0.0,-2.365,-2.2419,-2.1859,-2.1815,-2.2469,-2.2696,-2.2841,-2.3672,-2.3927,-2.3896,-2.3937,-2.4075,-2.4202,-2.4213,-2.4767,0.0,0.0,0.0,0.0,0.0,0.0,0.0,0.0,-2.8184,-2.8643,-3.017,-3.0427,-3.0844,-3.236,-3.324,-3.3752,-3.3903,-3.4472,-3.4908,-3.4908,-3.4908,-3.4927,-3.4964,-3.6243,-3.7259,-3.7651,-3.8926,-3.9877,-4.0272,-4.0301,-4.0301,-4.0301,-4.0301,-4.0301,-4.0301,-4.0301,-4.0301,-4.0301,-4.0301,-4.0301,-4.0301,-4.0129,-3.9671,-3.8992,-3.882,-3.8285,-3.7426,-3.6596,-3.6252,-3.6194,-3.5488,-3.5209,-3.5201,-3.5168,-3.5132,-3.5115,-3.4964,-3.4733,-3.4475,-2.0174,-2.0,-1.9845,-1.994,-1.9979,-1.9988,-2.0041,-1.9955,-1.9873,-1.9847,-1.9629,-1.9113,-1.8194,-1.8038,-1.7931,0.0,0.0,0.0,0.0,0.0,0.0,0.0,0.0,0.0,0.0,0.0,0.0,0.0,0.0,0.0,0.0,0.0,0.0,0.0,0.0,0.0,0.0,0.0,0.0,0.0,0.0,0.0,-2.3777,-2.3596,-2.3143,-2.2582,-2.2672,-2.2709,-2.2817,-2.3581,-2.3816,-2.3806,-2.3816,-2.4306,-2.4896,-2.4958,-2.5499,-2.6111,-2.6179,-2.6348,-2.6738,-2.7665,-2.8082,-2.8641,0.0,-3.0665,-3.1042,-3.1943,-3.2132,-3.2397,-3.3373,-3.3638,-3.3922,-3.4643,-3.4832,-3.4908,-3.4908,-3.4908,-3.4889,-3.4917,-3.5799,-3.6739,-3.7622,-3.8489,-3.9366,-4.0244,-4.0301,-4.0301,-4.0301,-4.0301,-4.0301,-4.0301,-4.0301,-4.0301,-4.0301,-4.0301,-4.0301,-4.0282,-3.9527,-3.9088,-3.8973,-3.819,-3.7406,-3.6596,-3.5717,-3.5362,-3.5335,-3.5248,-3.5209,-3.5174,-3.501,-3.4926,-3.4936,-3.4917,-3.4733,-3.4475,-2.0193,-2.0149,-2.0093,-2.0093,-2.0093,-2.0074,-1.9991,-1.9939,-1.986,-1.978,-1.9682,-1.946,-1.9061,-1.8875,-1.8713,-1.8614,-1.8947,0.0,-2.011,0.0,0.0,0.0,0.0,0.0,0.0,0.0,0.0,0.0,0.0,0.0,0.0,0.0,0.0,0.0,0.0,0.0,0.0,0.0,0.0,0.0,0.0,0.0,-2.3806,-2.3806,-2.3614,-2.3343,-2.3343,-2.3343,0.0,0.0,-2.3506,-2.3234,-2.365,-2.3415,-2.3143,-2.408,-2.4886,-2.5805,-2.726,-2.7671,-2.7855,-2.8434,-2.8989,-2.9646,-3.0677,-3.1327,-3.1987,-3.2967,-3.3164,-3.3411,-3.4245,-3.4396,-3.451,-3.4851,-3.5325,-3.5476,-3.4965,-3.5344,-3.5476,-3.4965,-3.5685,-3.6597,-3.7547,-3.8394,-3.928,-4.0225,-4.0301,-4.0301,-4.0301,-4.0301,-4.0301,-4.0301,-4.0301,-4.0301,-4.0301,-4.0301,-4.0301,-4.0301,-3.9919,-3.924,-3.8228,-3.7865,-3.6986,-3.5717,-3.5354,-3.5209,-3.5209,-3.5209,-3.5209,-3.5185,-3.4982,-3.4908,-3.486,-3.4588,-3.4424,-3.4279,-2.0146,-2.0144,-2.0093,-2.0093,-2.0093,-2.0065,-1.9971,-1.9955,-1.9928,-1.9821,-1.9787,-1.9732,-1.9682,-1.9497,-1.9342,-1.9214,-1.9696,-2.0198,0.0,-2.1706,0.0,0.0,0.0,0.0,0.0,0.0,0.0,0.0,0.0,0.0,0.0,0.0,0.0,0.0,0.0,0.0,0.0,0.0,0.0,0.0,0.0,0.0,-2.3806,-2.3806,-2.3806,-2.3806,-2.3806,-2.3806,0.0,0.0,-2.3451,-2.3107,-2.3632,-2.318,-2.2727,-2.4067,-2.519,-2.6367,-2.8129,-2.86,-2.865,-2.8839,-2.9355,-3.0033,-3.0941,-3.1643,-3.2445,-3.3695,-3.3999,-3.4188,-3.4717,-3.4851,-3.4984,-3.5211,-3.559,-3.5704,-3.5306,-3.559,-3.5704,-3.5306,-3.5817,-3.6663,-3.7814,-3.8499,-3.9261,-4.0206,-4.0301,-4.0301,-4.0301,-4.0301,-4.0301,-4.0301,-4.0301,-4.0301,-4.0301,-4.0301,-4.0301,-4.0282,-3.9804,-3.8916,-3.7674,-3.7215,-3.6356,-3.5209,-3.5209,-3.5209,-3.5209,-3.5209,-3.5176,-3.5098,-3.4879,-3.4772,-3.4651,-3.4239,-3.4136,-3.4161,-2.0024,-2.015,-2.0093,-2.0093,-2.0093,-2.0093,-2.0088,-2.0088,-2.0088,-2.0084,-1.9971,-1.9821,-1.9612,-1.9591,-1.955,-1.9485,-1.9499,-2.0181,-2.1755,-2.1826,0.0,0.0,0.0,0.0,0.0,0.0,0.0,0.0,0.0,0.0,0.0,0.0,0.0,0.0,0.0,0.0,0.0,0.0,0.0,0.0,0.0,0.0,-2.3806,-2.3806,-2.3806,-2.3806,-2.3806,0.0,0.0,0.0,-2.3788,-2.3759,-2.3777,-2.4302,0.0,-2.5878,-2.7242,-2.8509,-2.8582,-2.86,-2.86,-2.8612,-2.8822,-2.9513,-3.1348,-3.1936,-3.2575,-3.4229,-3.4733,-3.4812,-3.4636,-3.4771,-3.5173,-3.6017,-3.5476,-3.523,-3.6055,-3.5457,-3.523,-3.6074,-3.6187,-3.689,-3.8591,-3.8784,-3.9194,-4.012,-4.0263,-4.0301,-4.0301,-4.0301,-4.0301,-4.0301,-4.0301,-4.0301,-4.0301,-4.0301,-4.0301,-4.0282,-3.8591,-3.775,-3.7636,-3.6012,-3.5248,-3.5209,-3.5209,-3.5209,-3.5209,-3.5209,-3.5089,-3.4879,-3.4622,-3.4394,-3.4185,-3.3908,-3.3972,-3.4161,-1.9199,-1.9594,-1.9965,-1.9965,-2.0045,-2.0093,-2.0093,-2.0093,-2.0093,-2.0093,-2.006,0.0,0.0,0.0,0.0,0.0,-2.0017,-2.0533,-2.1071,-2.2113,0.0,0.0,0.0,0.0,0.0,0.0,0.0,0.0,0.0,0.0,0.0,0.0,0.0,0.0,0.0,0.0,0.0,0.0,0.0,0.0,0.0,0.0,-2.5573,-2.4874,-2.4699,-2.4779,0.0,0.0,0.0,0.0,-2.3469,-2.3161,-2.365,0.0,0.0,-2.423,-2.5751,-2.7115,-2.7658,-2.8183,-2.86,-2.86,-2.9074,-2.9874,-3.1231,-3.2073,-3.2952,-3.4325,-3.4728,-3.483,-3.4801,-3.4841,-3.5192,-3.6055,-3.595,-3.5855,-3.6168,-3.6405,-3.6462,-3.6225,-3.7173,-3.8093,-3.8672,-3.8762,-3.9193,-4.0139,-4.0215,-4.0253,-4.0301,-4.0301,-4.0301,-4.0301,-4.0301,-4.0301,-4.0301,-4.0301,-4.0014,-3.9431,-3.7731,-3.6901,-3.6863,-3.5725,-3.5209,-3.5209,-3.5209,-3.5209,-3.5193,-3.5054,-3.4964,-3.486,-3.4469,-3.4262,-3.4161,-3.3842,-3.3793,-3.3855,-1.9034,-1.9439,-1.9826,-1.9826,-1.9944,0.0,0.0,0.0,0.0,0.0,0.0,0.0,0.0,0.0,0.0,0.0,0.0,-2.0575,-2.0882,-2.191,0.0,0.0,0.0,0.0,0.0,0.0,0.0,0.0,0.0,0.0,0.0,0.0,0.0,0.0,0.0,0.0,0.0,0.0,0.0,0.0,0.0,0.0,-2.6194,-2.5509,-2.5114,0.0,0.0,0.0,0.0,0.0,-2.3487,-2.318,-2.365,0.0,0.0,-2.4284,-2.5588,-2.6735,-2.726,-2.7984,-2.8527,-2.8213,-2.8737,-2.9619,-3.0742,-3.1685,-3.2661,-3.3788,-3.4193,-3.4411,-3.4665,-3.4585,-3.4946,-3.6396,-3.6396,-3.6415,-3.7021,-3.7268,-3.7325,-3.7116,-3.8045,-3.8803,-3.9096,-3.9166,-3.9456,-4.0118,-4.0186,-4.0234,-4.0301,-4.0301,-4.0301,-4.0301,-4.0301,-4.0148,-3.9843,-4.0129,-3.9862,-3.8973,-3.7597,-3.6787,-3.6462,-3.5602,-3.5209,-3.5209,-3.5209,-3.5209,-3.5201,-3.5063,-3.4954,-3.486,-3.4567,-3.4321,-3.4136,-3.3921,-3.3766,-3.3671,-1.9495,-1.9657,-1.9688,0.0,0.0,0.0,0.0,0.0,0.0,0.0,0.0,0.0,0.0,0.0,0.0,0.0,0.0,0.0,-2.1186,0.0,0.0,0.0,-2.2513,-2.288,-2.3589,-2.3639,-2.3992,0.0,0.0,0.0,0.0,0.0,0.0,0.0,0.0,0.0,0.0,0.0,0.0,0.0,0.0,0.0,-2.5837,-2.5772,0.0,0.0,0.0,0.0,0.0,-2.3878,-2.3896,-2.3922,-2.3868,-2.4411,-2.5208,-2.5921,-2.6699,-2.7333,-2.7278,-2.7857,-2.8267,-2.7494,-2.7891,-2.8764,-2.9995,-3.0874,-3.1727,-3.2725,-3.3195,-3.3605,-3.4181,-3.3965,-3.4491,-3.6946,-3.6699,-3.6794,-3.8462,-3.7988,-3.778,-3.8595,-3.869,-3.9031,-3.9824,-3.9862,-3.9905,-4.0077,-4.0157,-4.0215,-4.0301,-4.0301,-4.0301,-4.0301,-4.0263,-3.9862,-3.9069,-3.9843,-3.9804,-3.8916,-3.8094,-3.7292,-3.6538,-3.566,-3.5267,-3.5259,-3.5229,-3.5201,-3.5201,-3.5193,-3.5072,-3.4898,-3.486,-3.4545,-3.4099,-3.4074,-3.3855,-3.3591,0.0,0.0,0.0,0.0,0.0,0.0,0.0,0.0,0.0,0.0,0.0,0.0,0.0,0.0,0.0,0.0,0.0,0.0,-2.033,0.0,0.0,0.0,0.0,0.0,-2.3608,-2.4147,0.0,0.0,0.0,0.0,0.0,0.0,0.0,0.0,0.0,0.0,0.0,0.0,0.0,0.0,0.0,0.0,-2.7632,0.0,0.0,0.0,0.0,0.0,0.0,-2.49,-2.5099,-2.5468,-2.4815,-2.5217,-2.5812,-2.5364,-2.585,-2.6385,-2.5769,-2.6169,-2.6838,-2.7223,-2.7519,-2.8155,-2.9654,-3.035,-3.096,-3.192,-3.2299,-3.253,-3.2786,-3.3318,-3.432,-3.6206,-3.6339,-3.6794,-3.8462,-3.8519,-3.8443,-3.8671,-3.869,-3.9031,-3.9824,-3.9361,-3.9279,-3.9969,-4.0087,-4.0157,-4.0215,-4.0263,-4.0301,-4.0301,-3.9671,-3.9546,-3.9957,-3.9546,-3.8897,-3.8037,-3.7808,-3.7597,-3.7368,-3.6538,-3.6175,-3.6137,-3.5469,-3.5204,-3.5189,-3.5047,-3.4889,-3.4723,-3.4424,-3.4179,-3.3998,-3.3753,-3.3605,-3.352,0.0,0.0,0.0,0.0,0.0,0.0,0.0,0.0,0.0,0.0,0.0,0.0,0.0,0.0,0.0,0.0,0.0,0.0,0.0,0.0,0.0,0.0,0.0,0.0,0.0,0.0,0.0,0.0,0.0,0.0,0.0,0.0,0.0,0.0,0.0,0.0,0.0,0.0,0.0,0.0,0.0,0.0,0.0,0.0,0.0,0.0,0.0,0.0,0.0,-2.5805,-2.5823,-2.612,-2.5622,-2.5807,-2.6102,-2.5604,-2.5825,-2.6011,-2.5226,-2.5543,-2.614,-2.6307,-2.6897,-2.7724,-2.8742,-2.9701,-3.0542,-3.1176,-3.1439,-3.1721,-3.2204,-3.276,-3.3809,-3.5865,-3.651,-3.7296,-3.8982,-3.9229,-3.9229,-3.9229,-3.9229,-3.9399,-3.9862,-3.9494,-3.9429,-3.9916,-3.9685,-3.9737,-4.0177,-3.99,-3.99,-4.0282,-3.9823,-3.9804,-4.0301,-3.9069,-3.8572,-3.8839,-3.7712,-3.7368,-3.7674,-3.6863,-3.629,-3.5927,-3.5812,-3.5556,-3.5187,-3.5091,-3.4917,-3.4723,-3.4502,-3.4208,-3.3884,-3.3703,-3.3559,-3.3452,0.0,0.0,0.0,0.0,0.0,0.0,0.0,0.0,0.0,-2.0069,-2.0084,-2.0093,-2.0093,-2.0093,0.0,0.0,0.0,0.0,0.0,0.0,0.0,0.0,0.0,0.0,0.0,0.0,0.0,0.0,0.0,0.0,0.0,0.0,0.0,0.0,0.0,0.0,0.0,0.0,0.0,0.0,0.0,0.0,0.0,0.0,0.0,0.0,0.0,0.0,0.0,0.0,-2.6553,-2.65,-2.6391,-2.6427,-2.65,-2.6391,-2.6283,-2.6011,-2.5226,-2.5403,-2.5728,-2.5346,-2.6306,-2.7419,-2.7864,-2.9123,-3.0257,-3.0487,-3.0647,-3.0998,-3.1817,-3.2127,-3.307,-3.5609,-3.6718,-3.7864,-3.9654,-3.99,-3.99,-3.99,-3.9805,-3.9786,-3.99,-3.9805,-3.9786,-3.99,-3.9218,-3.9213,-4.0148,-3.9528,-3.9451,-4.0072,-4.0215,-4.0177,-3.9967,-3.8572,-3.8629,-4.0081,-3.7866,-3.7179,-3.7809,-3.7122,-3.6281,-3.5395,-3.6156,-3.5995,-3.5166,-3.5193,-3.5037,-3.4782,-3.4733,-3.4345,-3.3795,-3.3755,-3.3606,-3.3393,0.0,0.0,0.0,0.0,0.0,0.0,0.0,0.0,0.0,0.0,0.0,0.0,0.0,0.0,0.0,0.0,0.0,0.0,0.0,0.0,0.0,0.0,0.0,0.0,0.0,-2.2097,0.0,0.0,0.0,0.0,0.0,0.0,0.0,0.0,0.0,0.0,0.0,0.0,0.0,0.0,0.0,0.0,0.0,0.0,0.0,0.0,0.0,0.0,0.0,0.0,-2.836,-2.8062,-2.7338,-2.7603,-2.8044,-2.7308,-2.6682,-2.6011,-2.5226,-2.4678,-2.4634,-2.5801,-2.6507,-2.7237,-2.8566,-2.9257,-2.9648,-2.9688,-2.9861,-3.0045,-3.0195,-3.0879,-3.2217,-3.4718,-3.5836,-3.722,-3.9578,-3.99,-3.99,-3.99,-3.9304,-3.9172,-3.9843,-3.9304,-3.9172,-3.9843,-3.9224,-3.9201,-4.0059,-4.0043,-3.971,-3.907,-3.9805,-3.9557,-3.8165,-3.8564,-3.8898,-3.9147,-3.8689,-3.8537,-3.8614,-3.8518,-3.7613,-3.6128,-3.6389,-3.5944,-3.5047,-3.5145,-3.4993,-3.4615,-3.4386,-3.4105,-3.3775,-3.3545,-3.3452,-3.3393,0.0,0.0,0.0,0.0,0.0,0.0,0.0,0.0,0.0,0.0,-2.006,-2.0093,0.0,0.0,0.0,0.0,0.0,0.0,0.0,0.0,0.0,0.0,0.0,0.0,-2.0688,-2.2359,-2.321,-2.3179,0.0,0.0,0.0,-2.3809,-2.3778,-2.3771,0.0,0.0,0.0,0.0,0.0,0.0,0.0,0.0,0.0,0.0,0.0,0.0,0.0,0.0,0.0,0.0,-2.9075,-2.8854,-2.8191,-2.8267,-2.8442,-2.7603,-2.6814,-2.6046,-2.5339,-2.4923,-2.4884,-2.5772,-2.6703,-2.7646,-2.8501,-2.9104,-2.9531,-2.9626,-2.9727,-2.9816,-2.9841,-3.0591,-3.1876,-3.3941,-3.4984,-3.6405,-3.8925,-3.9286,-3.9437,-3.9843,-3.957,-3.9475,-3.9862,-3.954,-3.9475,-3.9862,-3.9604,-3.9608,-4.0027,-4.0108,-3.9946,-3.9498,-3.9908,-3.9785,-3.9014,-3.8555,-3.8517,-3.889,-3.8022,-3.7804,-3.8185,-3.8671,-3.7937,-3.6329,-3.6878,-3.6345,-3.5057,-3.4964,-3.4713,-3.4371,-3.4099,-3.3845,-3.3577,-3.3452,-3.3393,-3.3393,0.0,0.0,0.0,0.0,0.0,0.0,0.0,-1.9774,-1.9912,-2.0045,-2.0079,-2.0093,-2.0093,-2.0265,0.0,0.0,0.0,0.0,0.0,0.0,0.0,0.0,0.0,0.0,-2.0637,0.0,0.0,-2.317,-2.4733,0.0,0.0,0.0,0.0,0.0,-2.4467,-2.4847,-2.5018,0.0,0.0,0.0,0.0,-2.6163,0.0,0.0,0.0,0.0,0.0,0.0,0.0,0.0,-2.9334,-2.9241,-2.8868,-2.8718,-2.856,-2.7937,-2.7127,-2.6388,-2.5996,-2.5764,-2.5721,-2.6154,-2.7177,-2.8172,-2.8521,-2.9082,-2.9579,-2.9754,-2.9816,-2.9832,-2.988,-3.0465,-3.1526,-3.3392,-3.4226,-3.559,-3.831,-3.869,-3.9012,-3.9805,-3.99,-3.99,-3.99,-3.99,-3.99,-3.99,-3.9943,-3.9986,-3.9996,-4.0057,-4.0067,-4.0057,-4.0067,-4.0098,-4.0166,-3.8509,-3.807,-3.8852,-3.7356,-3.6976,-3.7604,-3.8671,-3.8118,-3.6349,-3.7298,-3.6699,-3.5048,-3.4783,-3.4486,-3.4171,-3.3899,-3.3634,-3.3393,-3.3393,-3.3393,-3.3393,0.0,0.0,0.0,0.0,0.0,0.0,0.0,-1.9619,-1.9768,-1.9907,-2.0011,-2.0093,-2.0093,-2.081,0.0,0.0,0.0,0.0,0.0,0.0,0.0,0.0,0.0,0.0,0.0,0.0,0.0,-2.4956,-2.3604,0.0,0.0,0.0,0.0,0.0,0.0,-2.4353,-2.5095,-2.5095,0.0,0.0,0.0,0.0,0.0,0.0,0.0,0.0,0.0,-2.983,-2.9644,-2.9598,-2.9455,-2.9293,-2.9251,-2.9119,-2.8938,-2.8877,-2.8117,-2.7379,-2.7752,-2.7259,-2.6888,-2.7821,-2.8212,-2.8576,-2.9392,-2.9636,-2.9701,-2.9782,-2.9849,-2.9888,-2.9897,-2.9972,-3.0825,-3.3297,-3.3752,-3.4965,-3.8235,-3.869,-3.9012,-3.9805,-3.99,-3.99,-3.99,-3.99,-3.99,-3.99,-3.99,-3.9933,-3.9996,-4.0007,-3.9975,-3.9922,-3.9975,-4.0007,-4.0017,-3.8422,-3.8004,-3.8801,-3.7851,-3.7442,-3.7575,-3.924,-3.8651,-3.635,-3.7289,-3.6643,-3.4889,-3.4684,-3.445,-3.4166,-3.3908,-3.3629,-3.3393,-3.3393,-3.3393,-3.3393,0.0,0.0,0.0,0.0,0.0,0.0,0.0,-1.9688,-1.9822,-2.001,-2.0098,-2.0158,-2.0159,-2.1369,-2.1823,0.0,0.0,0.0,0.0,0.0,0.0,0.0,0.0,0.0,0.0,0.0,-2.3403,-2.4415,-2.4729,0.0,0.0,0.0,0.0,0.0,0.0,-2.4784,-2.5107,-2.5108,0.0,0.0,0.0,0.0,0.0,0.0,0.0,0.0,0.0,0.0,-2.9883,-2.9847,-2.9751,-2.9644,-2.9523,-2.9435,-2.9334,-2.9228,-2.8539,-2.7893,-2.8203,-2.8026,-2.7875,-2.8367,-2.8862,-2.9332,-2.9671,-2.9755,-2.9773,-2.9849,-2.9872,-2.9897,-2.9897,-2.9897,-3.056,-3.2596,-3.2918,-3.3922,-3.6794,-3.7609,-3.8235,-3.9077,-3.9597,-3.99,-3.99,-3.99,-3.99,-3.99,-3.9456,-3.941,-3.9914,-3.9943,-3.9922,-3.99,-3.9922,-3.9954,-3.9996,-3.8364,-3.7699,-3.8002,-3.7166,-3.7005,-3.7469,-3.8251,-3.7994,-3.6956,-3.6891,-3.6036,-3.471,-3.4458,-3.4203,-3.3934,-3.3657,-3.3477,-3.3393,-3.3393,-3.3393,-3.3393,0.0,0.0,0.0,0.0,0.0,0.0,-1.9618,-1.9732,-1.9864,-2.0025,-2.0346,-2.0459,-2.0235,-2.1909,-2.2703,-2.1856,0.0,0.0,0.0,0.0,0.0,0.0,0.0,0.0,0.0,0.0,-2.4142,-2.4645,-2.5581,-2.5434,0.0,0.0,-2.482,-2.431,0.0,0.0,0.0,0.0,0.0,0.0,0.0,0.0,0.0,0.0,0.0,0.0,0.0,0.0,0.0,0.0,0.0,-2.9897,-2.9751,0.0,0.0,-2.9385,-2.8905,-2.8508,-2.8708,-2.8753,-2.8797,-2.8948,-2.941,-2.9808,-2.9834,-2.9806,-2.9825,-2.9899,-2.9897,-2.9897,-2.9897,-2.9897,-3.037,0.0,-3.2246,-3.3297,-3.5846,-3.6889,-3.7818,-3.8906,-3.957,-3.99,-3.99,-3.99,-3.9805,-3.9559,-3.9248,-3.9304,-3.9862,-3.99,-3.99,-3.99,-3.9673,-3.9572,-3.9615,-3.7944,-3.7128,-3.7109,-3.654,-3.6549,-3.7098,-3.7414,-3.7395,-3.7041,-3.6444,-3.5577,-3.4561,-3.4221,-3.3972,-3.378,-3.3491,-3.3393,-3.3393,-3.3393,-3.3393,-3.3393,0.0,0.0,0.0,0.0,0.0,0.0,0.0,-1.9676,-1.981,-1.9901,-2.0774,-2.1087,-2.0287,-2.2406,-2.3567,-2.2756,0.0,0.0,0.0,0.0,0.0,0.0,0.0,0.0,0.0,0.0,0.0,0.0,-2.5587,-2.5191,-2.5191,-2.5191,-2.5191,-2.5191,0.0,0.0,0.0,0.0,0.0,0.0,0.0,0.0,0.0,0.0,0.0,0.0,0.0,0.0,0.0,0.0,0.0,0.0,0.0,-2.9948,-2.9822,0.0,-2.9304,-2.9326,-2.9533,-2.9589,-2.9635,-2.9828,-2.9849,-2.9825,-2.9872,-2.9849,-2.9825,-2.9899,-2.9897,-2.9897,-2.9897,-2.9897,-3.02,-3.1071,-3.1867,-3.3297,-3.5846,-3.6889,-3.8016,-3.9692,-3.99,-3.99,-3.99,-3.99,-3.9559,-3.8765,-3.9437,-3.99,-3.99,-3.99,-3.99,-3.99,-3.9134,-3.8709,-3.8709,-3.7059,-3.6206,-3.6206,-3.6206,-3.6245,-3.6331,-3.7128,-3.7072,-3.6302,-3.6027,-3.5399,-3.455,-3.4023,-3.3788,-3.378,-3.3491,-3.3393,-3.3393,-3.3393,-3.3393,-3.3393,0.0,0.0,0.0,0.0,0.0,0.0,0.0,-1.9732,-1.9885,-1.9965,-2.0833,-2.1366,-2.1122,-2.2815,-2.387,-2.3611,0.0,0.0,0.0,0.0,0.0,0.0,0.0,0.0,0.0,0.0,0.0,0.0,0.0,0.0,-2.521,-2.5759,-2.572,-2.5229,-2.5778,-2.5701,0.0,0.0,0.0,0.0,0.0,0.0,-3.0171,0.0,0.0,0.0,0.0,0.0,0.0,0.0,0.0,0.0,0.0,0.0,0.0,-2.9589,-2.9608,-2.9716,-2.9796,-2.9813,-2.9822,-2.988,-2.9872,-2.9864,-2.9907,-2.9872,-2.9864,-2.9907,-2.9897,-2.9897,-2.9897,-2.9897,-3.056,-3.2577,-3.3126,-3.4169,-3.668,-3.7761,-3.85,-3.902,-3.9077,-3.9077,-3.9077,-3.8035,-3.7485,-3.7799,-3.7542,-3.7864,-3.902,-3.8527,-3.8452,-3.9058,-3.8822,-3.8405,-3.7818,-3.6737,-3.6206,-3.6187,-3.559,-3.5922,-3.7022,-3.6179,-3.6255,-3.6975,-3.56,-3.4756,-3.4293,-3.3947,-3.3684,-3.3524,-3.3437,-3.3393,-3.3393,-3.3393,-3.3393,-3.3393,0.0,0.0,0.0,0.0,0.0,0.0,0.0,-1.9707,-1.9845,-1.9915,-2.1091,-2.1813,-2.1523,-2.3261,-2.4331,-2.4034,0.0,0.0,0.0,0.0,0.0,0.0,0.0,0.0,0.0,0.0,0.0,0.0,0.0,0.0,0.0,0.0,0.0,-2.5663,-2.5854,-2.5835,0.0,0.0,0.0,0.0,0.0,0.0,-3.0166,0.0,0.0,0.0,0.0,0.0,0.0,0.0,0.0,0.0,0.0,0.0,0.0,0.0,-2.9822,-2.988,-2.9813,-2.9847,-2.9897,-2.9897,-2.9897,-2.9897,-2.9897,-2.9897,-2.9897,-2.9897,-2.9897,-2.9897,-2.9897,-2.9897,-3.0427,-3.2008,-3.2804,-3.3979,-3.614,-3.7476,-3.8443,-3.9077,-3.8879,-3.8576,-3.8235,-3.7268,-3.6737,-3.6927,-3.6756,-3.7116,-3.8159,-3.7685,-3.7514,-3.7742,-3.8045,-3.7799,-3.6965,-3.6453,-3.6036,-3.5704,-3.5154,-3.5457,-3.6424,-3.542,-3.5467,-3.6264,-3.4988,-3.4291,0.0,-3.3766,-3.3549,-3.3393,-3.3393,-3.3393,-3.3393,-3.3393,-3.3393,-3.3393,0.0,0.0,0.0,0.0,0.0,0.0,0.0,0.0,0.0,0.0,-2.1399,-2.2282,-2.1653,-2.3698,-2.4844,0.0,0.0,0.0,0.0,0.0,0.0,0.0,0.0,0.0,0.0,0.0,0.0,0.0,-2.5191,-2.5191,-2.5191,0.0,0.0,0.0,-2.5625,0.0,0.0,0.0,0.0,0.0,-2.9841,-3.0211,0.0,0.0,0.0,0.0,0.0,0.0,0.0,0.0,0.0,0.0,0.0,0.0,0.0,0.0,0.0,0.0,0.0,-2.9751,-2.9897,-2.9897,-2.9897,-2.9897,-2.9897,-2.9897,0.0,-2.9897,-2.9897,-2.9916,-2.9991,-2.9991,-3.0048,-3.0238,-3.1564,-3.3183,-3.4927,-3.65,-3.8073,-3.9635,-3.9039,-3.8197,-3.7401,-3.7268,-3.6908,-3.6168,-3.6813,-3.7249,-3.7306,-3.7268,-3.6908,-3.6225,-3.6927,-3.6965,-3.6206,-3.6149,-3.5723,-3.4984,-3.4927,-3.4927,-3.4984,-3.4927,-3.482,-3.4666,-3.4335,-3.4049,-3.378,-3.3506,-3.3393,-3.3393,-3.3393,-3.3393,-3.3393,-3.3393,-3.3393,-3.3393,0.0,0.0,0.0,0.0,0.0,0.0,0.0,0.0,0.0,0.0,0.0,-2.1955,-2.2438,-2.3611,0.0,0.0,0.0,0.0,0.0,0.0,0.0,0.0,0.0,0.0,0.0,0.0,0.0,-2.5191,-2.5191,-2.5191,-2.521,-2.5835,0.0,0.0,0.0,0.0,0.0,0.0,0.0,0.0,-2.9841,-3.0211,0.0,0.0,0.0,0.0,-2.7981,-2.7701,0.0,0.0,0.0,0.0,0.0,0.0,0.0,0.0,-2.9956,-2.9888,-2.9847,0.0,-2.9897,-2.9897,-2.9897,-2.9897,0.0,-2.9897,-2.9897,-2.9897,-2.9897,-3.0105,-3.0768,-3.0882,-3.1526,-3.343,-3.4055,-3.5135,-3.7476,-3.8159,-3.8538,-3.8936,-3.7685,-3.6718,-3.651,-3.5874,-3.5401,-3.5211,-3.5382,-3.578,-3.6453,-3.5855,-3.5704,-3.6187,-3.6377,-3.6396,-3.6206,-3.5533,-3.5438,-3.5893,-3.5211,-3.5249,-3.5874,-3.5192,-3.5141,-3.5465,-3.4577,-3.4049,-3.378,-3.3506,-3.3393,-3.3393,-3.3393,-3.3393,-3.3393,-3.3393,-3.3393,-3.3393,0.0,0.0,0.0,0.0,0.0,0.0,0.0,0.0,0.0,0.0,0.0,0.0,0.0,0.0,0.0,0.0,0.0,0.0,0.0,0.0,0.0,0.0,0.0,0.0,0.0,0.0,0.0,0.0,0.0,-2.5191,0.0,0.0,0.0,0.0,0.0,0.0,0.0,0.0,0.0,0.0,-3.0013,0.0,0.0,0.0,0.0,0.0,-2.6995,-2.6561,0.0,-2.6561,-2.7084,-2.7821,0.0,0.0,0.0,0.0,-2.9972,-2.9897,-2.9897,-2.9897,-2.9897,-2.9897,-2.9897,-2.9897,-2.9897,-2.9897,-2.9897,-2.9897,-2.9897,-3.0048,-3.0522,-3.0823,-3.1495,-3.2957,-3.4093,-3.567,-3.8338,-3.869,-3.869,-3.869,-3.723,-3.6206,-3.6206,-3.5401,-3.4908,-3.4908,-3.4908,-3.5116,-3.5571,-3.5154,-3.5116,-3.559,-3.559,-3.559,-3.559,-3.5533,-3.5533,-3.559,-3.5135,-3.5106,-3.545,-3.4978,-3.4819,-3.4847,-3.4272,-3.3855,-3.3619,-3.3466,-3.3393,-3.3393,-3.3393,-3.3393,-3.3393,-3.3393,-3.3393,-3.3393,0.0,0.0,0.0,0.0,0.0,0.0,0.0,0.0,0.0,0.0,0.0,0.0,0.0,0.0,0.0,0.0,0.0,0.0,0.0,0.0,0.0,0.0,0.0,0.0,0.0,0.0,0.0,0.0,0.0,0.0,0.0,0.0,0.0,0.0,0.0,0.0,0.0,0.0,0.0,-3.0211,-3.0211,0.0,0.0,0.0,0.0,0.0,0.0,0.0,0.0,-2.5191,-2.5811,-2.674,-2.7453,0.0,0.0,0.0,0.0,0.0,-2.9897,-2.9967,-3.0026,-2.9926,-2.9897,-2.9897,-2.9897,0.0,0.0,-2.9897,-2.9897,-2.9991,-3.0238,-3.0808,-3.1393,-3.1879,-3.3798,-3.6002,-3.8195,-3.85,-3.8462,-3.8329,-3.6946,-3.5998,-3.5998,-3.5325,-3.4908,-3.4908,-3.4908,-3.4908,-3.4908,-3.4908,-3.4908,-3.4908,-3.4908,-3.4908,-3.4908,-3.5628,-3.5704,-3.5097,-3.4965,-3.4782,-3.4612,-3.4612,-3.4305,-3.3807,-3.3807,-3.3661,-3.3393,-3.3393,-3.3393,-3.3393,-3.3393,-3.3393,-3.3393,-3.3393,-3.3393,-3.3393,0.0,0.0,0.0,0.0,0.0,0.0,0.0,0.0,0.0,0.0,0.0,0.0,0.0,0.0,0.0,0.0,0.0,0.0,0.0,0.0,0.0,0.0,0.0,0.0,0.0,0.0,0.0,0.0,0.0,0.0,-2.5191,-2.5191,-2.5701,0.0,0.0,0.0,0.0,0.0,-3.007,-3.0211,-3.0211,0.0,0.0,0.0,0.0,0.0,0.0,0.0,0.0,-2.5191,-2.6211,-2.7517,-2.7593,0.0,0.0,0.0,0.0,0.0,-2.9897,-3.0279,-3.0537,-3.0026,-2.9897,-2.9897,-2.9897,-2.9897,-2.9897,-2.9897,-2.9897,-3.0332,-3.1753,-3.2683,-3.3734,-3.5192,-3.6915,-3.7947,-3.7637,-3.7609,-3.7344,-3.6661,-3.5704,-3.5097,-3.5097,-3.4984,-3.4908,-3.4908,-3.4908,-3.4908,-3.4908,-3.4908,-3.4908,-3.4908,-3.4908,-3.4908,-3.4908,-3.5022,-3.5401,-3.5998,-3.5249,-3.4782,-3.4612,-3.4612,-3.4305,-3.3807,-3.3807,-3.3661,-3.3393,-3.3393,-3.3393,-3.3393,-3.3393,-3.3393,-3.3393,-3.3393,-3.3393,-3.3393,0.0,0.0,0.0,0.0,0.0,0.0,0.0,0.0,0.0,0.0,0.0,0.0,0.0,0.0,0.0,0.0,0.0,0.0,0.0,0.0,0.0,0.0,0.0,0.0,0.0,0.0,0.0,0.0,0.0,-2.4498,-2.4536,-2.5912,-2.6746,-2.7186,0.0,0.0,0.0,0.0,-3.0211,-3.0211,0.0,0.0,0.0,0.0,0.0,0.0,0.0,0.0,0.0,0.0,-2.6007,-2.7065,-2.7471,0.0,0.0,0.0,0.0,0.0,-2.9897,-3.0086,-3.0337,-3.0376,-3.064,-3.0759,-3.032,-3.0563,-3.0902,-3.1064,-3.1092,-3.1355,-3.2247,-3.3375,-3.4872,-3.6977,-3.7707,-3.8026,-3.8083,-3.7325,-3.6623,-3.6244,-3.542,-3.4908,-3.4908,-3.4908,-3.4908,-3.4908,-3.4908,-3.4908,-3.4908,-3.4908,-3.4908,-3.4908,-3.4908,-3.4908,-3.4908,-3.4908,-3.5097,-3.5495,-3.499,-3.4607,-3.4374,-3.4233,-3.3947,-3.3591,-3.3591,-3.3506,-3.3393,-3.3393,-3.3393,-3.3393,-3.3393,-3.3393,-3.3393,-3.3393,-3.3393,-3.3364,0.0,0.0,0.0,0.0,0.0,0.0,0.0,0.0,0.0,0.0,0.0,0.0,0.0,0.0,0.0,0.0,0.0,0.0,0.0,0.0,0.0,0.0,0.0,0.0,0.0,0.0,0.0,-2.3922,-2.372,-2.3829,-2.4243,-2.6383,-2.7606,0.0,0.0,0.0,0.0,0.0,-3.0211,-3.0211,0.0,0.0,0.0,0.0,0.0,0.0,0.0,0.0,0.0,0.0,0.0,0.0,0.0,0.0,0.0,-2.9228,-2.9512,-2.9631,-2.9631,-2.9855,-3.0184,-3.0462,-3.0905,-3.119,-3.0861,-3.1151,-3.1589,-3.1933,-3.2062,-3.221,-3.2543,-3.4061,-3.5873,-3.7762,-3.7862,-3.7799,-3.8083,-3.7021,-3.613,-3.5922,-3.5306,-3.4908,-3.4908,-3.4908,-3.4908,-3.4908,-3.4908,-3.4908,-3.4908,-3.4908,-3.4908,-3.4908,-3.4908,-3.4908,-3.4908,-3.4908,-3.4908,-3.4908,-3.4699,-3.4461,-3.4185,-3.3921,-3.3643,-3.3393,-3.3393,-3.3393,-3.3393,-3.3393,-3.3393,-3.3393,-3.3393,-3.3393,-3.3378,-3.3286,-3.3334,-3.3334,0.0,0.0,0.0,0.0,0.0,0.0,0.0,0.0,0.0,0.0,0.0,0.0,0.0,0.0,0.0,0.0,0.0,0.0,0.0,0.0,0.0,0.0,0.0,0.0,0.0,-2.5739,-2.4873,-2.399,-2.3174,-2.3588,-2.5134,-2.6064,-2.7319,-2.8815,0.0,0.0,0.0,0.0,-3.0211,-3.0211,-3.0211,0.0,0.0,0.0,0.0,0.0,0.0,0.0,0.0,0.0,0.0,0.0,0.0,0.0,-2.7595,-2.7653,-2.8207,-2.8798,-2.8798,-2.9734,-3.0565,-2.9861,-2.9857,-3.0318,-3.1362,-3.1222,-3.1027,-3.1608,-3.1918,-3.2328,-3.3091,-3.5413,-3.7225,-3.7349,-3.8066,-3.8083,-3.6585,-3.6282,-3.5893,-3.5097,-3.4946,-3.4908,-3.4908,-3.4908,-3.4908,-3.4908,-3.4908,-3.4908,-3.4908,-3.4908,-3.4908,-3.4908,-3.4908,-3.4908,-3.4908,-3.4908,-3.4908,-3.4908,-3.4699,-3.4461,-3.4185,-3.3921,-3.3643,-3.3393,-3.3393,-3.3393,-3.3393,-3.3393,-3.3393,-3.3393,-3.3393,-3.3393,-3.3364,-3.2988,-3.3083,-3.3304,0.0,0.0,0.0,0.0,0.0,0.0,0.0,0.0,0.0,0.0,0.0,0.0,0.0,0.0,0.0,0.0,0.0,0.0,0.0,0.0,0.0,0.0,0.0,-2.8569,-2.7428,-2.6018,-2.461,-2.3184,-2.3365,-2.4042,-2.5249,-2.709,0.0,0.0,0.0,0.0,0.0,0.0,0.0,-3.0211,-3.0211,-3.0286,0.0,0.0,0.0,0.0,0.0,0.0,0.0,0.0,-2.5722,-2.6486,0.0,-2.73,-2.7606,-2.8093,-2.8457,-2.8703,-2.8703,-2.9725,-3.0703,-3.0265,-3.0584,-3.1113,-3.1382,-3.1666,-3.2059,-3.2783,-3.3461,-3.4229,-3.5275,-3.605,-3.6701,-3.7217,-3.7144,-3.6837,-3.6291,-3.5693,-3.5219,-3.4936,-3.4908,-3.4908,-3.4908,-3.4908,-3.4908,-3.4908,-3.4908,-3.4908,-3.4908,-3.4908,-3.4908,-3.4908,-3.4908,-3.4908,-3.4908,-3.4908,-3.484,-3.471,-3.4465,-3.4209,-3.3947,-3.3671,-3.3509,-3.3393,-3.3393,-3.3393,-3.3393,-3.3393,-3.3393,-3.3393,-3.3393,-3.3256,-3.3003,-3.286,-3.2765,-3.2653,0.0,0.0,0.0,0.0,0.0,0.0,0.0,0.0,0.0,0.0,0.0,0.0,0.0,0.0,0.0,0.0,0.0,0.0,0.0,0.0,0.0,0.0,0.0,-2.8338,-2.7505,-2.6042,-2.4581,-2.3103,-2.3633,-2.4482,-2.5625,0.0,0.0,0.0,0.0,0.0,0.0,0.0,0.0,0.0,-3.0211,-3.0311,0.0,0.0,0.0,0.0,0.0,0.0,0.0,0.0,-2.555,0.0,0.0,0.0,0.0,-2.7676,-2.8058,-2.8256,-2.852,-2.9456,-3.0351,-3.0474,-3.0891,-3.1355,-3.1592,-3.1876,-3.2368,-3.3368,-3.4137,-3.4934,-3.5777,-3.5946,-3.6037,-3.6343,-3.612,-3.5901,-3.5777,-3.5198,-3.481,-3.4898,-3.4908,-3.4908,-3.4908,-3.4908,-3.4908,-3.4908,-3.4908,-3.4908,-3.4908,-3.4908,-3.4908,-3.4908,-3.4908,-3.4908,-3.4908,-3.484,-3.468,-3.4473,-3.4209,-3.3972,-3.3793,-3.352,-3.3393,-3.3393,-3.3393,-3.3393,-3.3393,-3.3393,-3.3393,-3.3393,-3.3393,-3.3144,-3.2779,-3.2682,-3.2503,-3.2231,0.0,0.0,0.0,0.0,0.0,0.0,0.0,0.0,0.0,0.0,0.0,0.0,0.0,0.0,0.0,0.0,0.0,0.0,0.0,0.0,0.0,0.0,0.0,-2.7486,-2.664,-2.5769,-2.4894,-2.4015,-2.395,-2.4782,-2.6421,-2.7319,0.0,0.0,0.0,0.0,0.0,0.0,0.0,0.0,-3.0192,-3.0228,-3.0194,0.0,0.0,0.0,0.0,0.0,0.0,0.0,-2.5181,-2.512,0.0,0.0,0.0,-2.5977,-2.6631,-2.731,-2.8163,-2.8848,-2.9498,-3.0293,-3.0461,-3.0761,-3.2088,-3.178,-3.1604,-3.3008,-3.3601,-3.3934,-3.4074,-3.5028,-3.548,-3.4539,-3.5173,-3.5558,-3.4891,-3.4798,-3.481,-3.4898,-3.4908,-3.4908,-3.4908,-3.4908,-3.4908,-3.4908,-3.4908,-3.4908,-3.4908,-3.4908,-3.4908,-3.4908,-3.4908,-3.4908,-3.4908,-3.4699,-3.4473,-3.4197,-3.3921,-3.3807,-3.3793,-3.352,-3.3393,-3.3393,-3.3393,-3.3393,-3.3393,-3.3393,-3.3393,-3.3393,-3.3411,-3.3162,-3.2747,-3.2436,-3.23,-3.2179,0.0,0.0,0.0,0.0,0.0,0.0,0.0,0.0,0.0,0.0,0.0,0.0,0.0,0.0,0.0,0.0,0.0,0.0,0.0,0.0,0.0,0.0,0.0,0.0,0.0,0.0,-2.6399,-2.4908,-2.5461,-2.627,0.0,0.0,0.0,-2.8485,0.0,0.0,0.0,0.0,0.0,0.0,-2.9299,-2.9692,-3.0194,0.0,0.0,0.0,0.0,0.0,0.0,0.0,0.0,0.0,0.0,0.0,0.0,-2.703,-2.7634,-2.825,-2.8367,-2.9248,-3.0168,-3.0222,-3.0955,-3.1765,-3.2099,-3.1638,-3.1369,-3.2209,-3.2623,-3.3048,-3.3697,-3.4358,-3.4712,-3.4453,-3.4626,-3.4802,-3.4806,-3.4727,-3.4728,-3.4889,-3.4908,-3.4908,-3.4908,-3.4908,-3.4908,-3.4908,-3.4908,-3.4908,-3.4908,-3.4908,-3.4908,-3.4908,-3.4908,-3.4908,-3.4908,-3.4699,-3.4473,-3.4197,-3.3921,-3.3698,-3.3524,-3.3437,-3.3393,-3.3393,-3.3393,-3.3393,-3.3393,-3.3393,-3.3393,-3.3364,-3.3083,-3.2765,-3.2401,-3.2003,-3.1731,-3.1504,0.0,0.0,0.0,0.0,0.0,0.0,0.0,0.0,0.0,0.0,0.0,-2.5308,0.0,0.0,0.0,0.0,0.0,0.0,0.0,0.0,0.0,0.0,0.0,0.0,0.0,-2.7717,-2.7538,0.0,0.0,0.0,0.0,0.0,0.0,-2.774,0.0,-2.8657,0.0,0.0,0.0,0.0,-2.8421,-2.8951,-2.9679,0.0,0.0,0.0,0.0,0.0,0.0,0.0,0.0,0.0,-2.7617,0.0,0.0,-2.7925,-2.8204,-2.848,-2.8708,-2.9474,-3.0252,-3.0379,-3.1275,-3.2011,-3.1552,-3.1419,-3.1295,-3.102,-3.1422,-3.1988,-3.2588,-3.3259,-3.375,-3.382,-3.4111,-3.4404,-3.4612,-3.4561,-3.4481,-3.4318,-3.4329,-3.4339,-3.4339,-3.4396,-3.4567,-3.487,-3.4908,-3.4908,-3.4908,-3.4908,-3.4908,-3.4908,-3.4908,-3.4908,-3.4908,-3.4596,-3.4351,-3.4197,-3.3815,-3.3549,-3.3393,-3.3393,-3.3393,-3.3393,-3.3393,-3.3393,-3.3393,-3.3393,-3.3319,-3.3147,-3.2892,-3.2502,-3.2039,-3.1787,-3.1487,-3.119,0.0,0.0,-2.1643,-2.172,0.0,0.0,0.0,0.0,0.0,0.0,0.0,-2.5308,0.0,0.0,0.0,-2.5308,0.0,0.0,0.0,0.0,0.0,0.0,0.0,0.0,0.0,0.0,0.0,0.0,0.0,0.0,0.0,0.0,-2.6861,-2.7472,0.0,-2.7625,0.0,0.0,0.0,0.0,-2.7593,-2.8083,-2.8809,-2.8809,0.0,0.0,0.0,0.0,0.0,0.0,0.0,0.0,-2.7758,-2.7781,-2.7968,-2.8616,-2.8495,-2.8339,-2.9099,-2.9566,-3.001,-3.0721,-3.1488,-3.1817,-3.0841,-3.116,-3.1225,-2.9615,-3.0086,-3.0862,-3.1023,-3.1897,-3.2656,-3.2831,-3.3491,-3.4022,-3.415,-3.418,-3.3956,-3.3354,-3.3352,-3.3383,-3.3364,-3.3488,-3.3866,-3.4557,-3.4709,-3.4775,-3.4756,-3.4841,-3.4908,-3.4908,-3.487,-3.486,-3.486,-3.4401,-3.4161,-3.4161,-3.3629,-3.3393,-3.3393,-3.3393,-3.3393,-3.3393,-3.3393,-3.3393,-3.3411,-3.3364,-3.3114,-3.2795,-3.2731,-3.2299,-3.1712,-3.1675,-3.1449,-3.119,0.0,0.0,-2.279,-2.3426,0.0,0.0,0.0,0.0,-2.3601,-2.5115,-2.5308,-2.5308,-2.5308,-2.5308,0.0,-2.5308,-2.5308,0.0,0.0,0.0,0.0,0.0,0.0,0.0,0.0,0.0,0.0,0.0,0.0,0.0,0.0,0.0,0.0,-2.5803,0.0,-2.6968,0.0,0.0,0.0,-2.6755,-2.6755,-2.7272,-2.8044,-2.8044,-2.8044,0.0,0.0,0.0,0.0,0.0,0.0,0.0,-2.8834,-2.9053,-2.9459,-2.895,-2.9128,-2.9454,-2.9329,-2.9787,-3.0368,-3.0785,-3.1858,-3.2563,-3.1706,-3.1142,-3.0347,-2.8784,-2.926,-2.9972,-3.0012,-3.0978,-3.1777,-3.1813,-3.211,-3.2359,-3.2499,-3.2521,-3.2489,-3.2396,-3.2495,-3.2486,-3.2264,-3.2466,-3.2532,-3.2395,-3.3274,-3.3789,-3.3739,-3.4471,-3.4908,-3.4908,-3.4751,-3.4658,-3.4658,-3.4161,-3.3881,-3.3881,-3.3549,-3.3393,-3.3393,-3.3393,-3.3393,-3.3393,-3.3393,-3.3393,-3.3378,-3.3068,-3.2876,-3.2747,-3.2162,-3.1841,-3.1675,-3.1408,-3.1252,-3.1106,0.0,0.0,0.0,0.0,0.0,0.0,0.0,0.0,-2.3875,-2.5135,-2.5308,-2.5308,-2.5308,-2.5308,0.0,0.0,-2.5308,-2.5308,0.0,0.0,0.0,0.0,0.0,0.0,0.0,0.0,0.0,0.0,0.0,0.0,0.0,0.0,0.0,-2.5868,0.0,-2.6646,0.0,0.0,-2.5877,-2.5877,-2.5877,-2.6395,-2.7181,-2.7181,-2.7436,-2.7857,-2.828,0.0,0.0,0.0,0.0,0.0,0.0,0.0,-3.0003,-2.9562,-2.9607,-2.9725,-2.9395,-3.0046,-3.0999,-3.1779,-3.2463,-3.2644,-3.1446,-3.0826,-3.005,-2.8517,-2.8627,-2.9017,-2.9106,-2.9948,-3.0698,-3.09,-3.1339,-3.1714,-3.1871,-3.1893,-3.1766,-3.1418,-3.1393,-3.1352,-3.1243,-3.1302,-3.1432,-3.1678,-3.2368,-3.2785,-3.2784,-3.3753,-3.4131,-3.3714,-3.3909,-3.4022,-3.3982,-3.3482,-3.3435,-3.3807,-3.352,-3.3393,-3.3393,-3.3393,-3.3393,-3.3393,-3.3393,-3.3393,-3.3378,-3.3178,-3.2878,-3.2518,-3.2127,-3.1786,-3.1447,-3.1252,-3.097,-3.0615,0.0,0.0,0.0,0.0,0.0,0.0,0.0,0.0,0.0,-2.5192,-2.5308,-2.5308,-2.5308,-2.5308,-2.5308,0.0,0.0,0.0,-2.5308,0.0,0.0,0.0,0.0,0.0,0.0,0.0,0.0,0.0,0.0,0.0,0.0,0.0,0.0,-2.6713,0.0,0.0,0.0,0.0,-2.5222,-2.5222,-2.5222,-2.5644,-2.6291,-2.6291,-2.6738,-2.739,-2.7537,-2.7999,-2.8606,-2.89,0.0,0.0,0.0,0.0,-2.993,-3.0053,-2.9932,-2.9708,-2.9445,-3.0316,-3.1542,-3.2616,-3.2903,-3.2577,-3.1225,-3.0707,-3.0139,-2.8855,-2.8392,-2.825,-2.8419,-2.902,-2.9611,-2.9941,-3.0576,-3.1083,-3.1254,-3.1299,-3.1069,-3.0368,-3.0228,-3.0176,-3.0157,-3.0101,-3.0371,-3.1092,-3.1496,-3.1738,-3.178,-3.2788,-3.3034,-3.2316,-3.2792,-3.3034,-3.2965,-3.2545,-3.2672,-3.3318,-3.3088,-3.2995,-3.2995,-3.2995,-3.314,-3.3393,-3.3393,-3.3364,-3.3286,-3.3226,-3.2798,-3.2179,-3.2004,-3.1541,-3.0987,-3.0869,-3.0429,-2.9888,0.0,0.0,0.0,0.0,0.0,0.0,0.0,0.0,0.0,0.0,-2.5308,-2.5308,-2.5308,-2.5308,-2.5308,-2.5308,-2.5308,-2.5308,0.0,0.0,0.0,0.0,0.0,0.0,0.0,0.0,0.0,0.0,0.0,0.0,0.0,0.0,0.0,-2.7595,0.0,0.0,0.0,0.0,-2.5298,-2.5298,-2.5298,-2.5356,-2.5466,-2.5466,-2.5523,-2.5735,-2.6414,-2.6749,-2.7064,-2.8511,-2.8568,0.0,0.0,0.0,-2.9193,-2.9911,-3.0034,-2.9916,-2.9698,-3.0401,-3.1336,-3.1843,-3.2494,-3.291,-3.2648,-3.1492,-3.044,-3.0243,-2.9123,-2.8196,-2.8237,-2.847,-2.868,-2.8732,-2.8967,-2.9174,-2.9198,-2.9345,-2.9354,-2.9075,-2.9233,-2.9193,-2.8802,-2.8955,-2.9015,-2.8851,-2.988,-3.0508,-3.0462,-3.147,-3.1992,-3.188,-3.1747,-3.166,-3.166,-3.1352,-3.127,-3.1361,-3.1338,-3.1324,-3.1324,-3.1324,-3.2071,-3.3393,-3.3393,-3.3193,-3.286,-3.2569,-3.2179,-3.1699,-3.0765,-3.0338,-3.0176,-2.9534,-2.923,-2.9061,0.0,0.0,0.0,0.0,0.0,0.0,0.0,0.0,0.0,0.0,0.0,-2.5308,-2.5308,-2.5308,-2.5308,-2.5308,-2.4889,0.0,0.0,0.0,0.0,0.0,0.0,0.0,0.0,0.0,0.0,0.0,0.0,0.0,0.0,-2.7484,-2.7723,0.0,0.0,0.0,0.0,0.0,-2.575,-2.5308,-2.5308,-2.5596,-2.5981,-2.55,-2.5596,-2.6019,-2.5889,-2.6118,-2.6614,-2.734,-2.7673,-2.7885,-2.8575,0.0,0.0,0.0,-2.9736,-3.0193,-3.0865,-3.1129,-3.1448,-3.2484,-3.2877,-3.2872,-3.2362,-3.1671,-3.0921,-3.0065,-2.9337,-2.8731,-2.8285,-2.8277,-2.8367,-2.8479,-2.8569,-2.8682,-2.8773,-2.8875,-2.8899,-2.8815,-2.8809,-2.8737,-2.8518,-2.85,-2.8461,-2.8353,-2.8972,-2.9374,-2.941,-3.0431,-3.0827,-3.0403,-3.0607,-3.0705,-3.0681,-3.0441,-3.0545,-3.0998,-3.0998,-3.0998,-3.0998,-3.0998,-3.1397,-3.2053,-3.1845,-3.1661,-3.1492,-3.118,-3.0818,-3.042,-2.9951,-2.965,-2.9431,-2.9128,-2.8704,-2.8281,0.0,0.0,0.0,0.0,0.0,0.0,0.0,0.0,0.0,0.0,0.0,-2.5308,-2.5308,0.0,0.0,0.0,-2.4755,0.0,0.0,0.0,0.0,0.0,0.0,0.0,0.0,0.0,0.0,0.0,0.0,0.0,-2.7895,-2.8107,-2.8646,0.0,-2.9204,-2.8761,0.0,0.0,-2.6212,-2.5635,-2.5635,-2.6019,-2.6544,-2.6115,-2.6365,-2.6813,-2.5942,-2.6023,-2.6516,-2.651,-2.6806,-2.7231,-2.7611,-2.802,0.0,0.0,0.0,-3.0049,-3.1176,-3.1269,-3.1323,-3.2607,-3.2842,-3.2616,-3.2146,-3.1865,-3.1314,-2.9958,-2.953,-2.9141,-2.8356,-2.8196,-2.825,-2.8406,-2.8414,-2.8484,-2.8632,-2.8694,-2.87,-2.8657,-2.8556,-2.8479,-2.8432,-2.8291,-2.8223,-2.8286,-2.843,-2.8577,-2.8688,-2.947,-2.9635,-2.9097,-2.9512,-2.974,-2.9692,-2.9553,-2.9802,-3.0387,-3.0387,-3.0387,-3.0387,-3.0387,-3.0387,-3.0392,-3.0474,-3.046,-3.0356,-3.0064,-2.9708,-2.9351,-2.9145,-2.892,-2.8671,-2.8485,-2.8044,-2.7519,0.0,0.0,0.0,0.0,0.0,0.0,0.0,0.0,0.0,0.0,0.0,-2.5308,-2.5308,-2.5308,-2.5308,-2.5308,-2.5269,0.0,0.0,0.0,0.0,0.0,0.0,0.0,0.0,0.0,0.0,0.0,0.0,0.0,-2.7915,-2.8684,-2.9506,-3.0308,-2.9467,-2.9088,-2.8934,0.0,-2.6563,-2.6524,-2.6524,-2.6563,-2.6697,-2.7467,-2.7799,-2.7722,-2.6851,-2.6558,-2.6591,-2.6516,-2.6011,-2.5704,-2.7288,-2.7259,-2.677,0.0,0.0,0.0,-2.9666,-3.0168,-3.065,-3.1187,-3.1687,-3.2224,-3.2796,-3.2288,-3.1457,-3.0618,-2.9886,-2.9141,-2.8356,-2.8196,-2.8196,-2.8209,-2.8227,-2.8209,-2.8223,-2.8393,-2.8427,-2.825,-2.8393,-2.8432,-2.8237,-2.8196,-2.8223,-2.8286,-2.8313,-2.8353,-2.8419,-2.8468,-2.8499,-2.8445,-2.8546,-2.8603,-2.8572,-2.8629,-2.869,-2.8726,-2.8726,-2.8726,-2.8726,-2.8726,-2.8726,-2.8804,-2.9976,-3.0325,-2.9999,-2.9657,-2.9334,-2.8961,-2.818,-2.7875,-2.7773,-2.708,-2.6776,-2.6759,0.0,0.0,0.0,0.0,0.0,0.0,0.0,0.0,0.0,0.0,0.0,0.0,0.0,-2.5308,-2.5308,-2.5308,-2.5308,0.0,0.0,0.0,0.0,0.0,0.0,0.0,0.0,0.0,0.0,0.0,0.0,-2.6212,-2.7082,-2.7934,-2.878,-2.9583,-2.9813,-2.9621,-2.9069,-2.8453,-2.7909,-2.7428,-2.7428,-2.7736,-2.8184,-2.7992,-2.8222,-2.8569,-2.7736,-2.7428,-2.7428,-2.7412,-2.6836,-2.6235,-2.6842,-2.6781,-2.6778,-2.8122,-2.8714,-2.9179,-3.0459,-3.077,-3.0917,-3.1562,-3.1985,-3.2291,-3.2452,-3.2511,-3.2286,-3.1436,-3.0654,-2.9872,-2.9105,-2.8552,-2.8196,-2.8196,-2.8196,-2.8196,-2.8196,-2.8264,-2.8291,-2.8196,-2.8264,-2.8277,-2.8196,-2.8196,-2.8209,-2.8237,-2.8237,-2.8277,-2.8327,-2.834,-2.8353,-2.8411,-2.8419,-2.8458,-2.8492,-2.8574,-2.86,-2.86,-2.86,-2.86,-2.86,-2.86,-2.86,-2.861,-2.8674,-2.8629,-2.8478,-2.7924,-2.7624,-2.7503,-2.7215,-2.7097,-2.7063,-2.6793,-2.6691,-2.6691,0.0,0.0,0.0,-2.5938,0.0,-2.5308,-2.5308,-2.5308,0.0,0.0,0.0,0.0,0.0,0.0,-2.5308,-2.5308,-2.5308,0.0,0.0,0.0,0.0,0.0,0.0,0.0,0.0,0.0,0.0,0.0,0.0,0.0,0.0,-2.7486,-2.8184,-2.8723,-2.9294,-2.9538,-2.9494,-2.9217,-2.8794,-2.8302,-2.8294,-2.8626,-2.9069,-2.8832,-2.9063,-2.9429,-2.8607,-2.8299,-2.8261,-2.7992,-2.7525,-2.6981,-2.6696,-2.6348,-2.6335,-2.7745,-2.8326,-2.8807,-3.0185,-3.0538,-3.0763,-3.1777,-3.1837,-3.1756,-3.2202,-3.2462,-3.2371,-3.1538,-3.1115,-3.0672,-2.9922,-2.9123,-2.8517,-2.8249,-2.8427,-2.8517,-2.8249,-2.8196,-2.8196,-2.8196,-2.8196,-2.8196,-2.8196,-2.8196,-2.8196,-2.8196,-2.8196,-2.8223,-2.8259,-2.8277,-2.8318,-2.8398,-2.8411,-2.8432,-2.8492,-2.8531,-2.8562,-2.8523,-2.8562,-2.8574,-2.8574,-2.8587,-2.8531,-2.8409,-2.7915,-2.7701,-2.7657,-2.6971,-2.6691,-2.6691,-2.6691,-2.6691,-2.6691,-2.6691,-2.6691,-2.6691,-2.8024,-2.7903,-2.7643,-2.676,-2.5904,-2.5327,-2.5308,-2.5308,-2.5308,-2.5308,0.0,0.0,0.0,0.0,0.0,0.0,0.0,0.0,0.0,0.0,0.0,0.0,0.0,0.0,0.0,0.0,0.0,0.0,0.0,0.0,0.0,0.0,-2.7857,-2.7857,-2.7895,-2.8777,-3.0176,-2.9398,-2.9085,-2.9133,-2.911,-2.9127,-2.9223,-3.0077,-3.0404,-3.0288,-2.9429,-2.9146,-2.9011,-2.8242,-2.7953,-2.778,-2.6909,-2.6008,-2.5436,-2.629,-2.7115,-2.7905,0.0,0.0,0.0,-3.1676,-3.1064,-3.054,-3.2072,-3.2107,-3.1581,-3.0882,-3.1234,-3.1439,-3.0672,-2.9958,-2.9194,-2.8392,-2.8891,-2.9123,-2.8356,-2.8231,-2.8231,-2.8231,-2.8231,-2.8231,-2.8196,-2.8231,-2.8231,-2.8196,-2.8196,-2.8196,-2.8196,-2.8196,-2.8264,-2.838,-2.8411,-2.8432,-2.8492,-2.8492,-2.8471,-2.8411,-2.8471,-2.8492,-2.8523,-2.8574,-2.8422,-2.8088,-2.7797,-2.7683,-2.7624,-2.6971,-2.6691,-2.6691,-2.6691,-2.6691,-2.6691,-2.6691,-2.6691,-2.6691,-2.7141,-2.7944,-2.831,-2.6851,-2.6409,-2.6019,-2.5404,-2.5308,-2.5308,0.0,0.0,0.0,0.0,0.0,0.0,0.0,0.0,0.0,0.0,0.0,0.0,0.0,0.0,0.0,0.0,0.0,0.0,0.0,0.0,0.0,0.0,0.0,0.0,-2.6986,-2.7621,-2.8113,-2.8489,-2.8255,-2.8856,-2.992,-2.9337,-2.9483,-3.0077,-3.0308,-3.0404,-3.0365,-3.0135,-3.0038,-3.0,-2.9769,-2.9294,-2.8626,-2.7794,-2.733,-2.7124,-2.7378,-2.8013,-2.8683,-2.8853,0.0,0.0,0.0,0.0,0.0,-3.0939,-3.1187,-3.1411,-3.1603,-3.1288,-3.1067,-3.1387,-3.1234,-3.0796,-2.9979,-2.9587,-2.9333,-2.9101,-2.9084,-2.9084,-2.9084,-2.9084,-2.8838,-2.8267,-2.8731,-2.882,-2.8249,-2.8196,-2.8196,-2.8196,-2.8196,-2.8237,-2.8327,-2.8367,-2.8432,-2.8492,-2.8492,-2.8523,-2.8536,-2.8505,-2.8536,-2.8574,-2.8549,-2.8383,-2.8088,-2.7771,-2.7522,-2.7307,-2.6891,-2.6691,-2.6691,-2.6691,-2.6691,-2.6691,-2.6691,-2.6691,-2.6691,-2.7241,-2.8203,-2.88,-2.7813,-2.7063,-2.6544,-2.6409,-2.5769,-2.5558,0.0,0.0,0.0,0.0,0.0,0.0,0.0,0.0,0.0,0.0,0.0,0.0,-2.5308,-2.5308,0.0,0.0,0.0,0.0,0.0,0.0,0.0,0.0,0.0,0.0,0.0,-2.6582,-2.6973,-2.7225,-2.6864,-2.7892,-2.9754,-2.9645,-2.9919,-3.0404,-3.0373,-3.0373,-3.0404,-3.0404,-3.0404,-3.0404,-3.0404,-2.9813,-2.9011,-2.8549,-2.8129,-2.7794,-2.7791,-2.8375,-2.8989,-2.8951,-2.9535,-3.0214,-3.0566,0.0,0.0,-3.0474,-3.0609,-3.0792,-3.1,-3.0876,-3.0962,-3.1667,-3.1515,-3.1219,-3.1028,-3.0636,-3.0243,-2.9922,-2.9869,-2.9869,-2.9869,-2.9869,-2.9658,-2.9212,-2.9301,-2.9208,-2.8731,-2.8392,-2.8196,-2.8196,-2.8196,-2.8237,-2.83,-2.8384,-2.8419,-2.8458,-2.8497,-2.8479,-2.8471,-2.8471,-2.8388,-2.8282,-2.8264,-2.8037,-2.7663,-2.7474,-2.7244,-2.6972,-2.6742,-2.6674,-2.6691,-2.6691,-2.6691,-2.6691,-2.6674,-2.6657,-2.6657,0.0,-2.8607,-2.9107,-2.9107,-2.7871,-2.7101,-2.7799,-2.6582,-2.6135,0.0,0.0,0.0,0.0,0.0,0.0,0.0,0.0,0.0,0.0,0.0,0.0,-2.5308,-2.5308,-2.5712,0.0,0.0,0.0,0.0,0.0,0.0,0.0,0.0,0.0,0.0,-2.5303,-2.5695,-2.6318,-2.5748,-2.6784,-2.8918,-2.9691,-3.0157,-3.0373,-3.0316,-3.0342,-3.0398,-3.0404,-3.0404,-3.0404,-3.0404,-2.989,-2.9242,-2.9242,-2.8706,-2.8069,-2.7972,-2.8507,-2.9129,-2.9034,-2.9589,-3.0366,-3.1085,-3.0535,0.0,-3.0402,-3.0268,-3.0008,-2.9831,-3.0297,-3.0972,-3.1628,-3.1207,-3.0944,-3.1548,-3.1681,-3.1487,-3.0743,-3.0621,-3.0621,-3.0621,-3.0621,-3.06,-3.0511,-2.9993,-2.9583,-2.9423,-2.8641,-2.8196,-2.8196,-2.8196,-2.8237,-2.83,-2.8353,-2.838,-2.8411,-2.8458,-2.8414,-2.8313,-2.8327,-2.8146,-2.78,-2.7826,-2.7562,-2.7085,-2.7069,-2.6907,-2.6674,-2.6623,-2.6623,-2.6674,-2.6674,-2.6674,-2.6674,-2.6623,-2.6606,-2.6589,-2.8742,-2.8992,-2.9107,-2.9107,-2.8838,-2.8453,-2.7972,-2.7601,-2.7505,-2.7857,0.0,0.0,-2.8549,-2.7409,0.0,0.0,0.0,0.0,0.0,0.0,-2.5308,-2.5308,-2.5308,-2.5712,-2.6582,-2.5904,0.0,0.0,0.0,0.0,0.0,0.0,0.0,0.0,-2.5307,-2.5353,-2.5538,-2.6765,-2.7558,-2.7962,-2.814,-2.9059,-3.0311,-3.0298,-3.031,-3.0336,-3.0379,-3.0404,-3.0404,-3.0404,-3.0288,-3.0154,-3.0154,-3.0038,-2.9758,-2.9043,-2.9421,-2.9889,-2.9187,-2.9589,-3.0245,-3.0385,-3.0238,0.0,-2.9975,-2.9851,-2.9897,-3.0272,-3.0408,-3.0708,-3.1421,-3.1261,-3.1057,-3.1189,-3.1621,-3.1841,-3.1508,-3.1474,-3.1474,-3.1474,-3.1474,-3.1207,-3.055,-3.0957,-3.0743,-2.9494,-2.8641,-2.8196,-2.8196,-2.8196,-2.8237,-2.83,-2.8313,-2.834,-2.8411,-2.8353,-2.8353,-2.8384,-2.8077,-2.7901,-2.7869,-2.7562,-2.7239,-2.6937,-2.689,-2.6742,-2.6537,-2.652,-2.6571,-2.6623,-2.6623,-2.6589,-2.6537,-2.6572,-2.6571,-2.6502,-2.8934,-2.9448,-2.9756,-2.9756,-2.939,-2.9107,-2.914,-2.8448,-2.8198,-2.9044,-2.9159,-2.9121,-2.9107,-2.8357,-2.7852,-2.7895,0.0,0.0,-2.6563,-2.5788,-2.5308,-2.5308,-2.5308,-2.55,-2.5942,-2.5519,0.0,0.0,0.0,0.0,0.0,0.0,0.0,0.0,-2.5484,-2.5726,-2.6487,-2.6952,-2.7605,-2.8339,-2.8779,-2.9494,-3.0292,-3.0292,-3.0292,-3.031,-3.0373,-3.0404,-3.0404,-3.0404,-3.0404,-3.0404,-3.0404,-3.0404,-3.0302,-2.9886,-3.0034,-3.0246,-2.9774,-2.9941,-3.0241,-3.0202,-3.0168,0.0,0.0,-2.9765,-2.9792,-2.9922,-2.957,-2.9481,-3.0231,-2.992,-2.9781,-3.054,-3.1151,-3.1522,-3.1419,-3.1945,-3.2342,-3.2293,-3.2311,-3.215,-3.1742,-3.1689,-3.1064,-2.953,-2.903,-2.8624,-2.8231,-2.8196,-2.8209,-2.825,-2.8286,-2.8313,-2.834,-2.834,-2.834,-2.834,-2.7993,-2.7698,-2.7532,-2.7162,-2.6856,-2.659,-2.6573,-2.6521,-2.6485,-2.6434,-2.6417,-2.6452,-2.652,-2.6537,-2.6502,-2.6468,-2.6417,-2.6399,-2.8934,-2.9679,-3.0192,-3.0365,-2.9813,-2.9583,-3.0288,-2.9256,-2.8871,-3.0212,-3.0404,-3.0135,-2.9429,-2.9204,-2.8973,-2.8659,-2.7544,-2.6986,-2.7308,-2.6212,-2.5635,-2.5788,-2.5481,-2.5385,-2.5558,-2.5385,0.0,0.0,0.0,0.0,0.0,0.0,-2.5735,-2.6496,-2.5838,-2.6343,-2.7694,-2.7185,-2.7721,-2.8975,-2.9843,-3.0221,-3.0273,-3.0279,-3.0286,-3.0298,-3.0373,-3.0404,-3.0404,-3.0404,-3.0404,-3.0404,-3.0404,-3.0404,-3.0404,-3.0404,-3.0404,-3.0398,-3.0342,-3.031,-3.0292,-3.0228,-3.0202,-3.0147,0.0,0.0,0.0,-2.957,-2.8979,-2.8661,-2.9259,-2.8678,-2.8543,-2.989,-3.0465,-3.0795,-3.0953,-3.1934,-3.266,-3.2731,-3.2858,-3.2932,-3.2916,-3.2043,-3.1028,-2.9922,-2.9423,-2.8945,-2.8463,-2.8285,-2.8196,-2.8196,-2.8246,-2.8259,-2.8187,-2.8246,-2.8201,-2.8101,-2.7742,-2.7413,-2.7117,-2.6758,-2.6487,-2.6294,-2.6294,-2.6346,-2.6433,-2.6329,-2.6294,-2.6278,-2.6416,-2.645,-2.6433,-2.6347,-2.6295,-2.6277,-2.8934,-2.9184,-2.9486,-3.0269,-3.0327,-3.0288,-3.0385,-3.0231,-3.0173,-3.0385,-3.0404,-3.0365,-3.0269,-2.9563,-2.9684,-3.1141,-2.9102,-2.8371,-2.9865,-2.775,-2.6794,-2.7563,-2.6115,-2.5654,-2.6447,-2.5692,0.0,0.0,0.0,0.0,0.0,0.0,-2.5769,-2.6572,-2.6422,-2.6893,-2.7826,-2.8396,-2.8726,-2.8968,-2.9841,-3.0199,-3.0206,-3.0207,-3.0241,-3.0305,-3.038,-3.0404,-3.0404,-3.0404,-3.0404,-3.0404,-3.0404,-3.0404,-3.0404,-3.0404,-3.0404,-3.0404,-3.0398,-3.0342,-3.0304,-3.0298,-3.0241,-3.0181,-3.0161,0.0,-3.0142,-3.0038,0.0,-2.9901,-2.9977,0.0,0.0,-2.9615,-2.9603,-2.9731,-3.0383,-3.1005,-3.1574,-3.2053,-3.2675,-3.3039,-3.2979,-3.1559,-3.0868,-3.1403,-2.9497,-2.8606,-2.9244,-2.8588,-2.8196,-2.8196,-2.8196,-2.8067,-2.7774,-2.7774,-2.7654,-2.7411,-2.7003,-2.6841,-2.6841,-2.6434,-2.6239,-2.6203,-2.6203,-2.6221,-2.6221,-2.6221,-2.6203,-2.6221,-2.6294,-2.6293,-2.6239,-2.6294,-2.6259,-2.6203,-2.8934,-2.9506,-2.9967,-3.0346,-3.0404,-3.0404,-3.0404,-3.0827,-3.0962,-3.0462,-3.0846,-3.1154,-3.1154,-3.0833,-3.0891,-3.1641,-3.0256,-2.9429,-2.9621,-2.8217,-2.7525,-2.7876,-2.6717,-2.6231,-2.6601,-2.575,-2.5308,0.0,-2.5308,0.0,0.0,0.0,-2.6009,-2.7262,-2.6738,-2.7495,-2.9181,-2.8976,-2.9185,-2.9688,-3.0051,-3.0211,-3.0192,-3.02,-3.0228,-3.0311,-3.0386,-3.0404,-3.0404,-3.0404,-3.0404,-3.0404,-3.0404,-3.0404,-3.0404,-3.0404,-3.0404,-3.0404,-3.0404,-3.0379,-3.0348,-3.031,-3.0286,-3.0254,-3.0254,-3.026,-3.0246,-3.0226,0.0,0.0,0.0,0.0,0.0,0.0,-2.9403,-2.9645,-2.9945,-3.0894,-3.1562,-3.1639,-3.1707,-3.1921,-3.2261,-3.1673,-3.1392,-3.1686,-3.0368,-2.9497,-2.9405,-2.9069,-2.8677,-2.8213,-2.8011,-2.7832,-2.7701,-2.7507,-2.7352,-2.7243,-2.6857,-2.6708,-2.6725,-2.6364,-2.6202,-2.6202,-2.6202,-2.6202,-2.6202,-2.6202,-2.6202,-2.6203,-2.6222,-2.6221,-2.6203,-2.6222,-2.6221,-2.6202,-2.8992,-2.9794,-3.0404,-3.0404,-3.0404,-3.0404,-3.0404,-3.0942,-3.1115,-3.0481,-3.0942,-3.1429,-3.1679,-3.1698,-3.1891,-3.2352,-3.1602,-3.0814,-3.0185,-2.9159,-2.8582,-2.8582,-2.7544,-2.7063,-2.7274,-2.6212,-2.5654,-2.5654,-2.5423,0.0,0.0,0.0,0.0,-2.7448,-2.7044,-2.7987,-2.9838,-2.9434,-2.9631,-3.0192,-2.9937,-2.9841,-2.9841,-2.9856,-2.9902,-2.9921,-2.9753,-2.9694,-2.9719,-2.995,-3.0033,-3.0096,-3.0327,-3.0404,-3.0404,-3.0404,-3.0404,-3.0404,-3.0404,-3.0404,-3.0398,-3.0342,-3.031,-3.0298,-3.0292,-3.0299,-3.0292,-3.0292,-2.9794,0.0,0.0,0.0,-2.8243,-2.8827,0.0,-2.9201,-2.9458,-3.0302,-3.0961,-3.1134,-3.1016,-3.1109,-3.1596,-3.1379,-3.1345,-3.1701,-3.0791,-3.0062,-2.9726,-2.9512,-2.9034,-2.8231,-2.7879,-2.7657,-2.755,-2.7244,-2.7021,-2.6956,-2.6691,-2.6572,-2.6573,-2.6311,-2.6202,-2.6202,-2.6202,-2.6202,-2.6202,-2.6202,-2.6202,-2.6202,-2.6202,-2.6202,-2.6202,-2.6202,-2.6202,-2.6202,-2.9088,-2.9794,-3.0404,-3.0404,-3.0404,-3.0404,-3.0404,-3.0423,-3.0423,-3.0404,-3.0423,-3.075,-3.1621,-3.1698,-3.2352,-3.3975,-3.3314,-3.2814,-3.2776,-3.1231,-3.0327,-3.0327,-2.8736,-2.8222,-2.8992,-2.7409,-2.6563,-2.6563,-2.5712,-2.5308,0.0,0.0,0.0,0.0,-2.742,-2.8235,-2.9085,-2.983,-3.0166,-3.0128,-2.928,-2.893,-2.8956,-2.9015,-2.9034,-2.8945,-2.8158,-2.7887,-2.8011,-2.8864,-2.9137,-2.93,-3.0135,-3.0404,-3.0404,-3.0404,-3.0404,-3.0404,-3.0404,-3.0404,-3.0404,-3.0404,-3.0348,-3.0304,-3.0304,-3.0299,-3.0292,-3.0292,-3.0273,-3.0248,-3.0248,-2.9551,-2.8977,-2.8996,-2.8249,0.0,0.0,-2.8741,-2.9081,-3.0381,-3.0918,-3.1201,-3.1219,-3.0274,-3.0255,-3.1706,-3.0381,-2.9812,-3.044,-2.9797,-2.9034,-2.8231,-2.7879,-2.7535,-2.7213,-2.6891,-2.659,-2.633,-2.624,-2.624,-2.6313,-2.6222,-2.6202,-2.6202,-2.6202,-2.6202,-2.6202,-2.6202,-2.6202,-2.6202,-2.6202,-2.6202,-2.6202,-2.6202,-2.6202,-2.6202,-2.9852,-3.0192,-3.0404,-3.0404,-3.0404,-3.0596,-3.1173,-3.125,-3.1442,-3.1987,-3.2045,-3.2391,-3.3256,-3.3353,-3.359,-3.4148,-3.3936,-3.3526,-3.2949,-3.1872,-3.1506,-3.2025,-2.989,-2.9083,-2.9948,-2.8313,-2.7467,-2.7467,-2.7178,-2.7024,0.0,0.0,0.0,0.0,-2.7692,-2.8253,-2.9053,-2.985,-3.0206,-3.0166,-2.9879,-2.9414,-2.8917,-2.8976,-2.8996,-2.904,-2.936,-2.9103,-2.8775,-2.9506,-2.9767,-2.98,-2.9997,-3.0075,-3.0097,-3.0169,-3.0196,-3.0235,-3.0361,-3.0305,-3.0241,-3.0361,-3.0273,-3.0209,-3.0336,-3.0361,-3.0374,-3.0374,-3.0336,-3.0311,-3.0311,-3.0069,-2.9851,-2.9851,-2.9563,-2.9243,0.0,-2.8346,-2.8472,-3.0042,-3.0686,-3.0835,-3.0454,-3.0079,-3.041,-3.1703,-3.0864,-3.0585,-3.126,-3.0547,-2.9692,-2.8688,-2.7814,-2.7213,-2.6874,-2.6538,-2.6329,-2.6222,-2.6203,-2.6203,-2.6222,-2.6203,-2.6202,-2.6202,-2.6202,-2.6202,-2.6202,-2.6202,-2.6202,-2.6202,-2.6202,-2.6202,-2.6202,-2.6202,-2.6202,-2.6202,-3.0288,-3.0404,-3.0404,-3.0404,-3.0654,-3.1058,-3.1621,-3.1948,-3.2314,-3.2833,-3.2891,-3.3237,-3.4109,-3.4205,-3.4321,-3.4641,-3.4661,-3.416,-3.2987,-3.2699,-3.2545,-3.2487,-3.116,-3.0583,-3.0865,-2.9506,-2.864,-2.8338,-2.8049,-2.7895,0.0,0.0,0.0,0.0,-2.7827,-2.8253,-2.9072,-3.0195,-3.0473,-3.0166,-2.986,-2.9395,-2.8891,-2.8864,-2.8857,-2.8909,-2.9251,-2.8996,-2.8613,-2.9428,-2.9681,-2.9672,-2.9897,-2.9733,-2.9482,-2.9588,-2.9424,-2.9301,-2.9685,-2.9741,-2.9752,-3.0118,-3.0121,-3.0092,-3.0248,-3.0299,-3.0299,-3.0299,-3.0323,-3.0304,-3.0241,-3.026,-3.0216,-2.9928,-2.9819,-2.9487,0.0,-2.8529,-2.8814,-2.9575,-2.9806,-2.9863,-2.9757,-2.96,-3.0059,-3.1379,-3.1042,-3.1052,-3.1696,-3.1002,-3.0051,-2.8941,-2.7799,-2.7037,-2.6708,-2.6381,-2.6202,-2.6202,-2.6202,-2.6202,-2.6202,-2.6202,-2.6202,-2.6202,-2.6202,-2.6202,-2.6202,-2.6202,-2.6202,-2.6202,-2.6202,-2.6202,-2.6202,-2.6202,-2.6202,-2.6202,-3.0404,-3.0423,-3.0462,-3.0462,-3.1115,-3.1679,-3.1795,-3.241,-3.2872,-3.2949,-3.2968,-3.3276,-3.4109,-3.4244,-3.4603,-3.5423,-3.55,-3.4808,-3.3141,-3.3757,-3.3506,-3.1968,-3.2545,-3.2564,-3.1833,-3.0923,-3.0063,-2.9223,-2.8415,-2.8025,0.0,0.0,0.0,0.0,-2.7887,-2.8298,-2.9104,-3.0748,-3.093,-3.007,-2.928,-2.893,-2.8878,-2.8719,-2.8657,-2.8586,-2.801,-2.7646,-2.7621,-2.8676,-2.8957,-2.8996,-2.9818,-2.9444,-2.8741,-2.8749,-2.8246,-2.7853,-2.8575,-2.8836,-2.9091,-2.9744,-2.9894,-2.9926,-3.0066,-3.0095,-3.0095,-3.0095,-3.0241,-3.0311,-3.0129,-3.0196,-3.0029,-2.9286,-2.907,-2.8714,-2.7936,-2.9123,-2.9796,-2.9048,-2.8449,-2.8414,-2.9225,-2.8897,-2.9256,-3.0784,-3.0856,-3.1128,-3.1826,-3.1091,-3.011,-2.8978,-2.7801,-2.7021,-2.6674,-2.6364,-2.6202,-2.6202,-2.6202,-2.6202,-2.6202,-2.6202,-2.6202,-2.6202,-2.6202,-2.6202,-2.6202,-2.6202,-2.6202,-2.6202,-2.6202,-2.6202,-2.6202,-2.6202,-2.6202,-2.6202,-3.0404,-3.0923,-3.1371,-3.1371,-3.1019,-3.1365,-3.3276,-3.2679,-3.2468,-3.3705,-3.3878,-3.3955,-3.4186,-3.4776,-3.525,-3.5481,-3.55,-3.5308,-3.4865,-3.443,-3.4295,-3.4519,-3.3487,-3.3103,-3.3551,-3.2122,-3.1256,-3.1025,-3.0179,-2.975,-2.9731,0.0,0.0,0.0,-2.8774,-2.8853,-2.9072,-3.0099,-3.0027,-2.9261,-2.9707,-2.9471,-2.8954,-2.9402,-2.9575,-2.952,-2.923,-2.8788,-2.8476,-2.9139,-2.9456,-2.9542,-2.957,-2.942,-2.9232,-2.9344,-2.92,-2.9093,-2.9491,-2.9463,-2.9432,-2.9813,-2.9794,-2.9734,-2.9899,-2.9915,-2.9883,-2.9883,-2.9923,-2.9969,-3.0025,-3.0089,-3.0126,-3.0092,-2.9466,-2.9136,-2.9513,-2.8868,-2.8714,-2.9739,-2.882,-2.8416,-2.9206,-2.9053,-2.9454,-3.0812,-3.0351,-3.0786,-3.2599,-3.0861,-2.9668,-2.9361,-2.795,-2.6924,-2.6329,-2.6239,-2.6202,-2.6202,-2.6202,-2.6202,-2.6202,-2.6202,-2.6202,-2.6202,-2.6202,-2.6202,-2.6202,-2.6202,-2.6202,-2.6202,-2.6202,-2.6202,-2.6202,-2.6202,-2.6202,-2.6202,-3.0962,-3.1948,-3.2795,-3.2795,-3.2391,-3.2545,-3.3975,-3.3718,-3.3564,-3.4129,-3.4205,-3.4052,-3.366,-3.441,-3.493,-3.493,-3.5269,-3.5346,-3.4968,-3.4834,-3.4814,-3.493,-3.4353,-3.4083,-3.4205,-3.2891,-3.2045,-3.1698,-3.0827,-3.0404,-3.0385,0.0,0.0,0.0,-2.9236,-2.9238,-2.9545,-3.0016,-3.0142,-3.0044,-3.0166,-2.9856,0.0,-2.9658,-2.976,-2.9725,-2.9435,-2.9223,-2.9135,-2.9485,-2.9626,-2.9644,-2.9531,-2.9179,-2.88,-2.8883,-2.868,-2.8493,-2.8951,-2.8999,-2.9036,-2.9486,-2.9504,-2.9371,-2.921,-2.9388,-2.954,-2.9163,-2.9451,-2.9756,-2.9736,-2.9897,-3.0136,-3.0361,-2.9926,-2.9595,-2.9673,-2.9174,-2.8995,-2.9555,-2.919,-2.9053,-2.9486,-2.9097,-2.9277,-3.0347,-3.0333,-3.095,-3.2526,-3.1017,-3.0021,-2.9804,-2.8275,-2.7133,-2.6434,-2.6417,-2.6346,-2.6202,-2.6202,-2.6202,-2.6202,-2.6202,-2.6202,-2.6202,-2.6202,-2.6202,-2.6202,-2.6202,-2.6202,-2.6202,-2.6202,-2.6202,-2.6202,-2.6202,-2.6202,-2.6202,-3.2025,-3.3295,-3.434,-3.4225,-3.4302,-3.4379,-3.4379,-3.493,-3.5064,-3.4302,-3.4302,-3.4045,-3.316,-3.3853,-3.4321,-3.4205,-3.4891,-3.4968,-3.409,-3.4853,-3.4988,-3.4225,-3.5026,-3.5154,-3.4398,-3.3526,-3.2679,-3.1852,-3.0981,-3.0519,-3.0379,0.0,0.0,0.0,-2.9506,-2.9545,-3.02,-3.0199,-3.0643,-3.1255,-3.0491,-3.0106,-2.9913,-2.9689,-2.9617,-2.9589,-2.9149,-2.9259,-2.9589,-2.9626,-2.957,-2.9492,-2.9523,-2.8911,-2.8151,-2.8151,-2.775,-2.7409,-2.8009,-2.8229,-2.8469,-2.9047,-2.92,-2.904,-2.8462,-2.8771,-2.9014,-2.8305,-2.8764,-2.9269,-2.9101,-2.9465,-2.9875,-3.0113,-3.0209,-2.9928,-2.9034,-2.9606,-2.9844,-2.9084,-2.9466,0.0,-2.9767,-2.9097,-2.9002,-2.9795,-3.0359,-3.1048,-3.1903,-3.1073,-3.0424,-3.0051,-2.8546,-2.7428,-2.6775,-2.6691,-2.6521,-2.6274,-2.6221,-2.6202,-2.6202,-2.6202,-2.6202,-2.6202,-2.6202,-2.6202,-2.6202,-2.6202,-2.6202,-2.6202,-2.6202,-2.6202,-2.6202,-2.6202,-2.6202,-2.6202,-3.3763,-3.4584,-3.5045,-3.434,-3.4795,-3.5269,-3.5269,-3.4795,-3.4379,-3.4225,-3.4834,-3.4949,-3.4071,-3.4757,-3.4988,-3.4263,-3.434,-3.4064,-3.3179,-3.393,-3.4359,-3.4205,-3.5026,-3.5423,-3.5269,-3.441,-3.3545,-3.2699,-3.1872,-3.109,-3.0316,0.0,0.0,-3.0299,-3.0087,-3.0066,-3.0199,-3.0192,-3.0287,-3.0414,-3.0268,-3.0171,-3.0113,-2.9742,-2.9698,-2.976,-2.9203,-2.9259,-2.9561,-2.9291,-2.931,-2.9402,-2.9299,-2.9132,-2.8978,-2.8978,-2.8864,-2.8769,-2.8938,-2.8975,-2.8982,-2.9171,-2.92,-2.9163,-2.9058,-2.8582,-2.8115,-2.7986,-2.7565,-2.7257,-2.7317,-2.812,-2.8801,-2.8909,-2.9415,-2.9509,-2.8639,-2.9204,-2.966,-2.9491,-2.9391,-2.9387,-2.9542,-2.9225,-2.9313,-3.0069,-2.944,-2.9623,-3.1037,-2.9719,-2.9012,-2.9206,-2.8021,-2.7288,-2.7117,-2.6572,-2.6399,-2.6607,-2.6329,-2.6202,-2.6202,-2.6202,-2.6202,-2.6202,-2.6202,-2.6202,-2.6202,-2.6202,-2.6202,-2.6202,-2.6202,-2.6202,-2.6202,-2.6202,-2.6202,-2.6202,-3.6084,-3.6507,-3.6526,-3.5641,-3.5834,-3.5981,-3.5558,-3.5135,-3.4718,-3.4263,-3.4564,-3.4487,-3.3622,-3.4295,-3.4661,-3.4244,-3.4603,-3.4699,-3.4269,-3.4641,-3.4872,-3.4872,-3.5269,-3.55,-3.55,-3.4641,-3.3782,-3.2891,-3.2083,-3.1219,-3.0304,-3.0304,-3.0279,-3.0279,-3.0679,-3.0619,-3.023,-3.0643,-3.0586,-3.0211,-3.0211,-3.0072,-2.988,-2.9681,-2.9598,-2.9542,-2.9138,-2.9185,-2.9405,-2.9171,-2.9167,-2.9243,-2.9211,-2.9167,-2.9163,-2.9163,-2.9089,-2.9062,-2.9096,-2.9067,-2.9062,-2.9096,-2.9108,-2.8997,-2.8566,-2.8147,-2.7739,-2.7305,-2.6912,-2.67,-2.6879,-2.7688,-2.826,-2.797,-2.8604,-2.8959,-2.8464,-2.8731,-2.9137,-2.9551,-2.9494,-2.9446,-2.9542,-2.9316,-2.927,-2.9557,-2.8968,-2.9112,-3.0274,-2.9605,-2.922,-2.9319,-2.8203,-2.7472,-2.7197,-2.6708,-2.6452,-2.6434,-2.6274,-2.6202,-2.6202,-2.6202,-2.6202,-2.6202,-2.6202,-2.6202,-2.6202,-2.6202,-2.6202,-2.6202,-2.6202,-2.6202,-2.6202,-2.6202,-2.6202,-2.6202,-3.8142,-3.8123,-3.7738,-3.6846,-3.6558,-3.6231,-3.5596,-3.55,-3.525,-3.4564,-3.4468,-3.4218,-3.3526,-3.4064,-3.4391,-3.4225,-3.4834,-3.5154,-3.4962,-3.5115,-3.5212,-3.5212,-3.5404,-3.55,-3.55,-3.4834,-3.4045,-3.3179,-3.2365,-3.1482,-3.0567,-3.0362,-3.0343,-3.0506,-3.1186,-3.1217,-3.0758,-3.1217,-3.1026,-3.0433,-3.0261,-2.9977,-2.9662,-2.9617,-2.9484,-2.9272,-2.9078,-2.9093,-2.9217,-2.9112,-2.9085,-2.9096,-2.9134,-2.9112,-2.9085,-2.9085,-2.9051,-2.9005,-2.9005,-2.9005,-2.9005,-2.9005,-2.9005,-2.8785,-2.797,-2.7658,-2.731,-2.6502,-2.6209,-2.6189,-2.6535,-2.7158,-2.7457,-2.6985,-2.7621,-2.8074,-2.7798,-2.8061,-2.8512,-2.9129,-2.9222,-2.9307,-2.9504,-2.8949,-2.8702,-2.8979,-2.8761,-2.8897,-2.9513,-2.9549,-2.9483,-2.9364,-2.833,-2.7636,-2.7338,-2.6841,-2.6503,-2.631,-2.6239,-2.6202,-2.6202,-2.6202,-2.6202,-2.6202,-2.6202,-2.6202,-2.6202,-2.6202,-2.6202,-2.6202,-2.6202,-2.6202,-2.6202,-2.6202,-2.615,-2.6061,-3.9169,-3.8546,-3.7738,-3.6846,-3.6096,-3.5596,-3.5519,-3.55,-3.5462,-3.5385,-3.5385,-3.5346,-3.5269,-3.5327,-3.5064,-3.4263,-3.4263,-3.3987,-3.3199,-3.3872,-3.4321,-3.4321,-3.5084,-3.55,-3.55,-3.5423,-3.4949,-3.409,-3.3205,-3.2346,-3.1456,-3.0604,-3.0621,-3.1369,-3.1465,-3.1859,-3.2413,-3.1706,-3.1362,-3.1209,-3.0491,-3.0064,-2.9855,-2.9672,-2.9484,-2.9272,-2.9078,-2.9017,-2.904,-2.8998,-2.9017,-2.9017,-2.9017,-2.9017,-2.9017,-2.9017,-2.9005,-2.9005,-2.9005,-2.9005,-2.9005,-2.9005,-2.9005,-2.8785,-2.797,-2.7236,-2.6484,-2.5686,-2.4934,-2.4678,-2.5473,-2.5656,-2.5665,-2.566,-2.6294,-2.653,-2.5785,-2.6935,-2.7882,-2.7955,-2.7974,-2.8304,-2.9156,-2.7676,-2.7317,-2.8883,-2.8809,-2.8693,-2.8708,-2.8708,-2.8683,-2.8619,-2.7861,-2.7532,-2.7745,-2.6758,-2.6365,-2.6641,-2.6346,-2.6202,-2.6202,-2.6202,-2.6202,-2.6202,-2.6202,-2.6202,-2.6202,-2.6202,-2.6202,-2.6202,-2.6202,-2.6202,-2.6202,-2.6202,-2.5919,-2.5575,-3.94,-3.8604,-3.7738,-3.6846,-3.6038,-3.55,-3.55,-3.55,-3.55,-3.55,-3.55,-3.55,-3.55,-3.55,-3.5365,-3.5007,-3.4988,-3.4834,-3.4481,-3.4795,-3.4988,-3.4988,-3.5308,-3.55,-3.55,-3.55,-3.5051,-3.4134,-3.3787,-3.3177,-3.2309,-3.1943,-3.1915,-3.2241,-3.2764,-3.2611,-3.1992,-3.2126,-3.1591,-3.0636,-3.0198,-2.9897,-2.9698,-2.9504,-2.9301,-2.9104,-2.9021,-2.9005,-2.9005,-2.9005,-2.9005,-2.9005,-2.9005,-2.9005,-2.9005,-2.9005,-2.9005,-2.9005,-2.9005,-2.9005,-2.9005,-2.9005,-2.9005,-2.8785,-2.797,-2.7181,-2.6374,-2.5576,-2.4768,-2.4309,-2.4659,-2.5138,-2.5295,-2.4798,-2.5414,-2.5809,-2.5458,-2.6366,-2.709,-2.709,-2.79,-2.8425,-2.8309,-2.8027,-2.811,-2.8766,-2.8264,-2.8329,-2.9264,-2.8675,-2.8586,-2.9196,-2.7832,-2.7224,-2.7502,-2.664,-2.6274,-2.6416,-2.6274,-2.6202,-2.6202,-2.6202,-2.6202,-2.6202,-2.6202,-2.6202,-2.6202,-2.6202,-2.6202,-2.6202,-2.6202,-2.6043,-2.5793,-2.5793,-2.5516,-2.5118,-3.9457,-3.8604,-3.7738,-3.6846,-3.6038,-3.55,-3.55,-3.5474,-3.5467,-3.5467,-3.5453,-3.546,-3.55,-3.55,-3.55,-3.55,-3.55,-3.55,-3.55,-3.55,-3.55,-3.55,-3.55,-3.55,-3.55,-3.5486,-3.5146,-3.4471,-3.4201,-3.3763,-3.3149,-3.2885,-3.2882,-3.31,-3.3719,-3.3337,-3.2267,-3.2565,-3.1878,-3.0534,-3.0083,-2.9787,-2.958,-2.9385,-2.9192,-2.9005,-2.9005,-2.9005,-2.9005,-2.9005,-2.9005,-2.9005,-2.9005,-2.9005,-2.9005,-2.9005,-2.9005,-2.9005,-2.9005,-2.9005,-2.9005,-2.9005,-2.9005,-2.873,-2.7677,-2.7016,-2.63,-2.5264,-2.4603,-2.419,-2.419,-2.4706,-2.4918,-2.4291,-2.4724,-2.5102,-2.5054,-2.5731,-2.6245,-2.6245,-2.7204,-2.7819,-2.7682,-2.7928,-2.8251,-2.8651,-2.8099,-2.8213,-2.9232,-2.8519,-2.837,-2.9042,-2.7624,-2.6953,-2.7147,-2.6504,-2.6202,-2.6202,-2.6202,-2.6202,-2.6202,-2.6202,-2.6202,-2.6202,-2.6202,-2.6202,-2.6202,-2.6202,-2.6202,-2.6202,-2.6061,-2.5793,-2.5484,-2.537,-2.5079,-2.4679,-3.9457,-3.8604,-3.7738,-3.6846,-3.6038,-3.55,-3.55,-3.5446,-3.5405,-3.5405,-3.5338,-3.5357,-3.5493,-3.55,-3.55,-3.55,-3.55,-3.55,-3.55,-3.55,-3.55,-3.55,-3.55,-3.55,-3.55,-3.5446,-3.5405,-3.5386,-3.4457,-3.3999,-3.3972,-3.3104,-3.3158,-3.3975,-3.3995,-3.3995,-3.3918,-3.3062,-3.2222,-3.1393,-3.033,-2.9787,-2.958,-2.9385,-2.9192,-2.9005,-2.9005,-2.9005,-2.9005,-2.9005,-2.9005,-2.9005,-2.9005,-2.9005,-2.9005,-2.9005,-2.9005,-2.9005,-2.9005,-2.9005,-2.9005,-2.9005,-2.9005,-2.8583,-2.6969,-2.6602,-2.6153,-2.4538,-2.4208,-2.419,-2.419,-2.4208,-2.4208,-2.419,-2.4208,-2.4208,-2.4208,-2.4915,-2.5411,-2.5411,-2.5429,-2.6002,-2.7454,-2.6884,-2.7034,-2.8491,-2.86,-2.8448,-2.8147,-2.8037,-2.7869,-2.7542,-2.7051,-2.6791,-2.6808,-2.6399,-2.6202,-2.6202,-2.6202,-2.6202,-2.6202,-2.6202,-2.6202,-2.6202,-2.6202,-2.6202,-2.6202,-2.6202,-2.6202,-2.615,-2.5703,-2.5503,-2.5446,-2.5044,-2.4639,-2.4302,-3.77,-3.7777,-3.7538,-3.6061,-3.6099,-3.6092,-3.5468,-3.5357,-3.533,-3.533,-3.5315,-3.5315,-3.5364,-3.5405,-3.5453,-3.55,-3.55,-3.55,-3.55,-3.546,-3.5453,-3.55,-3.5412,-3.5398,-3.542,-3.5364,-3.5335,-3.5324,-3.5032,-3.4856,-3.4805,-3.4522,-3.4552,-3.4789,-3.4235,-3.3662,-3.3062,-3.2183,-3.135,-3.0565,-2.9933,-2.9662,-2.957,-2.9217,-2.9405,-2.9739,-2.9207,-2.9354,-2.9721,-2.9189,-2.9005,-2.9005,-2.9005,-2.9005,-2.9005,-2.9005,-2.9005,-2.9005,-2.9005,-2.9005,-2.9005,-2.9005,-2.9005,-2.8712,-2.7658,-2.6568,-2.5485,-2.441,-2.419,-2.419,-2.419,-2.419,-2.419,-2.419,-2.419,-2.419,-2.419,-2.4897,-2.5383,-2.535,-2.626,-2.7064,-2.7482,-2.7761,-2.8094,-2.8563,-2.86,-2.8683,-2.8915,-2.8195,-2.7956,-2.8294,-2.7196,-2.6657,-2.6791,-2.6416,-2.6202,-2.6202,-2.6202,-2.6202,-2.6202,-2.6202,-2.6202,-2.6202,-2.6202,-2.6202,-2.6202,-2.6202,-2.6008,-2.5703,-2.5559,-2.516,-2.4659,-2.4533,-2.4204,-2.3824,-3.7296,-3.7623,-3.7647,-3.6526,-3.6538,-3.6607,-3.6312,-3.5714,-3.5534,-3.6166,-3.594,-3.5883,-3.6205,-3.6286,-3.6074,-3.5511,-3.5446,-3.5446,-3.546,-3.5405,-3.5379,-3.542,-3.5338,-3.5323,-3.5364,-3.5327,-3.5297,-3.5312,-3.5269,-3.5234,-3.5209,-3.5209,-3.5209,-3.5171,-3.435,-3.3528,-3.2661,-3.2126,-3.14,-3.0634,-3.0571,-3.0546,-3.0498,-3.0064,-3.021,-3.0577,-3.0081,-3.0228,-3.0577,-3.0081,-2.9702,-2.9445,-2.9445,-2.9244,-2.9005,-2.9005,-2.9005,-2.9005,-2.9005,-2.9005,-2.9005,-2.9005,-2.9005,-2.8785,-2.797,-2.6568,-2.5338,-2.5144,-2.4612,-2.4281,-2.4585,-2.4392,-2.43,-2.4603,-2.4658,-2.4658,-2.4658,-2.5081,-2.5391,-2.5319,-2.6155,-2.6938,-2.7446,-2.7925,-2.8299,-2.8582,-2.86,-2.8665,-2.8844,-2.8047,-2.7711,-2.8009,-2.6962,-2.6451,-2.6572,-2.6329,-2.6202,-2.6202,-2.6202,-2.6202,-2.6202,-2.6202,-2.6202,-2.6202,-2.6202,-2.6097,-2.5954,-2.5954,-2.5682,-2.5256,-2.5118,-2.4739,-2.4281,-2.4114,-2.3846,-2.3595,-3.8007,-3.8046,-3.8043,-3.7921,-3.7318,-3.7099,-3.7781,-3.6514,-3.6031,-3.7581,-3.7088,-3.688,-3.7696,-3.7791,-3.7193,-3.5698,-3.5465,-3.5419,-3.5475,-3.5369,-3.5308,-3.5308,-3.53,-3.53,-3.5308,-3.5308,-3.5285,-3.5285,-3.5226,-3.5209,-3.5209,-3.5209,-3.5209,-3.5171,-3.435,-3.3547,-3.2795,-3.2737,-3.2222,-3.1523,-3.1949,-3.2105,-3.2054,-3.1572,-3.1433,-3.1488,-3.1415,-3.1433,-3.147,-3.1415,-3.0889,-3.0283,-3.0283,-2.9721,-2.9078,-2.9023,-2.9005,-2.9005,-2.9005,-2.9005,-2.9005,-2.9005,-2.9005,-2.8785,-2.797,-2.6641,-2.576,-2.6465,-2.5419,-2.4593,-2.5356,-2.4879,-2.4612,-2.5356,-2.5485,-2.5485,-2.5485,-2.5485,-2.5472,-2.5455,-2.5463,-2.6012,-2.7446,-2.758,-2.7864,-2.8545,-2.86,-2.8448,-2.8143,-2.7678,-2.7255,-2.6904,-2.6452,-2.6203,-2.6202,-2.6202,-2.6202,-2.6202,-2.6202,-2.6202,-2.6202,-2.6202,-2.6202,-2.6202,-2.6168,-2.5901,-2.5503,-2.5465,-2.5218,-2.4803,-2.4451,-2.4281,-2.4198,-2.376,-2.3595,-2.3595,-3.8007,-3.8497,-3.8696,-3.8016,-3.8252,-3.8361,-3.7832,-3.7394,-3.7271,-3.7672,-3.7549,-3.7492,-3.7691,-3.771,-3.7602,-3.7269,-3.6661,-3.6301,-3.6309,-3.5676,-3.5297,-3.5308,-3.5246,-3.525,-3.53,-3.5242,-3.5218,-3.5218,-3.5209,-3.5209,-3.5209,-3.5209,-3.5209,-3.5171,-3.435,-3.3899,-3.3643,-3.2986,-3.2585,-3.2382,-3.2175,-3.2105,-3.2054,-3.1572,-3.177,-3.2247,-3.1623,-3.1788,-3.2228,-3.1604,-3.1268,-3.1109,-3.1109,-3.0558,-2.9794,-2.9189,-2.9005,-2.9005,-2.9005,-2.9005,-2.9005,-2.9005,-2.9005,-2.8785,-2.797,-2.7504,-2.7108,-2.6686,-2.63,-2.6098,-2.6282,-2.6172,-2.6098,-2.6282,-2.6319,-2.6319,-2.6319,-2.6269,-2.6435,-2.6991,-2.7007,-2.7337,-2.8244,-2.8353,-2.8413,-2.86,-2.86,-2.8574,-2.8492,-2.7779,-2.7255,-2.6904,-2.6487,-2.6241,-2.6202,-2.6202,-2.6202,-2.6202,-2.6202,-2.6202,-2.6202,-2.6202,-2.6202,-2.6168,-2.5811,-2.5612,-2.5484,-2.516,-2.4803,-2.4431,-2.4343,-2.4078,-2.376,-2.3638,-2.3595,-2.3595,-3.8477,-3.8896,-3.9152,-3.901,-3.9042,-3.9054,-3.8906,-3.8209,-3.798,-3.8782,-3.8534,-3.8457,-3.8858,-3.8897,-3.8906,-3.8951,-3.781,-3.7127,-3.7143,-3.6682,-3.6225,-3.5859,-3.5799,-3.5619,-3.5261,-3.5218,-3.5209,-3.5209,-3.5209,-3.5209,-3.5209,-3.5209,-3.5209,-3.5171,-3.435,-3.3995,-3.3975,-3.3509,-3.3299,-3.3295,-3.3355,-3.3304,-3.3152,-3.2813,-3.2876,-3.3091,-3.2651,-3.2779,-3.3091,-3.2632,-3.2247,-3.1953,-3.1953,-3.1403,-3.065,-3.0228,-2.9574,-2.9005,-2.9005,-2.9005,-2.9005,-2.9005,-2.9005,-2.8895,-2.8448,-2.8062,-2.7769,-2.7703,-2.7115,-2.6722,-2.709,-2.6851,-2.6722,-2.709,-2.7112,-2.709,-2.709,-2.7046,-2.7137,-2.7505,-2.7513,-2.7792,-2.8527,-2.86,-2.86,-2.86,-2.86,-2.8531,-2.8383,-2.7794,-2.7363,-2.7145,-2.6556,-2.624,-2.6202,-2.6202,-2.6202,-2.6202,-2.6202,-2.6202,-2.6202,-2.6202,-2.6079,-2.5883,-2.5612,-2.5294,-2.4942,-2.4719,-2.4354,-2.3973,-2.3973,-2.3809,-2.3595,-2.3595,-2.3595,-2.3595,-3.9245,-3.9364,-3.955,-4.0182,-3.9733,-3.9505,-4.0196,-3.9049,-3.8629,-4.011,-3.9661,-3.9489,-4.0225,-4.0301,-4.0301,-4.0301,-3.8839,-3.7921,-3.7974,-3.77,-3.7215,-3.6538,-3.65,-3.608,-3.5229,-3.5209,-3.5209,-3.5209,-3.5209,-3.5209,-3.5209,-3.5209,-3.5209,-3.5171,-3.4483,-3.4186,-3.4186,-3.4186,-3.4186,-3.4227,-3.4707,-3.4743,-3.4486,-3.4274,-3.4036,-3.3807,-3.3807,-3.3807,-3.3807,-3.3807,-3.3348,-3.2784,-3.2784,-3.2228,-3.1568,-3.1568,-3.054,-2.9354,-2.9354,-2.9262,-2.9152,-2.9023,-2.9005,-2.9005,-2.9005,-2.8473,-2.8172,-2.8858,-2.7904,-2.7181,-2.786,-2.742,-2.72,-2.786,-2.7915,-2.7887,-2.7887,-2.7812,-2.7699,-2.7519,-2.7489,-2.7725,-2.8364,-2.8419,-2.8473,-2.86,-2.86,-2.8453,-2.8102,-2.7686,-2.7437,-2.7301,-2.6607,-2.6203,-2.6202,-2.6202,-2.6202,-2.6202,-2.6202,-2.6202,-2.6202,-2.6202,-2.5937,-2.5503,-2.5446,-2.4981,-2.4281,-2.4219,-2.3952,-2.3595,-2.3595,-2.3595,-2.3595,-2.3595,-2.3595,-2.3595,-4.0185,-4.0179,-4.0172,-4.0269,-4.0194,-4.0157,-4.0282,-4.0072,-3.9995,-4.0263,-4.0186,-4.0148,-4.0282,-4.0301,-4.0301,-4.0301,-3.9374,-3.8801,-3.881,-3.7483,-3.6634,-3.6519,-3.65,-3.608,-3.5229,-3.5209,-3.5209,-3.5209,-3.5209,-3.5209,-3.5209,-3.5209,-3.5209,-3.519,-3.5076,-3.5018,-3.5018,-3.5018,-3.5018,-3.5002,-3.4935,-3.4743,-3.4486,-3.4274,-3.4036,-3.3807,-3.3807,-3.3807,-3.3807,-3.3807,-3.3715,-3.3605,-3.3605,-3.3073,-3.2399,-3.2399,-3.1751,-3.1017,-3.1017,-3.0522,-2.9861,-2.917,-2.9005,-2.9005,-2.9005,-2.8895,-2.8858,-2.8968,-2.8803,-2.8675,-2.8785,-2.8712,-2.8675,-2.8785,-2.8757,-2.8704,-2.8704,-2.8609,-2.827,-2.7567,-2.7453,-2.7453,-2.7586,-2.7586,-2.7876,-2.8545,-2.86,-2.8427,-2.8037,-2.7634,-2.7255,-2.6906,-2.6487,-2.6276,-2.6202,-2.6202,-2.6202,-2.6202,-2.6202,-2.6202,-2.6202,-2.6202,-2.5937,-2.5484,-2.5141,-2.4739,-2.4261,-2.3867,-2.3659,-2.3595,-2.3595,-2.3595,-2.3595,-2.3595,-2.3595,-2.3595,-4.0362,-4.0325,-4.0307,-4.0309,-4.0301,-4.0301,-4.0301,-4.0301,-4.0301,-4.0301,-4.0301,-4.0301,-4.0301,-4.0301,-4.0301,-4.0301,-3.9919,-3.969,-3.969,-3.8544,-3.7636,-3.7177,-3.7597,-3.7245,-3.5927,-3.5889,-3.566,-3.5209,-3.5209,-3.5209,-3.5209,-3.5209,-3.5209,-3.5209,-3.5209,-3.5209,-3.5209,-3.5209,-3.5209,-3.5174,-3.4992,-3.4743,-3.4486,-3.4274,-3.4036,-3.3807,-3.3807,-3.3807,-3.3807,-3.3807,-3.3807,-3.3807,-3.3807,-3.355,-3.3256,-3.3256,-3.2375,-3.1397,-3.1397,-3.114,-3.065,-2.9861,-2.9647,-2.9537,-2.9097,-2.9005,-2.8994,-2.8952,-2.894,-2.8929,-2.8912,-2.8881,-2.8881,-2.8881,-2.8846,-2.8779,-2.8779,-2.8712,-2.8505,-2.8142,-2.7683,-2.7405,-2.7405,-2.7405,-2.755,-2.793,-2.8364,-2.8388,-2.7872,-2.7589,-2.7192,-2.6657,-2.6382,-2.6222,-2.6202,-2.6202,-2.6202,-2.6202,-2.6202,-2.6202,-2.6202,-2.6202,-2.5844,-2.516,-2.4981,-2.4522,-2.3909,-2.3696,-2.3595,-2.3595,-2.3595,-2.3595,-2.3595,-2.3595,-2.3595,-2.3595,-4.0317,-4.0298,-4.0308,-4.0291,-4.0301,-4.0301,-4.0301,-4.0301,-4.0301,-4.0301,-4.0301,-4.0301,-4.0301,-4.0301,-4.0301,-4.0301,-4.011,-3.9995,-3.9995,-3.9374,-3.8706,-3.8037,-3.8457,-3.819,-3.7092,-3.6882,-3.6366,-3.5488,-3.5488,-3.5392,-3.5209,-3.5209,-3.5209,-3.5209,-3.5209,-3.5209,-3.5209,-3.5209,-3.5209,-3.5174,-3.4992,-3.4743,-3.4486,-3.4274,-3.4036,-3.3807,-3.3807,-3.3807,-3.3807,-3.3807,-3.3807,-3.3807,-3.3807,-3.3807,-3.3807,-3.3807,-3.2926,-3.1916,-3.1733,-3.1678,-3.1494,-3.0687,-3.0326,-3.002,-2.9397,-2.9099,-2.8947,-2.8893,-2.8881,-2.8858,-2.881,-2.8798,-2.8798,-2.8798,-2.8731,-2.8694,-2.8694,-2.865,-2.8527,-2.8346,-2.7785,-2.7405,-2.7405,-2.7405,-2.7477,-2.7658,-2.8256,-2.8322,-2.7669,-2.753,-2.7161,-2.645,-2.6291,-2.6202,-2.6202,-2.6202,-2.6202,-2.6202,-2.6202,-2.6202,-2.6202,-2.6202,-2.5717,-2.4902,-2.4902,-2.442,-2.3595,-2.3595,-2.3595,-2.3595,-2.3595,-2.3595,-2.3595,-2.3595,-2.3595,-2.3588,-4.0291,-4.0291,-4.031,-4.0301,-4.0301,-4.0301,-4.0301,-4.0301,-4.0301,-4.0301,-4.0301,-4.0301,-4.0301,-4.0301,-4.0301,-4.0301,-3.9565,-3.9107,-3.9107,-3.9049,-3.8973,-3.8916,-3.819,-3.8113,-3.8801,-3.8018,-3.7215,-3.6405,-3.6405,-3.5984,-3.5209,-3.5209,-3.5209,-3.5209,-3.5209,-3.5209,-3.5209,-3.5209,-3.5209,-3.5174,-3.4992,-3.4743,-3.4486,-3.4274,-3.4036,-3.3807,-3.3807,-3.3807,-3.3807,-3.3807,-3.3807,-3.3807,-3.3807,-3.3807,-3.3807,-3.3807,-3.3715,-3.3458,-3.2711,-3.2509,-3.232,-3.1513,-3.0705,-3.01,-3.0027,-2.9399,-2.881,-2.8798,-2.8798,-2.8798,-2.8798,-2.8798,-2.8798,-2.8798,-2.8731,-2.8694,-2.8694,-2.865,-2.8328,-2.7586,-2.7441,-2.7405,-2.7405,-2.7405,-2.7713,-2.8455,-2.8582,-2.8264,-2.7454,-2.7409,-2.7035,-2.6239,-2.622,-2.6202,-2.6202,-2.6202,-2.6202,-2.6202,-2.6202,-2.6202,-2.6202,-2.6202,-2.5717,-2.4902,-2.4902,-2.442,-2.3595,-2.3595,-2.3595,-2.3595,-2.3595,-2.3595,-2.3595,-2.3595,-2.3595,-2.3588,-4.0301,-4.0301,-4.0301,-4.0301,-4.0301,-4.0301,-4.0301,-4.0301,-4.0301,-4.0301,-4.0301,-4.0301,-4.0301,-4.0301,-4.0301,-4.0301,-3.9995,-3.9804,-3.9804,-3.9804,-3.9804,-3.9804,-3.9489,-3.9221,-3.9011,-3.8686,-3.8094,-3.7234,-3.6729,-3.6328,-3.5984,-3.545,-3.5209,-3.5209,-3.5209,-3.5209,-3.5209,-3.5209,-3.5209,-3.5166,-3.4793,-3.4582,-3.4486,-3.4274,-3.4036,-3.3815,-3.3985,-3.3934,-3.3807,-3.3807,-3.3807,-3.3807,-3.3807,-3.3807,-3.3807,-3.3807,-3.3807,-3.3733,-3.344,-3.3308,-3.3098,-3.2279,-3.1788,-3.1274,-3.0282,-2.9783,-2.9399,-2.884,-2.8749,-2.8737,-2.8675,-2.8675,-2.8675,-2.8675,-2.865,-2.8637,-2.8637,-2.8612,-2.8491,-2.8183,-2.7695,-2.7405,-2.7405,-2.7405,-2.7532,-2.7821,-2.8121,-2.8047,-2.7497,-2.6986,-2.6556,-2.6203,-2.6202,-2.6202,-2.6202,-2.6202,-2.6202,-2.6202,-2.6202,-2.6202,-2.6185,-2.5901,-2.546,-2.4883,-2.4655,-2.4168,-2.3595,-2.3595,-2.3595,-2.3595,-2.3595,-2.3595,-2.3595,-2.3595,-2.3566,-2.3516,-4.0301,-4.0301,-4.0301,-4.0301,-4.0301,-4.0301,-4.0301,-4.0301,-4.0301,-4.0301,-4.0301,-4.0301,-4.0301,-4.0301,-4.0301,-4.0301,-4.0301,-4.0301,-4.0301,-4.0301,-4.0301,-4.0301,-4.0301,-4.0014,-3.9431,-3.9412,-3.8973,-3.8113,-3.7559,-3.713,-3.6863,-3.626,-3.5993,-3.5993,-3.5993,-3.5993,-3.5974,-3.5725,-3.5602,-3.5539,-3.4798,-3.4508,-3.4486,-3.4274,-3.4086,-3.3947,-3.4136,-3.4086,-3.3908,-3.3815,-3.3807,-3.3807,-3.3807,-3.3807,-3.3807,-3.3807,-3.3807,-3.3807,-3.3807,-3.3739,-3.3543,-3.3008,-3.263,-3.2015,-3.0644,-3.0139,-2.9701,-2.8833,-2.8675,-2.8644,-2.8612,-2.86,-2.86,-2.86,-2.86,-2.86,-2.86,-2.86,-2.86,-2.86,-2.8111,-2.7785,-2.7785,-2.7785,-2.7785,-2.7785,-2.7968,-2.7833,-2.7315,-2.6641,-2.6258,-2.6202,-2.6202,-2.6202,-2.6202,-2.6202,-2.6202,-2.6202,-2.6202,-2.6202,-2.6168,-2.5703,-2.5275,-2.4883,-2.4472,-2.4036,-2.3595,-2.3595,-2.3595,-2.3595,-2.3595,-2.3595,-2.361,-2.3588,-2.3538,-2.3466,-4.0301,-4.0301,-4.0301,-4.0301,-4.0301,-4.0301,-4.0301,-4.0301,-4.0301,-4.0301,-4.0301,-4.0301,-4.0301,-4.0301,-4.0301,-4.0301,-4.0301,-4.0301,-4.0301,-4.0301,-4.0301,-4.0301,-4.0301,-4.0301,-4.0301,-4.0301,-3.9881,-3.9011,-3.9011,-3.8553,-3.7712,-3.7693,-3.7693,-3.7693,-3.7693,-3.7693,-3.7655,-3.6844,-3.6519,-3.637,-3.5054,-3.4508,-3.4486,-3.4286,-3.4209,-3.4209,-3.4209,-3.4209,-3.4161,-3.3881,-3.3807,-3.3807,-3.3807,-3.3807,-3.3807,-3.3807,-3.3807,-3.3807,-3.3807,-3.3698,-3.3619,-3.3684,-3.2985,-3.2106,-3.1288,-3.0435,-2.9585,-2.8763,-2.86,-2.86,-2.86,-2.86,-2.86,-2.86,-2.86,-2.86,-2.86,-2.86,-2.86,-2.86,-2.86,-2.86,-2.86,-2.86,-2.86,-2.86,-2.8219,-2.7634,-2.6841,-2.6434,-2.6202,-2.6202,-2.6202,-2.6202,-2.6202,-2.6202,-2.6202,-2.6202,-2.6202,-2.6202,-2.6168,-2.5703,-2.5275,-2.4883,-2.4472,-2.4015,-2.3595,-2.3595,-2.3595,-2.3595,-2.3595,-2.3595,-2.3588,-2.3516,-2.3509,-2.3466,-4.0301,-4.0301,-4.0301,-4.0301,-4.0301,-4.0301,-4.0301,-4.0301,-4.0301,-4.0301,-4.0301,-4.0301,-4.0301,-4.0301,-4.0301,-4.0301,-4.0301,-4.0301,-4.0301,-4.0301,-4.0301,-4.0301,-4.0301,-4.0301,-4.0301,-4.0301,-4.0167,-3.99,-3.9298,-3.8877,-3.8591,-3.798,-3.7693,-3.7693,-3.7693,-3.7693,-3.7674,-3.7445,-3.7024,-3.6445,-3.5856,-3.5293,-3.4773,-3.4703,-3.4569,-3.4398,-3.4398,-3.4314,-3.4161,-3.3881,-3.3807,-3.3807,-3.3807,-3.3807,-3.3793,-3.3739,-3.3726,-3.3726,-3.3671,-3.3605,-3.3549,-3.3601,-3.3338,-3.2712,-3.1334,-3.0831,-3.0242,-2.8871,-2.86,-2.86,-2.86,-2.86,-2.86,-2.86,-2.86,-2.86,-2.86,-2.86,-2.86,-2.86,-2.86,-2.86,-2.86,-2.86,-2.8574,-2.8518,-2.7897,-2.7192,-2.6487,-2.6293,-2.6202,-2.6202,-2.6202,-2.6202,-2.6202,-2.6202,-2.6202,-2.6202,-2.6202,-2.6202,-2.6168,-2.5422,-2.502,-2.4863,-2.4126,-2.3724,-2.3595,-2.3595,-2.3595,-2.3595,-2.3595,-2.3595,-2.3588,-2.3516,-2.3444,-2.3319,-4.0301,-4.0301,-4.0301,-4.0301,-4.0301,-4.0301,-4.0301,-4.0301,-4.0301,-4.0301,-4.0301,-4.0301,-4.0301,-4.0301,-4.0301,-4.0301,-4.0301,-4.0301,-4.0301,-4.0301,-4.0301,-4.0301,-4.0301,-4.0301,-4.0301,-4.0301,-4.0301,-4.0301,-3.9766,-3.9508,-3.9508,-3.8973,-3.8725,-3.8725,-3.8725,-3.8725,-3.8706,-3.8362,-3.7941,-3.7408,-3.6473,-3.5817,-3.5344,-3.5022,-3.4793,-3.4663,-3.4663,-3.4516,-3.4267,-3.403,-3.3881,-3.3807,-3.3807,-3.3807,-3.3793,-3.3726,-3.3698,-3.3684,-3.3619,-3.3549,-3.3506,-3.3549,-3.3481,-3.2977,-3.1379,-3.0998,-3.0532,-2.8925,-2.86,-2.86,-2.86,-2.86,-2.86,-2.86,-2.86,-2.86,-2.86,-2.86,-2.86,-2.86,-2.86,-2.86,-2.86,-2.8479,-2.8259,-2.7894,-2.7424,-2.6889,-2.6294,-2.6221,-2.6202,-2.6202,-2.6202,-2.6202,-2.6202,-2.6202,-2.6202,-2.6202,-2.6202,-2.6097,-2.5901,-2.5211,-2.4803,-2.4619,-2.3915,-2.3595,-2.3595,-2.3595,-2.3595,-2.3595,-2.3595,-2.3595,-2.3588,-2.3473,-2.3363,-2.3275,-4.0301,-4.0301,-4.0301,-4.0301,-4.0301,-4.0301,-4.0301,-4.0301,-4.0301,-4.0301,-4.0301,-4.0301,-4.0301,-4.0301,-4.0301,-4.0301,-4.0301,-4.0301,-4.0301,-4.0301,-4.0301,-4.0301,-4.0301,-4.0301,-4.0301,-4.0301,-4.0301,-4.0301,-4.0301,-4.0301,-4.0301,-4.0301,-4.0301,-4.0301,-4.0301,-4.0301,-4.0244,-3.9451,-3.9069,-3.884,-3.7062,-3.6302,-3.6169,-3.5353,-3.505,-3.5031,-3.4936,-3.4733,-3.4464,-3.4239,-3.3998,-3.3807,-3.3807,-3.3807,-3.3793,-3.3726,-3.3698,-3.3671,-3.3619,-3.3534,-3.3495,-3.3495,-3.3452,-3.2977,-3.1379,-3.0998,-3.0532,-2.8925,-2.86,-2.86,-2.86,-2.86,-2.86,-2.86,-2.86,-2.86,-2.86,-2.86,-2.86,-2.86,-2.8574,-2.8562,-2.8562,-2.8242,-2.773,-2.6952,-2.6888,-2.6691,-2.6221,-2.6202,-2.6202,-2.6202,-2.6202,-2.6202,-2.6202,-2.6202,-2.6202,-2.6202,-2.6202,-2.5937,-2.5484,-2.5082,-2.4679,-2.4261,-2.3803,-2.3595,-2.3595,-2.3595,-2.3595,-2.3595,-2.3595,-2.361,-2.3566,-2.3385,-2.3297,-2.3253,-4.0301,-4.0301,-4.0301,-4.0301,-4.0301,-4.0301,-4.0301,-4.0301,-4.0301,-4.0301,-4.0301,-4.0301,-4.0301,-4.0301,-4.0301,-4.0301,-4.0301,-4.0301,-4.0301,-4.0301,-4.0301,-4.0301,-4.0301,-4.0301,-4.0301,-4.0301,-4.0301,-4.0301,-4.0301,-4.0301,-4.0301,-4.0301,-4.0301,-4.0301,-4.0301,-4.0301,-4.0282,-4.0091,-3.9623,-3.8964,-3.8546,-3.7955,-3.7268,-3.6467,-3.6153,-3.6041,-3.5192,-3.4733,-3.4442,-3.403,-3.386,-3.3807,-3.3807,-3.3807,-3.3793,-3.3726,-3.3657,-3.3619,-3.3534,-3.3481,-3.3422,-3.3422,-3.3408,-3.2977,-3.1379,-3.0998,-3.0532,-2.8925,-2.86,-2.86,-2.86,-2.86,-2.86,-2.86,-2.86,-2.86,-2.86,-2.86,-2.86,-2.86,-2.8383,-2.8215,-2.8215,-2.7911,-2.7487,-2.6953,-2.6856,-2.6641,-2.6221,-2.6202,-2.6202,-2.6202,-2.6202,-2.6202,-2.6202,-2.6202,-2.6202,-2.6202,-2.6202,-2.5937,-2.5484,-2.5082,-2.4679,-2.4261,-2.3803,-2.3595,-2.3595,-2.3595,-2.3595,-2.3595,-2.3595,-2.3566,-2.3494,-2.3363,-2.3246,-2.3127,-4.0301,-4.0301,-4.0301,-4.0301,-4.0301,-4.0301,-4.0301,-4.0301,-4.0301,-4.0301,-4.0301,-4.0301,-4.0301,-4.0301,-4.0301,-4.0301,-4.0301,-4.0301,-4.0301,-4.0301,-4.0301,-4.0301,-4.0301,-4.0301,-4.0301,-4.0301,-4.0301,-4.0301,-4.0301,-4.0301,-4.0301,-4.0301,-4.0301,-4.0301,-4.0301,-4.0301,-4.0301,-4.0301,-4.0034,-3.9584,-3.9164,-3.8725,-3.8228,-3.7387,-3.7082,-3.6988,-3.6442,-3.5759,-3.5042,-3.4544,-3.4119,-3.3807,-3.3807,-3.3807,-3.3793,-3.3726,-3.3643,-3.3591,-3.3524,-3.3452,-3.3393,-3.3393,-3.3393,-3.3085,-3.1836,-3.1288,-3.0749,-2.9916,-2.9125,-2.8726,-2.9101,-2.9174,-2.9047,-2.8654,-2.8907,-2.9047,-2.8654,-2.86,-2.86,-2.86,-2.8295,-2.796,-2.7648,-2.7474,-2.7148,-2.664,-2.6573,-2.6452,-2.6203,-2.6202,-2.6202,-2.6202,-2.6202,-2.6202,-2.6202,-2.6202,-2.6202,-2.6202,-2.5972,-2.5629,-2.5198,-2.4799,-2.439,-2.3952,-2.3717,-2.3595,-2.3595,-2.3595,-2.3595,-2.3595,-2.3595,-2.3545,-2.3487,-2.3341,-2.3179,-2.2992,-4.0301,-4.0301,-4.0301,-4.0301,-4.0301,-4.0301,-4.0301,-4.0301,-4.0301,-4.0301,-4.0301,-4.0301,-4.0301,-4.0301,-4.0301,-4.0301,-4.0301,-4.0301,-4.0301,-4.0301,-4.0301,-4.0301,-4.0301,-4.0301,-4.0301,-4.0301,-4.0301,-4.0301,-4.0301,-4.0301,-4.0301,-4.0301,-4.0301,-4.0301,-4.0301,-4.0301,-4.0301,-4.0301,-4.0301,-4.0244,-3.9508,-3.9221,-3.9126,-3.8247,-3.7922,-3.7903,-3.775,-3.6976,-3.5915,-3.5393,-3.478,-3.4229,-3.4229,-3.4229,-3.4197,-3.3982,-3.3858,-3.3769,-3.3571,-3.3466,-3.3408,-3.3393,-3.3393,-3.323,-3.256,-3.1781,-3.1179,-3.1034,-2.9934,-2.921,-2.9875,-2.9893,-2.9585,-2.8907,-2.9246,-2.9355,-2.869,-2.86,-2.86,-2.86,-2.8242,-2.7751,-2.7069,-2.7006,-2.6808,-2.6348,-2.6295,-2.6277,-2.6203,-2.6202,-2.6202,-2.6202,-2.6202,-2.6202,-2.6202,-2.6202,-2.6202,-2.6185,-2.5647,-2.5218,-2.4883,-2.4492,-2.4036,-2.3595,-2.3595,-2.3595,-2.3595,-2.3595,-2.3595,-2.3595,-2.3588,-2.3523,-2.3466,-2.3297,-2.309,-2.2888,-4.0301,-4.0301,-4.0301,-4.0301,-4.0301,-4.0301,-4.0301,-4.0301,-4.0301,-4.0301,-4.0301,-4.0301,-4.0301,-4.0301,-4.0301,-4.0301,-4.0301,-4.0301,-4.0301,-4.0301,-4.0301,-4.0301,-4.0301,-4.0301,-4.0301,-4.0301,-4.0301,-4.0301,-4.0301,-4.0301,-4.0301,-4.0301,-4.0301,-4.0301,-4.0301,-4.0301,-4.0301,-4.0301,-4.0301,-4.0282,-4.0167,-4.011,-4.0034,-3.9164,-3.882,-3.8725,-3.796,-3.7327,-3.6766,-3.6293,-3.6046,-3.5954,-3.5954,-3.5954,-3.5807,-3.5045,-3.4783,-3.4562,-3.3788,-3.3534,-3.3481,-3.3408,-3.3393,-3.3375,-3.3266,-3.2614,-3.1836,-3.1143,-3.0822,-3.0695,-3.0817,-3.0273,-2.9766,-2.9658,-2.9156,-2.8726,-2.8618,-2.86,-2.86,-2.86,-2.7992,-2.733,-2.6725,-2.6623,-2.6503,-2.6313,-2.6295,-2.6277,-2.6203,-2.6202,-2.6202,-2.6202,-2.6202,-2.6202,-2.6202,-2.6202,-2.6202,-2.6185,-2.5365,-2.4962,-2.4883,-2.4492,-2.4036,-2.3595,-2.3595,-2.3595,-2.3595,-2.3595,-2.3595,-2.3595,-2.3538,-2.3429,-2.3297,-2.3045,-2.2933,-2.2888,-4.0301,-4.0301,-4.0301,-4.0301,-4.0301,-4.0301,-4.0301,-4.0301,-4.0301,-4.0301,-4.0301,-4.0301,-4.0301,-4.0301,-4.0301,-4.0301,-4.0301,-4.0301,-4.0301,-4.0301,-4.0301,-4.0301,-4.0301,-4.0301,-4.0301,-4.0301,-4.0301,-4.0301,-4.0301,-4.0301,-4.0301,-4.0301,-4.0301,-4.0301,-4.0301,-4.0301,-4.0301,-4.0301,-4.0301,-4.0301,-4.0301,-4.0301,-4.0263,-3.9862,-3.9728,-3.9643,-3.8948,-3.8188,-3.7448,-3.7086,-3.6684,-3.6303,-3.6303,-3.6303,-3.6211,-3.575,-3.5253,-3.4743,-3.4328,-3.384,-3.3437,-3.3411,-3.3393,-3.3393,-3.3393,-3.314,-3.2777,-3.2415,-3.1618,-3.1143,-3.1596,-3.1365,-3.0853,-2.9947,-2.988,-2.9644,-2.8726,-2.86,-2.8518,-2.8339,-2.7833,-2.7315,-2.6824,-2.6538,-2.6347,-2.6258,-2.624,-2.6222,-2.6202,-2.6202,-2.6202,-2.6202,-2.6202,-2.6202,-2.6202,-2.6202,-2.6202,-2.6185,-2.5323,-2.4902,-2.4883,-2.4209,-2.3803,-2.3595,-2.3595,-2.3595,-2.3595,-2.3595,-2.3595,-2.3595,-2.3516,-2.3378,-2.3157,-2.2955,-2.2888,-2.2888]},{"header":{"parameterUnit":"m.s-1","parameterCategory":1,"la1":30.6,"la2":28.766,"lo1":-90.7593,"lo2":-88.6598,"dy":0.0162,"dx":0.0183,"nx":116,"ny":114,"refTime":"2024-06-28T06:00:00:Z","depth":0,"parameterNumber":3,"parameterNumberName":"V-component_of_WINDS"},"data":[0.0,0.0,0.0,0.0,0.0,0.0,0.0,0.0,0.0,0.0,0.0,0.0,0.0,0.0,0.0,0.0,0.0,0.0,0.0,0.0,0.0,0.0,0.0,0.0,0.0,0.0,0.0,0.0,0.0,0.0,0.0,0.0,0.0,0.0,0.0,0.0,0.0,0.0,0.0,0.0,0.0,0.0,0.0,0.0,0.0,0.0,0.0,0.0,0.0,0.0,0.0,0.0,0.0,0.0,0.0,0.0,0.0,0.0,0.0,0.0,0.0,0.0,0.0,0.0,0.0,0.0,0.0,0.0,0.0,0.0,0.0,0.0,0.0,0.0,0.0,0.0,0.0,0.0,0.0,0.0,0.0,0.0,0.0,0.0,0.0,0.0,0.0,0.0,0.0,0.0,0.0,0.0,0.0,0.0,0.0,0.0,0.0,0.0,0.0,0.0,0.0,0.0,0.0,0.0,0.0,0.0,0.0,0.0,0.0,0.0,0.0,0.0,0.0,0.0,0.0,0.0,0.0,0.0,0.0,0.0,0.0,0.0,0.0,0.0,0.0,0.0,0.0,0.0,0.0,0.0,0.0,0.0,0.0,0.0,0.0,0.0,0.0,0.0,0.0,0.0,0.0,0.0,0.0,0.0,0.0,0.0,0.0,0.0,0.0,0.0,0.0,0.0,0.0,0.0,0.0,0.0,0.0,0.0,0.0,0.0,0.0,0.0,0.0,0.0,0.0,0.0,0.0,0.0,0.0,0.0,0.0,0.0,0.0,0.0,0.0,0.0,0.0,0.0,0.0,0.0,0.0,0.0,0.0,0.0,0.0,0.0,0.0,0.0,0.0,0.0,0.0,0.0,0.0,0.0,0.0,0.0,0.0,0.0,0.0,0.0,0.0,0.0,0.0,0.0,0.0,0.0,0.0,0.0,0.0,0.0,0.0,0.0,0.0,0.0,0.0,0.0,0.0,0.0,0.0,0.0,0.0,0.0,0.0,0.0,0.0,0.0,0.0,0.0,0.0,0.0,0.0,0.0,0.0,0.0,0.0,0.0,0.0,0.0,0.0,0.0,0.0,0.0,0.0,0.0,0.0,0.0,0.0,0.0,0.0,0.0,0.0,0.0,0.0,0.0,0.0,0.0,0.0,0.0,0.0,0.0,0.0,0.0,0.0,0.0,0.0,0.0,0.0,0.0,0.0,0.0,0.0,0.0,0.0,0.0,0.0,0.0,0.0,0.0,0.0,0.0,0.0,0.0,0.0,0.0,0.0,0.0,0.0,0.0,0.0,0.0,0.0,0.0,0.0,0.0,0.0,0.0,0.0,0.0,0.0,0.0,0.0,0.0,0.0,0.0,0.0,0.0,0.0,0.0,0.0,0.0,0.0,0.0,0.0,0.0,0.0,0.0,0.0,0.0,0.0,0.0,0.0,0.0,0.0,0.0,0.0,0.0,0.0,0.0,0.0,0.0,0.0,0.0,0.0,0.0,0.0,0.0,0.0,0.0,0.0,0.0,0.0,0.0,0.0,0.0,0.0,0.0,0.0,0.0,0.0,0.0,0.0,0.0,0.0,0.0,0.0,0.0,0.0,0.0,0.0,0.0,0.0,0.0,0.0,0.0,0.0,0.0,0.0,0.0,0.0,0.0,0.0,0.0,0.0,0.0,0.0,0.0,0.0,0.0,0.0,0.0,0.0,0.0,0.0,0.0,0.0,0.0,0.0,0.0,0.0,0.0,0.0,0.0,0.0,0.0,0.0,0.0,0.0,0.0,0.0,0.0,0.0,0.0,0.0,0.0,0.0,0.0,0.0,0.0,0.0,0.0,0.0,0.0,0.0,0.0,0.0,0.0,0.0,0.0,0.0,0.0,0.0,0.0,0.0,0.0,0.0,0.0,0.0,0.0,0.0,0.0,0.0,0.0,0.0,0.0,0.0,0.0,0.0,0.0,0.0,0.0,0.0,0.0,0.0,0.0,0.0,0.0,0.0,0.0,0.0,0.0,0.0,0.0,0.0,0.0,0.0,0.0,0.0,0.0,0.0,0.0,0.0,0.0,0.0,0.0,0.0,0.0,0.0,0.0,0.0,0.0,0.0,0.0,0.0,0.0,0.0,0.0,0.0,0.0,0.0,0.0,0.0,0.0,0.0,0.0,0.0,0.0,0.0,0.0,0.0,0.0,0.0,0.0,0.0,0.0,0.0,0.0,0.0,0.0,0.0,0.0,0.0,0.0,0.0,0.0,0.0,0.0,0.0,0.0,0.0,0.0,0.0,0.0,0.0,0.0,0.0,0.0,0.0,0.0,0.0,0.0,0.0,0.0,0.0,0.0,0.0,0.0,0.0,0.0,0.0,0.0,0.0,0.0,0.0,0.0,0.0,0.0,0.0,0.0,0.0,0.0,0.0,0.0,0.0,0.0,0.0,0.0,0.0,0.0,0.0,0.0,0.0,0.0,0.0,0.0,0.0,0.0,0.0,0.0,0.0,0.0,0.0,0.0,0.0,0.0,0.0,0.0,0.0,0.0,0.0,0.0,0.0,0.0,0.0,0.0,0.0,0.0,0.0,0.0,0.0,0.0,0.0,0.0,0.0,0.0,0.0,0.0,0.0,0.0,0.0,0.0,0.0,0.0,0.0,0.0,0.0,0.0,0.0,0.0,0.0,0.0,0.0,0.0,0.0,0.0,0.0,0.0,0.0,0.0,0.0,0.0,0.0,0.0,0.0,0.0,0.0,0.0,0.0,0.0,0.0,0.0,0.0,0.0,0.0,0.0,0.0,0.0,0.0,0.0,0.0,0.0,0.0,0.0,0.0,0.0,0.0,0.0,0.0,0.0,0.0,0.0,0.0,0.0,0.0,0.0,0.0,0.0,0.0,0.0,0.0,0.0,0.0,0.0,0.0,0.0,0.0,0.0,0.0,0.0,0.0,0.0,0.0,0.0,0.0,0.0,0.0,0.0,0.0,0.0,0.0,0.0,0.0,0.0,0.0,0.0,0.0,0.0,0.0,0.0,0.0,0.0,0.0,0.0,0.0,0.0,0.0,0.0,0.0,0.0,0.0,0.0,0.0,0.0,0.0,0.0,0.0,0.0,0.0,0.0,0.0,0.0,0.0,0.0,0.0,0.0,0.0,0.0,0.0,0.0,0.0,0.0,0.0,0.0,0.0,0.0,0.0,0.0,0.0,0.0,0.0,0.0,0.0,0.0,0.0,0.0,0.0,0.0,0.0,0.0,0.0,0.0,0.0,0.0,0.0,0.0,0.0,0.0,0.0,0.0,0.0,0.0,0.0,0.0,0.0,0.0,0.0,0.0,0.0,0.0,0.0,0.0,0.0,0.0,0.0,0.0,0.0,0.0,0.0,0.0,0.0,0.0,0.0,0.0,0.0,0.0,0.0,0.0,0.0,0.0,0.0,0.0,0.0,0.0,0.0,0.0,0.0,0.0,0.0,0.0,0.0,0.0,0.0,0.0,0.0,0.0,0.0,0.0,0.0,0.0,0.0,0.0,0.0,0.0,0.0,0.0,0.0,0.0,0.0,0.0,0.0,0.0,0.0,0.0,0.0,0.0,0.0,0.0,0.0,0.0,0.0,0.0,0.0,0.0,0.0,0.0,0.0,0.0,0.0,0.0,0.0,0.0,0.0,0.0,0.0,0.0,0.0,0.0,0.0,0.0,0.0,0.0,0.0,0.0,0.0,0.0,0.0,0.0,0.0,0.0,0.0,0.0,0.0,0.0,0.0,0.0,0.0,0.0,0.0,0.0,0.0,0.0,0.0,0.0,0.0,0.0,0.0,0.0,0.0,0.0,0.0,0.0,0.0,0.0,0.0,0.0,0.0,0.0,0.0,0.0,0.0,0.0,0.0,0.0,0.0,0.0,0.0,0.0,0.0,0.0,0.0,0.0,0.0,0.0,0.0,0.0,0.0,0.0,0.0,0.0,0.0,0.0,0.0,0.0,0.0,0.0,0.0,0.0,0.0,0.0,0.0,0.0,0.0,0.0,0.0,0.0,0.0,0.0,0.0,0.0,0.0,0.0,0.0,0.0,0.0,0.0,0.0,0.0,0.0,0.0,0.0,0.0,0.0,0.0,0.0,0.0,0.0,0.0,0.0,0.0,0.0,0.0,0.0,0.0,0.0,0.0,0.0,0.0,0.0,0.0,0.0,0.0,0.0,0.0,0.0,0.0,0.0,0.0,0.0,0.0,0.0,0.0,0.0,0.0,0.0,0.0,0.0,0.0,0.0,0.0,0.0,0.0,0.0,0.0,0.0,0.0,0.0,0.0,0.0,0.0,0.0,0.0,0.0,0.0,0.0,0.0,0.0,0.0,0.0,0.0,0.0,0.0,0.0,0.0,0.0,0.0,0.0,0.0,0.0,0.0,0.0,0.0,0.0,0.0,0.0,0.0,0.0,0.0,0.0,0.0,0.0,0.0,0.0,0.0,0.0,0.0,0.0,0.0,0.0,0.0,0.0,0.0,0.0,0.0,0.0,0.0,0.0,0.0,0.0,0.0,0.0,0.0,0.0,0.0,0.0,0.0,0.0,0.0,0.0,0.0,0.0,0.0,0.0,0.0,0.0,0.0,0.0,0.0,0.0,0.0,0.0,0.0,0.0,0.0,0.0,0.0,0.0,0.0,0.0,0.0,0.0,0.0,0.0,0.0,0.0,0.0,0.0,0.0,0.0,0.0,0.0,0.0,0.0,0.0,0.0,0.0,0.0,0.0,0.0,0.0,0.0,0.0,0.0,0.0,0.0,0.0,0.0,0.0,0.0,0.0,0.0,0.0,0.0,0.0,0.0,0.0,0.0,0.0,0.0,0.0,0.0,0.0,0.0,0.0,0.0,0.0,0.0,0.0,0.0,0.0,0.0,0.0,0.0,0.0,0.0,0.0,0.0,0.0,0.0,0.0,0.0,0.0,0.0,0.0,0.0,0.0,0.0,0.0,0.0,0.0,0.0,0.0,0.0,0.0,0.0,0.0,0.0,0.0,0.0,0.0,0.0,0.0,0.0,0.0,0.0,0.0,0.0,0.0,0.0,0.0,0.0,0.0,0.0,0.0,0.0,0.0,0.0,0.0,0.0,0.0,0.0,0.0,0.0,0.0,0.0,0.0,0.0,0.0,0.0,0.0,0.0,0.0,0.0,0.0,0.0,0.0,0.0,0.0,0.0,0.0,0.0,0.0,0.0,0.0,0.0,0.0,0.0,0.0,0.0,0.0,0.0,0.0,0.0,0.0,0.0,0.0,0.0,0.0,0.0,0.0,0.0,0.0,0.0,0.0,0.0,0.0,0.0,0.0,0.0,0.0,0.0,0.0,0.0,0.0,0.0,0.0,0.0,0.0,0.0,0.0,0.0,0.0,0.0,0.0,0.0,0.0,0.0,0.0,0.0,0.0,0.0,0.0,0.0,0.0,0.0,0.0,0.0,0.0,0.0,0.0,0.0,0.0,0.0,0.0,0.0,0.0,0.0,0.0,0.0,0.0,0.0,0.0,0.0,0.0,0.0,0.0,0.0,0.0,0.0,0.0,0.0,0.0,0.0,0.0,0.0,0.0,0.0,0.0,0.0,0.0,0.0,0.0,0.0,0.0,0.0,0.0,0.0,0.0,0.0,0.0,0.0,0.0,0.0,0.0,0.0,0.0,0.0,0.0,0.0,0.0,0.0,0.0,0.0,0.0,0.0,0.0,0.0,0.0,0.0,0.0,0.0,0.0,0.0,0.0,0.0,0.0,0.0,0.0,0.0,0.0,0.0,0.0,0.0,0.0,0.0,0.0,0.0,0.0,0.0,0.0,0.0,0.0,0.0,0.0,0.0,0.0,0.0,0.0,0.0,0.0,0.0,0.0,0.0,0.0,0.0,0.0,0.0,0.0,0.0,0.0,0.0,0.0,0.0,0.0,0.0,0.0,0.0,0.0,0.0,0.0,0.0,0.0,0.0,0.0,0.0,0.0,0.0,0.0,0.0,0.0,0.0,0.0,0.0,0.0,0.0,0.0,0.0,0.0,0.0,0.0,0.0,0.0,0.0,0.0,0.0,0.0,0.0,0.0,0.0,0.0,0.0,0.0,0.0,0.0,0.0,0.0,0.0,0.0,0.0,0.0,0.0,0.0,0.4887,0.4551,0.0,0.0,0.0,0.0,0.0,0.0,0.0,0.0,0.0,0.0,0.0,0.0,0.0,0.0,0.0,0.0,0.0,0.0,0.0,0.0,0.0,0.0,0.0,0.375,0.3964,0.411,0.4192,0.4207,0.4149,0.0,0.0,0.0,0.0,0.0,0.3788,0.3774,0.3751,0.3751,0.3751,0.3774,0.3788,0.3751,0.3663,0.3549,0.0,0.0,0.0,0.0,0.0,0.0,0.0,0.0,0.0,0.0,0.0,0.0,0.0,0.0,0.0,0.0,0.0,0.0,0.0,0.0,0.0,0.0,0.0,0.0,0.0,0.0,0.0,0.0,0.0,0.0,0.0,0.0,0.0,0.0,0.0,0.0,0.0,0.0,0.0,0.0,0.0,0.0,0.0,0.0,0.0,0.0,0.0,0.0,0.0,0.0,0.0,0.0,0.0,0.0,0.0,0.0,0.0,0.0,0.0,0.0,0.0,0.0,0.0,0.0,0.0,0.0,0.0,0.0,0.0,0.0,0.5113,0.4841,0.0,0.0,0.0,0.0,0.0,0.0,0.0,0.0,0.0,0.0,0.0,0.0,0.0,0.0,0.0,0.0,0.0,0.0,0.0,0.0,0.0,0.3305,0.3738,0.3918,0.4131,0.4409,0.4472,0.4479,0.4424,0.4276,0.0,0.0,0.0,0.3902,0.3928,0.3902,0.3946,0.4012,0.4034,0.4056,0.4056,0.3972,0.388,0.3766,0.3774,0.0,0.0,0.0,0.0,0.0,0.0,0.0,0.0,0.0,0.0,0.0,0.0,0.0,0.0,0.0,0.0,0.0,0.0,0.0,0.0,0.0,0.0,0.0,0.0,0.0,0.0,0.0,0.0,0.0,0.0,0.0,0.0,0.0,0.0,0.0,0.0,0.0,0.0,0.0,0.0,0.0,0.0,0.0,0.0,0.0,0.0,0.0,0.0,0.0,0.0,0.0,0.0,0.0,0.0,0.0,0.0,0.0,0.0,0.0,0.0,0.0,0.0,0.0,0.6179,0.6169,0.6133,0.5982,0.5875,0.5818,0.5476,0.5304,0.5266,0.5366,0.0,0.0,0.0,0.0,0.0,0.0,0.0,0.0,0.0,0.0,0.0,0.0,0.0,0.0,0.0,0.0,0.0,0.0,0.0,0.3448,0.3686,0.3943,0.4115,0.416,0.431,0.4328,0.4168,0.4118,0.0,0.0,0.3983,0.395,0.4064,0.395,0.4096,0.4508,0.4626,0.467,0.467,0.4262,0.0,0.4064,0.4338,0.4395,0.426,0.0,0.0,0.0,0.0,0.0,0.0,0.0,0.0,0.0,0.0,0.0,0.0,0.0,0.0,0.0,0.0,0.0,0.0,0.0,0.0,0.0,0.0,0.0,0.0,0.0,0.0,0.0,0.0,0.0,0.0,0.0,0.0,0.0,0.0,0.0,0.0,0.0,0.0,0.0,0.0,0.0,0.555,0.6553,0.0,0.0,0.0,0.0,0.0,0.0,0.0,0.0,0.0,0.0,0.0,0.0,0.0,0.6313,0.6349,0.6371,0.6382,0.6382,0.6369,0.6376,0.6376,0.6341,0.6233,0.6058,0.6168,0.0,0.4654,0.5315,0.0,0.0,0.0,0.0,0.0,0.0,0.0,0.0,0.0,0.0,0.0,0.0,0.0,0.0,0.0,0.0,0.0,0.0,0.0,0.0,0.0,0.4718,0.5064,0.5272,0.5436,0.5353,0.4907,0.0,0.0,0.4998,0.4427,0.4472,0.5203,0.4807,0.4797,0.527,0.5334,0.534,0.5291,0.5096,0.0,0.4644,0.5265,0.5173,0.4526,0.4766,0.0,0.0,0.0,0.0,0.0,0.0,0.0,0.0,0.0,0.0,0.0,0.0,0.0,0.0,0.0,0.0,0.0,0.0,0.0,0.0,0.0,0.0,0.0,0.0,0.0,0.0,0.0,0.0,0.0,0.0,0.0,0.0,0.0,0.0,0.0,0.0,0.0,0.0,0.0,0.5675,0.6271,0.6489,0.6582,0.6489,0.0,0.0,0.0,0.0,0.0,0.0,0.0,0.0,0.0,0.6491,0.6525,0.6631,0.6734,0.68,0.6847,0.6851,0.6834,0.6843,0.6843,0.6727,0.6652,0.654,0.6652,0.6298,0.5682,0.5816,0.5387,0.4731,0.0,0.0,0.0,0.0,0.561,0.5599,0.0,0.0,0.0,0.0,0.0,0.0,0.0,0.0,0.0,0.0,0.0,0.0,0.5012,0.5477,0.589,0.6135,0.6251,0.0,0.0,0.0,0.5563,0.5709,0.5042,0.5076,0.5973,0.5635,0.5637,0.6023,0.6023,0.6002,0.0,0.0,0.0,0.0,0.0,0.0,0.0,0.0,0.0,0.0,0.0,0.0,0.0,0.0,0.0,0.0,0.0,0.0,0.0,0.0,0.0,0.0,0.0,0.0,0.0,0.0,0.0,0.0,0.0,0.0,0.0,0.0,0.0,0.0,0.0,0.0,0.0,0.0,0.0,0.0,0.0,0.0,0.0,0.0,0.0,0.0,0.0,0.6161,0.6687,0.6542,0.7044,0.7108,0.0,0.0,0.0,0.0,0.0,0.0,0.7423,0.6913,0.6689,0.6912,0.6956,0.7053,0.7196,0.7297,0.7362,0.7366,0.7342,0.7339,0.7257,0.7134,0.7019,0.698,0.7019,0.6912,0.6637,0.6368,0.5985,0.562,0.5803,0.5728,0.5545,0.5728,0.5839,0.5875,0.0,0.0,0.0,0.0,0.0,0.0,0.0,0.0,0.0,0.0,0.0,0.5106,0.5674,0.0,0.5997,0.0,0.0,0.0,0.0,0.0,0.5793,0.5804,0.569,0.5658,0.5712,0.6179,0.6498,0.0,0.0,0.0,0.0,0.0,0.0,0.0,0.0,0.0,0.0,0.0,0.0,0.0,0.0,0.0,0.0,0.0,0.0,0.0,0.0,0.0,0.0,0.0,0.0,0.0,0.0,0.0,0.0,0.0,0.0,0.0,0.0,0.0,0.0,0.0,0.0,0.0,0.0,0.0,0.0,0.0,0.0,0.0,0.0,0.0,0.0,0.0,0.0,0.0,0.0,0.0,0.0,0.7353,0.7679,0.0,0.0,0.0,0.0,0.656,0.7128,0.7427,0.7044,0.7105,0.7272,0.7456,0.7626,0.7759,0.7759,0.7767,0.7771,0.7771,0.7784,0.7655,0.7484,0.7484,0.7369,0.7184,0.7369,0.7246,0.6877,0.6641,0.5969,0.5114,0.5806,0.5548,0.4856,0.5545,0.5914,0.6097,0.0,0.0,0.0,0.2883,0.303,0.3189,0.329,0.3822,0.4321,0.4665,0.5422,0.601,0.0,0.6641,0.6894,0.0,0.0,0.0,0.0,0.0,0.6539,0.6629,0.6168,0.6081,0.6459,0.6909,0.7168,0.0,0.0,0.0,0.0,0.0,0.0,0.0,0.0,0.0,0.0,0.0,0.0,0.0,0.0,0.0,0.0,0.0,0.0,0.0,0.0,0.0,0.0,0.0,0.0,0.0,0.0,0.0,0.0,0.0,0.0,0.0,0.0,0.0,0.0,0.0,0.0,0.0,0.0,0.0,0.0,0.0,0.0,0.0,0.0,0.0,0.0,0.0,0.0,0.0,0.0,0.0,0.0,0.6995,0.7564,0.0,0.7237,0.7927,0.8255,0.7902,0.8068,0.8245,0.8418,0.7988,0.7745,0.7825,0.789,0.7923,0.7923,0.7923,0.7923,0.7923,0.7923,0.789,0.7821,0.7751,0.7663,0.758,0.7533,0.7403,0.7296,0.7351,0.6919,0.6235,0.6502,0.6427,0.6156,0.6423,0.6539,0.6618,0.293,0.2979,0.0,0.2972,0.3182,0.3428,0.3644,0.4266,0.4851,0.5256,0.6052,0.6647,0.0,0.0,0.0,0.0,0.0,0.0,0.0,0.0,0.7143,0.7229,0.6846,0.6845,0.7268,0.7532,0.7738,0.0,0.0,0.0,0.0,0.0,0.0,0.0,0.0,0.0,0.0,0.0,0.0,0.0,0.0,0.0,0.554,0.0,0.0,0.0,0.0,0.0,0.0,0.0,0.0,0.0,0.0,0.0,0.0,0.0,0.0,0.0,0.0,0.0,0.0,0.0,0.0,0.0,0.0,0.0,0.0,0.0,0.0,0.0,0.0,0.0,0.0,0.0,0.0,0.0,0.0,0.6817,0.721,0.7194,0.7769,0.7964,0.7502,0.8168,0.8572,0.8399,0.8571,0.8746,0.8872,0.8396,0.8105,0.8105,0.8105,0.8105,0.8105,0.8105,0.8105,0.8105,0.8105,0.8073,0.8008,0.7898,0.7886,0.7877,0.7715,0.7663,0.7671,0.7797,0.7617,0.7188,0.7167,0.7077,0.6947,0.6947,0.6991,0.7022,0.2799,0.2961,0.3105,0.3105,0.3332,0.3713,0.4314,0.4591,0.5158,0.634,0.6626,0.6909,0.0,0.0,0.0,0.0,0.0,0.0,0.0,0.7572,0.7502,0.7502,0.7773,0.7943,0.8018,0.8032,0.0,0.0,0.0,0.0,0.0,0.0,0.0,0.0,0.0,0.0,0.0,0.0,0.0,0.0,0.0,0.0,0.6186,0.0,0.0,0.0,0.0,0.0,0.0,0.0,0.0,0.0,0.0,0.0,0.0,0.0,0.0,0.0,0.0,0.0,0.0,0.0,0.0,0.0,0.0,0.0,0.0,0.0,0.0,0.0,0.0,0.0,0.0,0.0,0.0,0.0,0.6461,0.6591,0.7086,0.8035,0.8305,0.8392,0.8401,0.9287,0.9288,0.7919,0.8555,0.8801,0.8322,0.83,0.83,0.83,0.83,0.83,0.83,0.83,0.83,0.83,0.83,0.8203,0.8028,0.8024,0.802,0.802,0.8012,0.8004,0.8004,0.8004,0.7906,0.7776,0.7743,0.7456,0.7107,0.7107,0.7163,0.7257,0.2858,0.299,0.3105,0.3159,0.3428,0.3815,0.4314,0.4989,0.5689,0.6401,0.6907,0.0,0.0,0.0,0.0,0.0,0.0,0.0,0.7341,0.7539,0.7642,0.7642,0.7961,0.0,0.8276,0.0,0.0,0.0,0.0,0.0,0.0,0.0,0.0,0.0,0.0,0.0,0.0,0.0,0.0,0.0,0.0,0.0,0.6757,0.0,0.0,0.0,0.0,0.0,0.0,0.0,0.0,0.0,0.0,0.0,0.0,0.0,0.0,0.0,0.0,0.0,0.0,0.0,0.0,0.0,0.0,0.0,0.0,0.0,0.0,0.0,0.0,0.0,0.0,0.0,0.6992,0.7119,0.6814,0.7055,0.7312,0.7472,0.8156,0.8447,0.8022,0.8732,0.8948,0.8205,0.8346,0.8493,0.8522,0.8535,0.8535,0.8535,0.8535,0.8535,0.8535,0.8535,0.8535,0.8535,0.8535,0.851,0.841,0.8276,0.8215,0.8199,0.7943,0.7869,0.7869,0.7869,0.7841,0.7804,0.7773,0.7601,0.7402,0.7402,0.7409,0.7522,0.2887,0.3039,0.3183,0.331,0.3535,0.3957,0.4694,0.5313,0.5974,0.6774,0.7181,0.0,0.0,0.0,0.0,0.0,0.0,0.7044,0.7202,0.7577,0.7833,0.7994,0.0,0.864,0.0,0.0,0.0,0.0,0.0,0.0,0.0,0.0,0.0,0.0,0.0,0.0,0.0,0.0,0.0,0.0,0.0,0.0,0.7343,0.7017,0.6803,0.6625,0.6268,0.6158,0.6184,0.6168,0.0,0.0,0.0,0.0,0.0,0.0,0.0,0.0,0.0,0.0,0.0,0.0,0.0,0.0,0.0,0.0,0.0,0.0,0.0,0.0,0.0,0.0,0.0,0.0,0.745,0.7685,0.7443,0.7454,0.7616,0.7917,0.8479,0.8723,0.833,0.8848,0.8905,0.8353,0.8292,0.8369,0.86,0.8612,0.8612,0.8612,0.8612,0.8612,0.8612,0.8612,0.8612,0.8612,0.8612,0.8612,0.8608,0.8498,0.8406,0.839,0.8147,0.8024,0.8016,0.7939,0.7865,0.7808,0.0,0.0,0.0,0.0,0.771,0.8055,0.2955,0.3114,0.3305,0.3484,0.364,0.4095,0.5155,0.5549,0.6081,0.7175,0.0,0.0,0.0,0.0,0.0,0.0,0.0,0.6855,0.0,0.0,0.0,0.84,0.8792,0.0,0.0,0.0,0.0,0.0,0.0,0.0,0.0,0.0,0.0,0.0,0.0,0.0,0.0,0.0,0.0,0.0,0.0,0.0,0.7888,0.7341,0.6963,0.6696,0.6701,0.6625,0.6551,0.6698,0.0,0.0,0.0,0.0,0.0,0.0,0.0,0.0,0.0,0.0,0.0,0.0,0.0,0.0,0.0,0.0,0.0,0.0,0.0,0.0,0.0,0.0,0.0,0.0,0.7932,0.8337,0.818,0.7843,0.7904,0.8751,0.9,0.9055,0.8916,0.9223,0.9105,0.8389,0.8321,0.8394,0.8604,0.8612,0.0,0.0,0.0,0.8612,0.8612,0.8612,0.8612,0.8612,0.8612,0.8612,0.8612,0.8612,0.86,0.8567,0.8341,0.8247,0.8215,0.8032,0.7866,0.7784,0.7894,0.7862,0.7747,0.7584,0.8016,0.8703,0.3305,0.347,0.3609,0.3645,0.3822,0.4134,0.474,0.5319,0.5974,0.6747,0.716,0.0,0.0,0.0,0.0,0.0,0.0,0.0,0.0,0.0,0.816,0.8546,0.0,0.0,0.0,0.0,0.0,0.0,0.0,0.0,0.0,0.0,0.0,0.0,0.0,0.0,0.0,0.0,0.0,0.0,0.0,0.0,0.8203,0.8087,0.8006,0.7941,0.7963,0.794,0.7963,0.8261,0.82,0.8044,0.8288,0.0,0.0,0.0,0.0,0.0,0.0,0.0,0.0,0.0,0.0,0.0,0.0,0.0,0.0,0.0,0.0,0.0,0.0,0.0,0.0,0.8129,0.8289,0.8458,0.8585,0.8382,0.8172,0.8063,0.8776,0.8962,0.8273,0.8953,0.9201,0.8586,0.8559,0.8571,0.8608,0.8612,0.8612,0.8612,0.8612,0.8612,0.8612,0.8612,0.8612,0.8612,0.8612,0.0,0.8612,0.8612,0.8531,0.8333,0.8146,0.7988,0.789,0.7663,0.7565,0.758,0.7573,0.7565,0.7571,0.7496,0.8016,0.8775,0.3647,0.3687,0.373,0.3842,0.3935,0.4273,0.5068,0.5492,0.5996,0.6838,0.7223,0.0,0.0,0.0,0.0,0.0,0.0,0.0,0.0,0.0,0.0,0.0,0.0,0.0,0.0,0.0,0.0,0.0,0.0,0.0,0.0,0.0,0.0,0.0,0.0,0.0,0.0,0.0,0.0,0.0,0.0,0.0,0.8912,0.8604,0.8459,0.8426,0.8558,0.8615,0.8689,0.8933,0.8933,0.8877,0.8957,0.9013,0.8929,0.0,0.0,0.0,0.0,0.0,0.0,0.0,0.0,0.0,0.0,0.0,0.0,0.0,0.0,0.7437,0.7745,0.0,0.816,0.8368,0.8486,0.8585,0.8685,0.8627,0.8441,0.814,0.8948,0.9128,0.8254,0.9105,0.9411,0.8648,0.8612,0.8612,0.8612,0.8612,0.8612,0.8612,0.8612,0.8612,0.8612,0.8612,0.8612,0.8612,0.8612,0.8563,0.843,0.843,0.8325,0.8142,0.7963,0.7877,0.7784,0.76,0.7484,0.7484,0.7484,0.7484,0.7561,0.794,0.8618,0.941,0.3876,0.3858,0.387,0.404,0.4065,0.4362,0.5283,0.5502,0.5867,0.6696,0.7055,0.7155,0.6977,0.7099,0.7088,0.0,0.0,0.0,0.0,0.0,0.0,0.0,0.0,0.0,0.0,0.0,0.0,0.0,0.0,0.0,0.0,0.0,0.0,0.0,0.0,0.0,0.0,0.0,0.0,0.0,0.0,0.0,0.9555,0.9058,0.8776,0.8676,0.8879,0.8997,0.9055,0.9235,0.9335,0.9413,0.9309,0.9332,0.9381,0.9355,0.96,0.0,0.0,0.0,0.0,0.0,0.0,0.0,0.0,0.7092,0.7108,0.7522,0.7622,0.7726,0.8106,0.8288,0.8415,0.8453,0.8595,0.8703,0.8703,0.8703,0.8627,0.8475,0.9079,0.9203,0.839,0.9121,0.9344,0.8652,0.8612,0.8612,0.8612,0.8612,0.8612,0.8612,0.8612,0.8612,0.8612,0.8612,0.8612,0.8612,0.8575,0.8477,0.8288,0.8251,0.8138,0.7955,0.782,0.7747,0.7735,0.7584,0.7484,0.7522,0.7676,0.7748,0.7825,0.8475,0.9226,1.0008,0.3899,0.4069,0.4241,0.4261,0.4269,0.4317,0.4443,0.4814,0.514,0.5318,0.6072,0.6581,0.6488,0.6856,0.7131,0.0,0.0,0.0,0.0,0.0,0.0,0.0,0.0,0.0,0.0,0.0,0.0,0.0,0.0,0.0,0.0,0.0,0.0,0.0,0.0,0.0,0.0,0.0,0.0,0.0,0.0,0.0,0.9607,0.9533,0.9351,0.9124,0.916,0.9175,0.9219,0.9467,0.9562,0.9588,0.9562,0.9758,0.9964,0.9863,1.0141,1.045,1.0279,0.995,0.9567,0.9156,0.8619,0.8247,0.0,0.8109,0.774,0.8001,0.8049,0.8115,0.8321,0.8387,0.8458,0.8637,0.8685,0.8703,0.8703,0.8703,0.8699,0.8665,0.876,0.8693,0.8341,0.8577,0.8682,0.86,0.8612,0.8612,0.8612,0.8612,0.8612,0.8612,0.8612,0.8612,0.8612,0.8612,0.8612,0.8608,0.8402,0.8308,0.8284,0.8117,0.7951,0.782,0.7633,0.7516,0.7551,0.7492,0.7484,0.7557,0.8284,0.8546,0.8589,0.8665,0.9226,1.0008,0.3902,0.4122,0.4294,0.4294,0.4294,0.4381,0.4661,0.4879,0.5113,0.5416,0.583,0.6089,0.6056,0.6614,0.7113,0.7473,0.7848,0.0,0.8459,0.0,0.0,0.0,0.0,0.0,0.0,0.0,0.0,0.0,0.0,0.0,0.0,0.0,0.0,0.0,0.0,0.0,0.0,0.0,0.0,0.0,0.0,0.0,0.9588,0.9588,0.9541,0.9431,0.9431,0.9431,0.0,0.0,0.9497,0.9387,0.9555,0.946,0.9351,0.9638,0.9991,1.0426,1.0945,1.097,1.0658,1.0104,0.9876,0.9633,0.8941,0.8725,0.8608,0.8334,0.8269,0.833,0.8538,0.8576,0.8604,0.8689,0.8807,0.8845,0.8718,0.8812,0.8845,0.8718,0.8815,0.8786,0.8496,0.8556,0.8618,0.8596,0.8612,0.8612,0.8612,0.8612,0.8612,0.8612,0.8612,0.8612,0.8612,0.8612,0.8612,0.8612,0.8531,0.8341,0.8126,0.8048,0.7862,0.7633,0.7555,0.7484,0.7484,0.7484,0.7484,0.7599,0.8399,0.8703,0.8813,0.9755,1.0319,1.0726,0.3939,0.4144,0.4294,0.4294,0.4294,0.4425,0.4748,0.4814,0.4923,0.5265,0.5464,0.5658,0.583,0.6359,0.6873,0.728,0.7659,0.7931,0.0,0.8632,0.0,0.0,0.0,0.0,0.0,0.0,0.0,0.0,0.0,0.0,0.0,0.0,0.0,0.0,0.0,0.0,0.0,0.0,0.0,0.0,0.0,0.0,0.9588,0.9588,0.9588,0.9588,0.9588,0.9588,0.0,0.0,0.9475,0.9336,0.9548,0.9365,0.9182,0.9724,1.0177,1.0653,1.1401,1.1591,1.1466,1.0926,1.083,1.0562,0.9423,0.9186,0.915,0.8871,0.8635,0.8603,0.8978,0.8851,0.8722,0.8779,0.8874,0.8902,0.8803,0.8874,0.8902,0.8803,0.893,0.8929,0.8817,0.8711,0.8704,0.8684,0.8612,0.8612,0.8612,0.8612,0.8612,0.8612,0.8612,0.8612,0.8612,0.8612,0.8612,0.8608,0.8506,0.8272,0.8008,0.791,0.7728,0.7484,0.7484,0.7484,0.7484,0.7484,0.7638,0.7902,0.8737,0.9155,0.9528,1.0919,1.1298,1.1223,0.4051,0.4214,0.4294,0.4294,0.4294,0.4294,0.4316,0.4316,0.4316,0.4338,0.4748,0.5265,0.5926,0.613,0.6258,0.6331,0.6477,0.6777,0.7306,0.7462,0.0,0.0,0.0,0.0,0.0,0.0,0.0,0.0,0.0,0.0,0.0,0.0,0.0,0.0,0.0,0.0,0.0,0.0,0.0,0.0,0.0,0.0,0.9588,0.9588,0.9588,0.9588,0.9588,0.0,0.0,0.0,0.9581,0.9599,0.9607,0.9819,0.0,1.0455,1.1041,1.1555,1.1584,1.1591,1.1591,1.156,1.1028,1.0451,1.0148,0.9574,0.9264,0.9734,0.9226,0.8922,0.9728,0.9236,0.877,0.8938,0.8845,0.8784,0.8948,0.8841,0.8784,0.8952,0.8981,0.907,0.9265,0.9043,0.8914,0.8894,0.8696,0.8612,0.8612,0.8612,0.8612,0.8612,0.8612,0.8612,0.8612,0.8612,0.8612,0.8608,0.8203,0.8024,0.8,0.7655,0.7492,0.7484,0.7484,0.7484,0.7484,0.7484,0.794,0.8737,0.9561,1.0351,1.1149,1.1966,1.1781,1.1223,0.4698,0.4727,0.477,0.477,0.4513,0.4294,0.4294,0.4294,0.4294,0.4294,0.4447,0.0,0.0,0.0,0.0,0.0,0.6528,0.6771,0.6948,0.7345,0.0,0.0,0.0,0.0,0.0,0.0,0.0,0.0,0.0,0.0,0.0,0.0,0.0,0.0,0.0,0.0,0.0,0.0,0.0,0.0,0.0,0.0,0.9625,0.9861,0.9667,0.9295,0.0,0.0,0.0,0.0,0.9482,0.9358,0.9555,0.0,0.0,0.979,1.0404,1.099,1.121,1.1423,1.1591,1.1591,1.1563,1.1393,1.0983,1.0693,1.039,0.9964,0.9468,0.9089,0.9122,0.8889,0.8774,0.8948,0.8963,0.894,0.8976,0.9077,0.9091,0.899,0.9225,0.9409,0.9508,0.9306,0.9094,0.8899,0.8823,0.874,0.8612,0.8612,0.8612,0.8612,0.8612,0.8612,0.8612,0.8612,0.8551,0.8381,0.802,0.7886,0.7877,0.7594,0.7484,0.7484,0.7484,0.7484,0.7561,0.8093,0.8475,0.8813,1.0169,1.0844,1.1223,1.215,1.2342,1.2114,0.5256,0.5254,0.5243,0.5243,0.4857,0.0,0.0,0.0,0.0,0.0,0.0,0.0,0.0,0.0,0.0,0.0,0.0,0.6046,0.6111,0.649,0.0,0.0,0.0,0.0,0.0,0.0,0.0,0.0,0.0,0.0,0.0,0.0,0.0,0.0,0.0,0.0,0.0,0.0,0.0,0.0,0.0,0.0,0.9115,0.9348,0.9234,0.0,0.0,0.0,0.0,0.0,0.949,0.9365,0.9555,0.0,0.0,0.9811,1.0338,1.0836,1.1048,1.1342,1.1562,1.1506,1.172,1.1779,1.1189,1.1104,1.0968,1.033,0.9644,0.922,0.9329,0.8944,0.8713,0.9032,0.9032,0.9037,0.9188,0.9249,0.9263,0.9211,0.9442,0.963,0.9748,0.9629,0.9427,0.9078,0.8955,0.8828,0.8612,0.8612,0.8612,0.8612,0.8612,0.858,0.8514,0.8575,0.8518,0.8284,0.7992,0.7861,0.7792,0.7608,0.7484,0.7484,0.7484,0.7484,0.7522,0.8055,0.8432,0.8813,0.983,1.0657,1.1298,1.1929,1.2415,1.2673,0.5636,0.5706,0.5739,0.0,0.0,0.0,0.0,0.0,0.0,0.0,0.0,0.0,0.0,0.0,0.0,0.0,0.0,0.0,0.4867,0.0,0.0,0.0,0.5535,0.5837,0.6293,0.6334,0.6597,0.0,0.0,0.0,0.0,0.0,0.0,0.0,0.0,0.0,0.0,0.0,0.0,0.0,0.0,0.0,0.8208,0.8219,0.0,0.0,0.0,0.0,0.0,0.9617,0.9624,0.9665,0.9643,0.9863,1.0185,1.0506,1.0821,1.1078,1.1056,1.1291,1.1528,1.1353,1.1517,1.1549,1.0843,1.0819,1.0924,1.0712,0.9793,0.928,1.0247,0.93,0.86,0.9169,0.9108,0.9131,0.9545,0.9428,0.9376,0.9578,0.9602,0.9686,0.9975,0.9985,0.9811,0.9345,0.9087,0.8823,0.8612,0.8612,0.8612,0.8612,0.8604,0.8518,0.8304,0.8514,0.8506,0.8272,0.8097,0.7927,0.7808,0.762,0.7496,0.7535,0.7488,0.7522,0.7522,0.7561,0.8016,0.8742,0.8813,0.9906,1.1409,1.1484,1.2114,1.2936,0.0,0.0,0.0,0.0,0.0,0.0,0.0,0.0,0.0,0.0,0.0,0.0,0.0,0.0,0.0,0.0,0.0,0.0,0.467,0.0,0.0,0.0,0.0,0.0,0.6298,0.6697,0.0,0.0,0.0,0.0,0.0,0.0,0.0,0.0,0.0,0.0,0.0,0.0,0.0,0.0,0.0,0.0,0.8218,0.0,0.0,0.0,0.0,0.0,0.0,1.006,1.0141,1.0322,1.0216,1.0317,1.0462,1.0474,1.0576,1.066,1.0411,1.0673,1.1048,1.1242,1.1188,1.1126,1.142,1.1009,1.051,1.041,0.9721,0.9136,0.9092,0.8694,0.8557,0.8985,0.9018,0.9131,0.9545,0.9559,0.954,0.9597,0.9602,0.9686,0.9975,0.9814,0.9657,0.955,0.9301,0.9087,0.8823,0.8696,0.8612,0.8612,0.8477,0.8406,0.8539,0.8406,0.8268,0.8085,0.8036,0.7992,0.7943,0.7808,0.7731,0.7722,0.758,0.7603,0.7761,0.8212,0.8699,0.9263,1.0319,1.1105,1.1706,1.2452,1.29,1.3119,0.0,0.0,0.0,0.0,0.0,0.0,0.0,0.0,0.0,0.0,0.0,0.0,0.0,0.0,0.0,0.0,0.0,0.0,0.0,0.0,0.0,0.0,0.0,0.0,0.0,0.0,0.0,0.0,0.0,0.0,0.0,0.0,0.0,0.0,0.0,0.0,0.0,0.0,0.0,0.0,0.0,0.0,0.0,0.0,0.0,0.0,0.0,0.0,0.0,1.0426,1.0433,1.0586,1.0515,1.0525,1.0579,1.0507,1.0533,1.0542,1.0192,1.045,1.0794,1.0696,1.0799,1.0886,1.0961,1.0737,1.0405,0.998,0.9462,0.8984,0.8704,0.8434,0.8429,0.8901,0.9061,0.9299,0.9719,0.9781,0.9781,0.9781,0.9781,0.9823,0.9985,0.9847,0.9785,0.9767,0.939,0.9083,0.8907,0.8618,0.8526,0.8608,0.851,0.8506,0.8612,0.8304,0.8199,0.8256,0.8016,0.7943,0.8008,0.7877,0.7755,0.7677,0.7653,0.7639,0.768,0.8021,0.8585,0.9263,1.0056,1.095,1.1916,1.2475,1.2966,1.3346,0.0,0.0,0.0,0.0,0.0,0.0,0.0,0.0,0.0,0.4403,0.4338,0.4294,0.4294,0.4294,0.0,0.0,0.0,0.0,0.0,0.0,0.0,0.0,0.0,0.0,0.0,0.0,0.0,0.0,0.0,0.0,0.0,0.0,0.0,0.0,0.0,0.0,0.0,0.0,0.0,0.0,0.0,0.0,0.0,0.0,0.0,0.0,0.0,0.0,0.0,0.0,1.0661,1.074,1.0696,1.0711,1.074,1.0696,1.0652,1.0542,1.0192,1.0328,1.046,1.0048,1.0329,1.0594,1.0073,1.0206,1.0271,0.9503,0.9042,0.8742,0.8637,0.8308,0.8245,0.8878,0.9112,0.9441,0.9933,0.9994,0.9994,0.9994,0.9971,0.9966,0.9994,0.9971,0.9966,0.9994,0.9415,0.9008,0.8947,0.8582,0.8476,0.8655,0.864,0.8632,0.8586,0.8199,0.8211,0.8611,0.8135,0.7987,0.8123,0.7975,0.7795,0.7645,0.7726,0.7733,0.7595,0.7561,0.8169,0.9117,0.9226,1.0378,1.205,1.2161,1.2732,1.3492,0.0,0.0,0.0,0.0,0.0,0.0,0.0,0.0,0.0,0.0,0.0,0.0,0.0,0.0,0.0,0.0,0.0,0.0,0.0,0.0,0.0,0.0,0.0,0.0,0.0,0.5178,0.0,0.0,0.0,0.0,0.0,0.0,0.0,0.0,0.0,0.0,0.0,0.0,0.0,0.0,0.0,0.0,0.0,0.0,0.0,0.0,0.0,0.0,0.0,0.0,1.0922,1.1409,1.1219,1.1293,1.1402,1.1242,1.0916,1.0542,1.0192,0.9721,0.9456,1.0066,0.9746,0.9445,1.0081,0.9754,0.9241,0.9112,0.8598,0.8156,0.8126,0.7986,0.8033,0.8656,0.8935,0.928,0.9914,0.9994,0.9994,0.9994,0.98,0.9767,0.998,0.98,0.9767,0.998,0.9553,0.9231,0.9248,0.8969,0.8849,0.893,0.887,0.8724,0.8417,0.8329,0.8357,0.8589,0.8489,0.8543,0.8737,0.8539,0.8382,0.8216,0.7942,0.7969,0.8212,0.7872,0.8522,0.9803,1.0308,1.1205,1.2335,1.3003,1.3346,1.3492,0.0,0.0,0.0,0.0,0.0,0.0,0.0,0.0,0.0,0.0,0.4447,0.4294,0.0,0.0,0.0,0.0,0.0,0.0,0.0,0.0,0.0,0.0,0.0,0.0,0.4681,0.5085,0.5305,0.5351,0.0,0.0,0.0,0.5744,0.5791,0.5817,0.0,0.0,0.0,0.0,0.0,0.0,0.0,0.0,0.0,0.0,0.0,0.0,0.0,0.0,0.0,0.0,1.0225,1.0609,1.1247,1.1528,1.1564,1.1293,1.0902,1.0457,0.9854,0.9411,0.918,0.9253,0.9195,0.915,0.9364,0.9211,0.8888,0.8565,0.8209,0.7954,0.7787,0.7769,0.7947,0.8463,0.8722,0.9077,0.9705,0.9795,0.9833,0.998,0.9866,0.9842,0.9985,0.9904,0.9842,0.9985,0.9645,0.9463,0.9471,0.9213,0.9131,0.9164,0.9122,0.8957,0.8649,0.8459,0.8451,0.8577,0.8429,0.8511,0.8772,0.8662,0.8541,0.8387,0.8176,0.8141,0.8255,0.8475,0.9301,1.0426,1.1162,1.2027,1.2973,1.3346,1.3492,1.3492,0.0,0.0,0.0,0.0,0.0,0.0,0.0,0.5437,0.4988,0.4513,0.436,0.4294,0.4294,0.4331,0.0,0.0,0.0,0.0,0.0,0.0,0.0,0.0,0.0,0.0,0.4551,0.0,0.0,0.5216,0.5653,0.0,0.0,0.0,0.0,0.0,0.5931,0.6023,0.5978,0.0,0.0,0.0,0.0,0.6311,0.0,0.0,0.0,0.0,0.0,0.0,0.0,0.0,0.939,0.9678,1.0793,1.124,1.1322,1.104,1.0857,1.0494,0.9494,0.9218,0.9045,0.8498,0.8699,0.8984,0.8652,0.8753,0.8727,0.8112,0.7954,0.7819,0.7554,0.7631,0.7897,0.8325,0.8533,0.8874,0.9507,0.9602,0.9682,0.9971,0.9994,0.9994,0.9994,0.9994,0.9994,0.9994,0.982,0.9646,0.9602,0.9432,0.9388,0.9432,0.9388,0.9257,0.9043,0.8669,0.8571,0.8747,0.8453,0.8452,0.8768,0.875,0.8625,0.8475,0.8354,0.8262,0.8293,0.9036,0.997,1.0938,1.1755,1.2659,1.3492,1.3492,1.3492,1.3492,0.0,0.0,0.0,0.0,0.0,0.0,0.0,0.5905,0.5459,0.5009,0.4574,0.4294,0.4294,0.4399,0.0,0.0,0.0,0.0,0.0,0.0,0.0,0.0,0.0,0.0,0.0,0.0,0.0,0.5276,0.5152,0.0,0.0,0.0,0.0,0.0,0.0,0.565,0.5822,0.5822,0.0,0.0,0.0,0.0,0.0,0.0,0.0,0.0,0.0,0.7749,0.8361,0.8522,0.9005,0.9518,0.9646,1.0098,1.0604,1.0546,1.0793,1.075,0.9387,0.889,0.8704,0.8539,0.839,0.8329,0.8463,0.8533,0.8447,0.8084,0.7754,0.7521,0.7489,0.7508,0.7721,0.8302,0.8415,0.8718,0.9489,0.9602,0.9682,0.9971,0.9994,0.9994,0.9994,0.9994,0.9994,0.9994,0.9994,0.9864,0.9602,0.9559,0.9689,0.9907,0.9689,0.9559,0.9515,0.8959,0.8861,0.9226,0.9,0.8946,0.8978,0.915,0.9012,0.8643,0.8395,0.8418,0.8699,0.9334,1.0164,1.1143,1.1966,1.2783,1.3492,1.3492,1.3492,1.3492,0.0,0.0,0.0,0.0,0.0,0.0,0.0,0.5739,0.5334,0.4666,0.4272,0.4078,0.417,0.4396,0.4514,0.0,0.0,0.0,0.0,0.0,0.0,0.0,0.0,0.0,0.0,0.0,0.4974,0.519,0.5313,0.0,0.0,0.0,0.0,0.0,0.0,0.5693,0.5681,0.5768,0.0,0.0,0.0,0.0,0.0,0.0,0.0,0.0,0.0,0.0,0.7624,0.7684,0.7972,0.8361,0.878,0.9069,0.939,0.9779,0.9862,0.9638,0.8757,0.8401,0.8224,0.8067,0.8038,0.81,0.8194,0.8182,0.8117,0.7754,0.7587,0.7489,0.7489,0.7489,0.7655,0.8127,0.8207,0.8458,0.9131,0.9333,0.9489,0.9743,0.9919,0.9994,0.9994,0.9994,0.9994,0.9994,0.9838,0.978,0.9859,0.982,0.9907,0.9994,0.9907,0.9777,0.9602,0.9122,0.8964,0.9123,0.8923,0.8927,0.9169,0.9007,0.899,0.9043,0.8559,0.8776,0.9463,1.0207,1.1031,1.1892,1.2709,1.3229,1.3492,1.3492,1.3492,1.3492,0.0,0.0,0.0,0.0,0.0,0.0,0.5974,0.5658,0.5253,0.46,0.4232,0.4069,0.4094,0.4482,0.4696,0.4546,0.0,0.0,0.0,0.0,0.0,0.0,0.0,0.0,0.0,0.0,0.5159,0.5238,0.5437,0.5377,0.0,0.0,0.5446,0.5306,0.0,0.0,0.0,0.0,0.0,0.0,0.0,0.0,0.0,0.0,0.0,0.0,0.0,0.0,0.0,0.0,0.0,0.7489,0.7972,0.0,0.0,0.923,0.9322,0.9023,0.8436,0.8211,0.8054,0.7723,0.7812,0.7987,0.7889,0.7917,0.7922,0.7559,0.7489,0.7489,0.7489,0.7489,0.7607,0.0,0.8077,0.8302,0.8896,0.9155,0.9385,0.97,0.9866,0.9994,0.9994,0.9994,0.9971,0.9909,0.9786,0.98,0.9985,0.9994,0.9994,0.9994,0.9937,0.9775,0.9602,0.9197,0.8999,0.8995,0.8857,0.8901,0.9121,0.8896,0.8891,0.9107,0.8918,0.9242,0.9992,1.1037,1.1781,1.2378,1.3193,1.3492,1.3492,1.3492,1.3492,1.3492,0.0,0.0,0.0,0.0,0.0,0.0,0.0,0.5852,0.5378,0.5031,0.4653,0.4314,0.4128,0.4686,0.4956,0.463,0.0,0.0,0.0,0.0,0.0,0.0,0.0,0.0,0.0,0.0,0.0,0.0,0.5409,0.5297,0.5297,0.5297,0.5297,0.5297,0.0,0.0,0.0,0.0,0.0,0.0,0.0,0.0,0.0,0.0,0.0,0.0,0.0,0.0,0.0,0.0,0.0,0.0,0.0,0.7363,0.7782,0.0,0.9486,0.9352,0.8678,0.8484,0.8323,0.7679,0.7754,0.7922,0.7587,0.7754,0.7922,0.7559,0.7489,0.7489,0.7489,0.7489,0.7565,0.7783,0.7982,0.8302,0.8896,0.9155,0.9478,0.9942,0.9994,0.9994,0.9994,0.9994,0.9909,0.962,0.9833,0.9994,0.9994,0.9994,0.9994,0.9994,0.9757,0.9606,0.9606,0.9197,0.8985,0.8985,0.8985,0.8911,0.8722,0.8914,0.89,0.8757,0.9527,0.99,1.003,1.1632,1.2298,1.2378,1.3193,1.3492,1.3492,1.3492,1.3492,1.3492,0.0,0.0,0.0,0.0,0.0,0.0,0.0,0.5658,0.5096,0.477,0.4286,0.4008,0.4034,0.4435,0.464,0.4536,0.0,0.0,0.0,0.0,0.0,0.0,0.0,0.0,0.0,0.0,0.0,0.0,0.0,0.0,0.5301,0.5446,0.5438,0.5305,0.545,0.5434,0.0,0.0,0.0,0.0,0.0,0.0,0.6482,0.0,0.0,0.0,0.0,0.0,0.0,0.0,0.0,0.0,0.0,0.0,0.0,0.8554,0.849,0.8102,0.7879,0.7814,0.7782,0.7554,0.7587,0.7619,0.7526,0.7587,0.7619,0.7526,0.7489,0.7489,0.7489,0.7489,0.7655,0.8122,0.8259,0.8519,0.9103,0.9371,0.9555,0.9729,0.9743,0.9743,0.9743,0.9483,0.9346,0.938,0.936,0.9441,0.9729,0.9606,0.9587,0.9738,0.9635,0.9531,0.9385,0.9117,0.8985,0.8981,0.8874,0.8915,0.9102,0.8769,0.8788,0.9133,0.9539,1.0089,1.0812,1.1855,1.2636,1.3163,1.3382,1.3492,1.3492,1.3492,1.3492,1.3492,0.0,0.0,0.0,0.0,0.0,0.0,0.0,0.5814,0.5248,0.4896,0.4483,0.4166,0.4013,0.439,0.4619,0.4509,0.0,0.0,0.0,0.0,0.0,0.0,0.0,0.0,0.0,0.0,0.0,0.0,0.0,0.0,0.0,0.0,0.0,0.5426,0.5466,0.5462,0.0,0.0,0.0,0.0,0.0,0.0,0.6412,0.0,0.0,0.0,0.0,0.0,0.0,0.0,0.0,0.0,0.0,0.0,0.0,0.0,0.7782,0.7554,0.7814,0.7684,0.7489,0.7489,0.7489,0.7489,0.7489,0.7489,0.7489,0.7489,0.7489,0.7489,0.7489,0.7489,0.7622,0.7981,0.8179,0.8472,0.9011,0.9301,0.954,0.9743,0.9649,0.9573,0.9489,0.9249,0.9117,0.9164,0.9122,0.9211,0.947,0.9352,0.931,0.9366,0.9442,0.938,0.9173,0.9046,0.8943,0.8902,0.8765,0.8841,0.9082,0.8667,0.8884,0.9548,0.9991,1.0689,0.0,1.2415,1.3046,1.3492,1.3492,1.3492,1.3492,1.3492,1.3492,1.3492,0.0,0.0,0.0,0.0,0.0,0.0,0.0,0.0,0.0,0.0,0.4989,0.4609,0.4062,0.4499,0.4745,0.0,0.0,0.0,0.0,0.0,0.0,0.0,0.0,0.0,0.0,0.0,0.0,0.0,0.5297,0.5297,0.5297,0.0,0.0,0.0,0.5418,0.0,0.0,0.0,0.0,0.0,0.6343,0.6387,0.0,0.0,0.0,0.0,0.0,0.0,0.0,0.0,0.0,0.0,0.0,0.0,0.0,0.0,0.0,0.0,0.0,0.7972,0.7489,0.7489,0.7489,0.7489,0.7489,0.7489,0.0,0.7489,0.7489,0.7493,0.7512,0.7512,0.7527,0.7574,0.7906,0.8274,0.8708,0.91,0.9493,0.9928,0.9734,0.9479,0.9282,0.9249,0.9159,0.8976,0.9136,0.9244,0.9258,0.9249,0.9159,0.899,0.9164,0.9173,0.8985,0.8971,0.8907,0.8722,0.8708,0.8708,0.8722,0.8708,0.9127,0.9981,1.0743,1.1558,1.2378,1.3156,1.3492,1.3492,1.3492,1.3492,1.3492,1.3492,1.3492,1.3492,0.0,0.0,0.0,0.0,0.0,0.0,0.0,0.0,0.0,0.0,0.0,0.4044,0.4007,0.4216,0.0,0.0,0.0,0.0,0.0,0.0,0.0,0.0,0.0,0.0,0.0,0.0,0.0,0.5297,0.5297,0.5297,0.5301,0.5462,0.0,0.0,0.0,0.0,0.0,0.0,0.0,0.0,0.6343,0.6387,0.0,0.0,0.0,0.0,0.598,0.5888,0.0,0.0,0.0,0.0,0.0,0.0,0.0,0.0,0.733,0.7521,0.7684,0.0,0.7489,0.7489,0.7489,0.7489,0.0,0.7489,0.7489,0.7489,0.7489,0.7541,0.7707,0.7735,0.7897,0.8335,0.8491,0.876,0.9301,0.947,0.9564,0.9663,0.9352,0.9112,0.9061,0.8944,0.8826,0.8779,0.8822,0.8921,0.9046,0.894,0.8902,0.8981,0.9028,0.9032,0.8985,0.8859,0.8836,0.8949,0.8779,0.8789,0.8944,0.8774,0.9211,1.0169,1.0819,1.1558,1.2378,1.3156,1.3492,1.3492,1.3492,1.3492,1.3492,1.3492,1.3492,1.3492,0.0,0.0,0.0,0.0,0.0,0.0,0.0,0.0,0.0,0.0,0.0,0.0,0.0,0.0,0.0,0.0,0.0,0.0,0.0,0.0,0.0,0.0,0.0,0.0,0.0,0.0,0.0,0.0,0.0,0.5297,0.0,0.0,0.0,0.0,0.0,0.0,0.0,0.0,0.0,0.0,0.6379,0.0,0.0,0.0,0.0,0.0,0.5738,0.5615,0.0,0.5615,0.588,0.6168,0.0,0.0,0.0,0.0,0.7265,0.7489,0.7489,0.7489,0.7489,0.7489,0.7489,0.7489,0.7489,0.7489,0.7489,0.7489,0.7489,0.7527,0.7645,0.8043,0.8329,0.8293,0.8817,0.935,0.9559,0.9602,0.9602,0.9602,0.9239,0.8985,0.8985,0.8826,0.8703,0.8703,0.8703,0.8755,0.8869,0.8765,0.8755,0.8874,0.8874,0.8874,0.8874,0.8859,0.8859,0.8874,0.876,0.8957,0.9416,0.9291,0.9943,1.1197,1.1509,1.2114,1.2863,1.3309,1.3492,1.3492,1.3492,1.3492,1.3492,1.3492,1.3492,1.3492,0.0,0.0,0.0,0.0,0.0,0.0,0.0,0.0,0.0,0.0,0.0,0.0,0.0,0.0,0.0,0.0,0.0,0.0,0.0,0.0,0.0,0.0,0.0,0.0,0.0,0.0,0.0,0.0,0.0,0.0,0.0,0.0,0.0,0.0,0.0,0.0,0.0,0.0,0.0,0.6387,0.6387,0.0,0.0,0.0,0.0,0.0,0.0,0.0,0.0,0.5297,0.5575,0.5898,0.5929,0.0,0.0,0.0,0.0,0.0,0.7489,0.7611,0.7695,0.7531,0.7489,0.7489,0.7489,0.0,0.0,0.7489,0.7489,0.7512,0.7574,0.8327,0.8706,0.8096,0.9017,0.9773,0.9567,0.9555,0.9545,0.9512,0.9169,0.8934,0.8934,0.8807,0.8703,0.8703,0.8703,0.8703,0.8703,0.8703,0.8703,0.8703,0.8703,0.8703,0.8703,0.8883,0.8902,0.8751,0.8718,0.9117,0.9884,0.9884,1.0775,1.2305,1.2305,1.2753,1.3492,1.3492,1.3492,1.3492,1.3492,1.3492,1.3492,1.3492,1.3492,1.3492,0.0,0.0,0.0,0.0,0.0,0.0,0.0,0.0,0.0,0.0,0.0,0.0,0.0,0.0,0.0,0.0,0.0,0.0,0.0,0.0,0.0,0.0,0.0,0.0,0.0,0.0,0.0,0.0,0.0,0.0,0.5297,0.5297,0.5434,0.0,0.0,0.0,0.0,0.0,0.6392,0.6387,0.6387,0.0,0.0,0.0,0.0,0.0,0.0,0.0,0.0,0.5297,0.5571,0.5912,0.6022,0.0,0.0,0.0,0.0,0.0,0.7489,0.8113,0.8576,0.7695,0.7489,0.7489,0.7489,0.7489,0.7489,0.7489,0.7489,0.7598,0.7954,0.8262,0.8567,0.8774,0.929,0.9593,0.9384,0.9333,0.9268,0.9098,0.8902,0.8751,0.8751,0.8722,0.8703,0.8703,0.8703,0.8703,0.8703,0.8703,0.8703,0.8703,0.8703,0.8703,0.8703,0.8732,0.8826,0.8934,0.8789,0.9117,0.9884,0.9884,1.0775,1.2305,1.2305,1.2753,1.3492,1.3492,1.3492,1.3492,1.3492,1.3492,1.3492,1.3492,1.3492,1.3492,0.0,0.0,0.0,0.0,0.0,0.0,0.0,0.0,0.0,0.0,0.0,0.0,0.0,0.0,0.0,0.0,0.0,0.0,0.0,0.0,0.0,0.0,0.0,0.0,0.0,0.0,0.0,0.0,0.0,0.5179,0.5187,0.5478,0.5685,0.5778,0.0,0.0,0.0,0.0,0.6387,0.6387,0.0,0.0,0.0,0.0,0.0,0.0,0.0,0.0,0.0,0.0,0.5498,0.5784,0.6027,0.0,0.0,0.0,0.0,0.0,0.7489,0.7851,0.82,0.8281,0.8714,0.9075,0.8909,0.8981,0.9007,0.8578,0.8477,0.8401,0.8152,0.8709,0.9385,0.9908,0.9664,0.9437,0.9451,0.9263,0.9089,0.8995,0.8831,0.8703,0.8703,0.8703,0.8703,0.8703,0.8703,0.8703,0.8703,0.8703,0.8703,0.8703,0.8703,0.8703,0.8703,0.8703,0.8751,0.885,0.9171,0.976,1.055,1.0999,1.1855,1.2936,1.2936,1.3156,1.3492,1.3492,1.3492,1.3492,1.3492,1.3492,1.3492,1.3492,1.3492,1.3564,0.0,0.0,0.0,0.0,0.0,0.0,0.0,0.0,0.0,0.0,0.0,0.0,0.0,0.0,0.0,0.0,0.0,0.0,0.0,0.0,0.0,0.0,0.0,0.0,0.0,0.0,0.0,0.4976,0.4988,0.5038,0.5153,0.5608,0.5868,0.0,0.0,0.0,0.0,0.0,0.6387,0.6387,0.0,0.0,0.0,0.0,0.0,0.0,0.0,0.0,0.0,0.0,0.0,0.0,0.0,0.0,0.0,0.7017,0.7256,0.7422,0.7422,0.7652,0.8017,0.8699,0.9338,0.9872,1.0065,1.0121,1.0036,0.9649,0.9421,0.9122,0.8568,0.9167,0.9948,1.0517,0.9924,0.938,0.9451,0.9188,0.8966,0.8915,0.8803,0.8703,0.8703,0.8703,0.8703,0.8703,0.8703,0.8703,0.8703,0.8703,0.8703,0.8703,0.8703,0.8703,0.8703,0.8703,0.8703,0.8703,0.9501,1.0331,1.1149,1.1929,1.2746,1.3492,1.3492,1.3492,1.3492,1.3492,1.3492,1.3492,1.3492,1.3492,1.3528,1.3702,1.3637,1.3637,0.0,0.0,0.0,0.0,0.0,0.0,0.0,0.0,0.0,0.0,0.0,0.0,0.0,0.0,0.0,0.0,0.0,0.0,0.0,0.0,0.0,0.0,0.0,0.0,0.0,0.4741,0.4694,0.4636,0.4636,0.4853,0.5285,0.551,0.5807,0.6191,0.0,0.0,0.0,0.0,0.6387,0.6387,0.6387,0.0,0.0,0.0,0.0,0.0,0.0,0.0,0.0,0.0,0.0,0.0,0.0,0.0,0.6625,0.6799,0.7,0.7213,0.7213,0.8037,0.8836,0.8598,0.8105,0.8195,1.0039,0.9769,0.9338,1.0232,0.9834,0.9346,0.945,0.9406,0.9497,0.9877,0.9756,0.9451,0.9079,0.9004,0.8949,0.8751,0.8713,0.8703,0.8703,0.8703,0.8703,0.8703,0.8703,0.8703,0.8703,0.8703,0.8703,0.8703,0.8703,0.8703,0.8703,0.8703,0.8703,0.8703,0.9501,1.0331,1.1149,1.1929,1.2746,1.3492,1.3492,1.3492,1.3492,1.3492,1.3492,1.3492,1.3492,1.3492,1.3564,1.4258,1.4086,1.371,0.0,0.0,0.0,0.0,0.0,0.0,0.0,0.0,0.0,0.0,0.0,0.0,0.0,0.0,0.0,0.0,0.0,0.0,0.0,0.0,0.0,0.0,0.0,0.5005,0.4836,0.4734,0.4617,0.448,0.4674,0.4973,0.5309,0.5758,0.0,0.0,0.0,0.0,0.0,0.0,0.0,0.6387,0.6387,0.5716,0.0,0.0,0.0,0.0,0.0,0.0,0.0,0.0,0.5526,0.5872,0.0,0.6428,0.666,0.6972,0.7128,0.719,0.719,0.8069,0.9058,0.9361,0.9387,0.9661,1.0844,1.0981,1.1039,1.169,1.1644,1.1328,1.0743,1.004,0.9577,0.9842,0.9736,0.9441,0.9048,0.9106,0.9067,0.8751,0.8703,0.8703,0.8703,0.8703,0.8703,0.8703,0.8703,0.8703,0.8703,0.8703,0.8703,0.8703,0.8703,0.8703,0.8703,0.8703,0.897,0.9463,1.025,1.1074,1.1855,1.2673,1.32,1.3492,1.3492,1.3492,1.3492,1.3492,1.3492,1.3492,1.3492,1.3775,1.4222,1.4502,1.4716,1.501,0.0,0.0,0.0,0.0,0.0,0.0,0.0,0.0,0.0,0.0,0.0,0.0,0.0,0.0,0.0,0.0,0.0,0.0,0.0,0.0,0.0,0.0,0.0,0.4965,0.485,0.4709,0.4556,0.4386,0.4728,0.5064,0.5418,0.0,0.0,0.0,0.0,0.0,0.0,0.0,0.0,0.0,0.6387,0.5686,0.0,0.0,0.0,0.0,0.0,0.0,0.0,0.0,0.5489,0.0,0.0,0.0,0.0,0.6868,0.7191,0.7439,0.7509,0.8308,0.9279,0.9865,1.0224,1.0682,1.1538,1.1839,1.2142,1.2809,1.2763,1.2285,1.1495,1.0477,0.9867,1.0079,0.9932,0.962,0.9169,0.9226,0.9165,0.8742,0.8703,0.8703,0.8703,0.8703,0.8703,0.8703,0.8703,0.8703,0.8703,0.8703,0.8703,0.8703,0.8703,0.8703,0.8703,0.897,0.9496,1.0293,1.1074,1.1781,1.2342,1.3119,1.3492,1.3492,1.3492,1.3492,1.3492,1.3492,1.3492,1.3492,1.3492,1.3941,1.4637,1.4851,1.5286,1.5851,0.0,0.0,0.0,0.0,0.0,0.0,0.0,0.0,0.0,0.0,0.0,0.0,0.0,0.0,0.0,0.0,0.0,0.0,0.0,0.0,0.0,0.0,0.0,0.4847,0.4697,0.4573,0.4474,0.4397,0.4737,0.5155,0.5616,0.5807,0.0,0.0,0.0,0.0,0.0,0.0,0.0,0.0,0.6383,0.6013,0.546,0.0,0.0,0.0,0.0,0.0,0.0,0.0,0.5439,0.5626,0.0,0.0,0.0,0.6417,0.7167,0.7928,0.8142,0.8854,0.9584,0.9916,1.0155,1.0667,1.1997,1.204,1.2171,1.3504,1.2856,1.1892,1.1484,1.0751,1.0258,1.0477,1.0335,0.9986,0.939,0.9284,0.9165,0.8742,0.8703,0.8703,0.8703,0.8703,0.8703,0.8703,0.8703,0.8703,0.8703,0.8703,0.8703,0.8703,0.8703,0.8703,0.8703,0.9501,1.0293,1.1111,1.1929,1.2305,1.2342,1.3119,1.3492,1.3492,1.3492,1.3492,1.3492,1.3492,1.3492,1.3492,1.3499,1.3949,1.4708,1.5428,1.571,1.5956,0.0,0.0,0.0,0.0,0.0,0.0,0.0,0.0,0.0,0.0,0.0,0.0,0.0,0.0,0.0,0.0,0.0,0.0,0.0,0.0,0.0,0.0,0.0,0.0,0.0,0.0,0.4714,0.4616,0.4949,0.5285,0.0,0.0,0.0,0.6055,0.0,0.0,0.0,0.0,0.0,0.0,0.6261,0.5906,0.546,0.0,0.0,0.0,0.0,0.0,0.0,0.0,0.0,0.0,0.0,0.0,0.0,0.6552,0.6954,0.7537,0.8067,0.9012,0.9984,1.0554,1.1458,1.2353,1.2888,1.2462,1.2238,1.3342,1.2892,1.2274,1.2265,1.1247,1.0447,1.0492,1.0462,1.0144,0.9408,0.9549,0.9468,0.878,0.8703,0.8703,0.8703,0.8703,0.8703,0.8703,0.8703,0.8703,0.8703,0.8703,0.8703,0.8703,0.8703,0.8703,0.8703,0.9501,1.0293,1.1111,1.1929,1.2599,1.3163,1.3382,1.3492,1.3492,1.3492,1.3492,1.3492,1.3492,1.3492,1.3564,1.4086,1.4716,1.5455,1.6263,1.6872,1.7373,0.0,0.0,0.0,0.0,0.0,0.0,0.0,0.0,0.0,0.0,0.0,0.4491,0.0,0.0,0.0,0.0,0.0,0.0,0.0,0.0,0.0,0.0,0.0,0.0,0.0,0.4887,0.4887,0.0,0.0,0.0,0.0,0.0,0.0,0.5896,0.0,0.6091,0.0,0.0,0.0,0.0,0.6073,0.5923,0.5769,0.0,0.0,0.0,0.0,0.0,0.0,0.0,0.0,0.0,0.6091,0.0,0.0,0.6672,0.7327,0.8099,0.8572,0.9719,1.0936,1.1548,1.2477,1.3259,1.3393,1.3054,1.2843,1.3247,1.2895,1.248,1.2387,1.1574,1.0844,1.0623,1.0673,1.0519,0.9884,0.9992,0.9847,0.9115,0.8918,0.8801,0.8801,0.8656,0.8618,0.8694,0.8703,0.8703,0.8703,0.8703,0.8703,0.8703,0.8703,0.8703,0.8703,0.9798,1.0625,1.1111,1.2224,1.3046,1.3492,1.3492,1.3492,1.3492,1.3492,1.3492,1.3492,1.3492,1.3674,1.3985,1.443,1.5242,1.6237,1.6724,1.7364,1.8008,0.0,0.0,0.3792,0.3805,0.0,0.0,0.0,0.0,0.0,0.0,0.0,0.4491,0.0,0.0,0.0,0.4491,0.0,0.0,0.0,0.0,0.0,0.0,0.0,0.0,0.0,0.0,0.0,0.0,0.0,0.0,0.0,0.0,0.5709,0.5839,0.0,0.5872,0.0,0.0,0.0,0.0,0.5834,0.5969,0.6124,0.6124,0.0,0.0,0.0,0.0,0.0,0.0,0.0,0.0,0.609,0.6254,0.6489,0.6804,0.7902,0.9105,0.942,1.0652,1.2011,1.2647,1.3244,1.367,1.3611,1.3711,1.3658,1.3147,1.2848,1.2508,1.2103,1.1728,1.1284,1.0826,1.0882,1.0891,1.0482,1.045,1.0179,0.9525,0.9171,0.8984,0.8979,0.8661,0.8522,0.8817,0.8775,0.8751,0.8746,0.8727,0.8703,0.8703,0.8775,0.8813,0.8813,1.0395,1.1223,1.1223,1.2783,1.3492,1.3492,1.3492,1.3492,1.3492,1.3492,1.3492,1.3499,1.3564,1.4013,1.4601,1.4744,1.5666,1.6906,1.6975,1.7432,1.8008,0.0,0.0,0.3686,0.3789,0.0,0.0,0.0,0.0,0.4161,0.4457,0.4491,0.4491,0.4491,0.4491,0.0,0.4491,0.4491,0.0,0.0,0.0,0.0,0.0,0.0,0.0,0.0,0.0,0.0,0.0,0.0,0.0,0.0,0.0,0.0,0.5426,0.0,0.5579,0.0,0.0,0.0,0.5352,0.5352,0.5456,0.5578,0.5578,0.5578,0.0,0.0,0.0,0.0,0.0,0.0,0.0,0.6195,0.6474,0.6801,0.675,0.7262,0.8099,0.9212,1.0075,1.1016,1.2438,1.3523,1.4159,1.3827,1.3703,1.3472,1.2853,1.2495,1.2262,1.2164,1.1621,1.1136,1.1032,1.0705,1.0319,0.9936,0.9865,0.9701,0.9251,0.8897,0.8933,0.9634,0.9004,0.8984,0.9943,0.9306,0.8975,0.9238,0.8915,0.8703,0.8703,0.9311,0.9652,0.9652,1.1223,1.204,1.204,1.3046,1.3492,1.3492,1.3492,1.3492,1.3492,1.3492,1.3492,1.3528,1.4122,1.4466,1.4708,1.5948,1.662,1.6975,1.7545,1.7862,1.7959,0.0,0.0,0.0,0.0,0.0,0.0,0.0,0.0,0.4183,0.446,0.4491,0.4491,0.4491,0.4491,0.0,0.0,0.4491,0.4491,0.0,0.0,0.0,0.0,0.0,0.0,0.0,0.0,0.0,0.0,0.0,0.0,0.0,0.0,0.0,0.5204,0.0,0.53,0.0,0.0,0.5059,0.5059,0.5059,0.5161,0.5314,0.5314,0.5333,0.5415,0.5593,0.0,0.0,0.0,0.0,0.0,0.0,0.0,0.6789,0.6791,0.7279,0.8069,0.9198,1.0163,1.1283,1.3001,1.3947,1.4364,1.3837,1.3644,1.3419,1.2734,1.2484,1.2317,1.2056,1.1797,1.1477,1.098,1.0791,1.0534,1.0049,0.9979,0.9863,0.9531,0.9411,0.9548,0.9963,0.9645,0.9685,1.0331,0.9626,0.9169,0.9246,0.8808,0.851,0.8406,0.9205,0.9675,0.9744,1.1284,1.2128,1.2305,1.3119,1.3492,1.3492,1.3492,1.3492,1.3492,1.3492,1.3492,1.3528,1.3912,1.451,1.5207,1.6018,1.6768,1.7476,1.7862,1.7881,1.7676,0.0,0.0,0.0,0.0,0.0,0.0,0.0,0.0,0.0,0.447,0.4491,0.4491,0.4491,0.4491,0.4491,0.0,0.0,0.0,0.4491,0.0,0.0,0.0,0.0,0.0,0.0,0.0,0.0,0.0,0.0,0.0,0.0,0.0,0.0,0.5162,0.0,0.0,0.0,0.0,0.4846,0.4846,0.4846,0.4927,0.5081,0.5081,0.5137,0.5262,0.5322,0.5506,0.5755,0.588,0.0,0.0,0.0,0.0,0.667,0.6835,0.7428,0.8204,0.9037,1.0402,1.195,1.3635,1.4307,1.4419,1.3902,1.3672,1.3458,1.2885,1.2678,1.2467,1.2027,1.2058,1.1851,1.1046,1.1016,1.0931,1.0495,1.0359,1.0245,1.0124,1.0114,1.0207,1.0384,1.0365,1.0421,1.0668,1.0006,0.9552,0.9414,0.8939,0.862,0.8433,0.9287,0.9785,0.9882,1.1246,1.2053,1.2333,1.2992,1.3331,1.3331,1.3331,1.3389,1.3492,1.3492,1.3564,1.3702,1.3848,1.4689,1.5913,1.5957,1.6771,1.7891,1.7822,1.7568,1.7256,0.0,0.0,0.0,0.0,0.0,0.0,0.0,0.0,0.0,0.0,0.4491,0.4491,0.4491,0.4491,0.4491,0.4491,0.4491,0.4491,0.0,0.0,0.0,0.0,0.0,0.0,0.0,0.0,0.0,0.0,0.0,0.0,0.0,0.0,0.0,0.5333,0.0,0.0,0.0,0.0,0.4546,0.4546,0.4546,0.4556,0.4605,0.4605,0.4615,0.4654,0.4955,0.5078,0.5199,0.5736,0.5845,0.0,0.0,0.0,0.6472,0.6665,0.7003,0.7493,0.8166,1.0025,1.2107,1.3558,1.4171,1.4438,1.4451,1.4021,1.3553,1.3465,1.3004,1.259,1.2498,1.2158,1.1807,1.1681,1.1301,1.098,1.0917,1.0572,1.0431,1.0798,1.0245,1.0302,1.1454,1.0898,1.0848,1.1803,1.0986,1.0505,1.0638,1.0149,0.9857,0.9823,1.0622,1.1056,1.1056,1.1957,1.2436,1.2472,1.2582,1.2616,1.2616,1.2616,1.2958,1.3492,1.3492,1.3876,1.4502,1.5144,1.5913,1.6766,1.7054,1.7296,1.7422,1.7009,1.6833,1.6736,0.0,0.0,0.0,0.0,0.0,0.0,0.0,0.0,0.0,0.0,0.0,0.4491,0.4491,0.4491,0.4491,0.4491,0.4389,0.0,0.0,0.0,0.0,0.0,0.0,0.0,0.0,0.0,0.0,0.0,0.0,0.0,0.0,0.497,0.5076,0.0,0.0,0.0,0.0,0.0,0.4569,0.4491,0.4491,0.4542,0.461,0.4525,0.4542,0.4617,0.4681,0.4841,0.5053,0.5314,0.5442,0.5578,0.5911,0.0,0.0,0.0,0.6729,0.7179,0.8342,1.0189,1.2033,1.3083,1.3871,1.4378,1.4324,1.4101,1.3767,1.3386,1.31,1.2829,1.263,1.2406,1.2151,1.1833,1.1615,1.1334,1.1045,1.0832,1.0769,1.0989,1.0951,1.1139,1.174,1.1732,1.1825,1.2182,1.1449,1.0946,1.085,1.0367,0.9979,0.9769,1.0576,1.1062,1.1129,1.1876,1.2302,1.2485,1.2485,1.2485,1.2485,1.2485,1.2645,1.295,1.3354,1.3685,1.4021,1.4747,1.5491,1.6175,1.6347,1.6647,1.6992,1.6775,1.6572,1.6328,0.0,0.0,0.0,0.0,0.0,0.0,0.0,0.0,0.0,0.0,0.0,0.4491,0.4491,0.0,0.0,0.0,0.4365,0.0,0.0,0.0,0.0,0.0,0.0,0.0,0.0,0.0,0.0,0.0,0.0,0.0,0.4887,0.4924,0.5019,0.0,0.5117,0.5039,0.0,0.0,0.4651,0.4549,0.4549,0.4617,0.468,0.4634,0.4679,0.4728,0.4604,0.4706,0.4944,0.4973,0.5089,0.5262,0.5555,0.5701,0.0,0.0,0.0,0.6937,0.839,1.0009,1.1478,1.2394,1.3394,1.4182,1.4186,1.4145,1.3942,1.3338,1.3147,1.3012,1.2662,1.259,1.2467,1.2058,1.1988,1.1872,1.1459,1.1303,1.1233,1.1397,1.1646,1.1833,1.1996,1.2375,1.2529,1.2336,1.1849,1.1437,1.1156,1.0799,1.0458,1.0161,1.0742,1.1083,1.1212,1.1679,1.2003,1.2277,1.2277,1.2277,1.2277,1.2277,1.2277,1.2318,1.3132,1.3602,1.3834,1.4501,1.5219,1.5854,1.5783,1.6072,1.6512,1.6404,1.6191,1.5928,0.0,0.0,0.0,0.0,0.0,0.0,0.0,0.0,0.0,0.0,0.0,0.4491,0.4491,0.4491,0.4491,0.4491,0.4484,0.0,0.0,0.0,0.0,0.0,0.0,0.0,0.0,0.0,0.0,0.0,0.0,0.0,0.4891,0.5026,0.5203,0.5378,0.5196,0.5096,0.5069,0.0,0.4684,0.4677,0.4677,0.4684,0.4707,0.4843,0.487,0.4857,0.4735,0.4713,0.4749,0.4944,0.488,0.4822,0.5273,0.5422,0.5477,0.0,0.0,0.0,0.7914,0.9008,1.0144,1.1506,1.2762,1.3761,1.426,1.4249,1.4005,1.3632,1.3306,1.3012,1.2662,1.259,1.259,1.256,1.2567,1.256,1.2529,1.2089,1.1957,1.2467,1.2089,1.1996,1.2498,1.259,1.2529,1.2336,1.2274,1.2182,1.2027,1.2011,1.1987,1.1965,1.1824,1.1738,1.1762,1.1676,1.1628,1.1643,1.1643,1.1643,1.1643,1.1643,1.1643,1.1711,1.2956,1.39,1.4591,1.5274,1.5968,1.6595,1.6229,1.6094,1.6075,1.5635,1.5459,1.5449,0.0,0.0,0.0,0.0,0.0,0.0,0.0,0.0,0.0,0.0,0.0,0.0,0.0,0.4491,0.4491,0.4491,0.4491,0.0,0.0,0.0,0.0,0.0,0.0,0.0,0.0,0.0,0.0,0.0,0.0,0.4651,0.4775,0.4894,0.5042,0.5216,0.5257,0.5223,0.5093,0.4985,0.4921,0.4836,0.4836,0.4891,0.4938,0.4904,0.4945,0.5005,0.4891,0.4836,0.4836,0.4926,0.4822,0.4744,0.5005,0.5115,0.5235,0.5689,0.6103,0.6536,0.7242,0.8245,0.9231,0.9989,1.1484,1.2883,1.3318,1.3884,1.4206,1.3955,1.3648,1.3339,1.2996,1.275,1.259,1.259,1.259,1.259,1.259,1.2436,1.2375,1.259,1.2436,1.2406,1.259,1.259,1.256,1.2498,1.2498,1.2406,1.2243,1.2212,1.2182,1.2096,1.2027,1.1934,1.1802,1.1654,1.1591,1.1591,1.1591,1.1591,1.1591,1.1591,1.1591,1.1668,1.2954,1.3655,1.3967,1.5044,1.5629,1.5839,1.5713,1.5644,1.5625,1.5469,1.541,1.541,0.0,0.0,0.0,0.4399,0.0,0.4491,0.4491,0.4491,0.0,0.0,0.0,0.0,0.0,0.0,0.4491,0.4491,0.4491,0.0,0.0,0.0,0.0,0.0,0.0,0.0,0.0,0.0,0.0,0.0,0.0,0.0,0.0,0.4847,0.4938,0.5032,0.5165,0.5242,0.5267,0.5152,0.5077,0.5054,0.4989,0.5015,0.5093,0.5084,0.5125,0.5189,0.5012,0.4958,0.4951,0.4904,0.4853,0.4788,0.4827,0.4883,0.5059,0.5582,0.5956,0.632,0.6692,0.7579,0.8495,0.9074,1.0537,1.1992,1.2522,1.3446,1.4159,1.3918,1.3813,1.3656,1.3322,1.3004,1.2734,1.2614,1.2694,1.2734,1.2614,1.259,1.259,1.259,1.259,1.259,1.259,1.259,1.259,1.259,1.259,1.2529,1.2398,1.2406,1.2313,1.2127,1.2096,1.1996,1.1802,1.1709,1.1685,1.1778,1.1685,1.1654,1.1654,1.1622,1.1709,1.195,1.3017,1.3511,1.3601,1.4874,1.541,1.541,1.541,1.541,1.541,1.541,1.541,1.541,0.4595,0.4607,0.4626,0.4688,0.4597,0.4494,0.4491,0.4491,0.4491,0.4491,0.0,0.0,0.0,0.0,0.0,0.0,0.0,0.0,0.0,0.0,0.0,0.0,0.0,0.0,0.0,0.0,0.0,0.0,0.0,0.0,0.0,0.0,0.4881,0.4881,0.4887,0.5171,0.5559,0.525,0.5227,0.5399,0.5198,0.5103,0.512,0.5337,0.5395,0.5375,0.5189,0.5106,0.5083,0.4948,0.4897,0.4867,0.4745,0.4791,0.4973,0.5289,0.564,0.5963,0.0,0.0,0.0,0.871,0.9944,1.1116,1.1872,1.2972,1.3773,1.3468,1.3784,1.3997,1.3656,1.3338,1.3036,1.2678,1.2901,1.3004,1.2662,1.2606,1.2606,1.2606,1.2606,1.2606,1.259,1.2606,1.2606,1.259,1.259,1.259,1.259,1.259,1.2436,1.212,1.2096,1.1996,1.1802,1.1802,1.1903,1.2096,1.1903,1.1802,1.1778,1.1654,1.1919,1.2543,1.3221,1.3502,1.3623,1.4874,1.541,1.541,1.541,1.541,1.541,1.541,1.541,1.541,0.4664,0.4833,0.4896,0.4735,0.4657,0.4617,0.4508,0.4491,0.4491,0.0,0.0,0.0,0.0,0.0,0.0,0.0,0.0,0.0,0.0,0.0,0.0,0.0,0.0,0.0,0.0,0.0,0.0,0.0,0.0,0.0,0.0,0.0,0.0,0.4758,0.487,0.5115,0.5441,0.5205,0.5283,0.5545,0.5371,0.5331,0.5337,0.5378,0.5395,0.5388,0.5347,0.533,0.5324,0.5283,0.5165,0.5015,0.4901,0.4942,0.5088,0.5322,0.5636,0.5966,0.6199,0.0,0.0,0.0,0.0,0.0,1.039,1.1506,1.2611,1.3374,1.3564,1.363,1.3729,1.3784,1.3711,1.3387,1.3211,1.306,1.2957,1.2949,1.2949,1.2949,1.2949,1.2877,1.2622,1.2829,1.2869,1.2614,1.259,1.259,1.259,1.259,1.2498,1.2243,1.2151,1.1996,1.1802,1.1802,1.1778,1.1747,1.1771,1.1747,1.1654,1.1716,1.2011,1.2543,1.3321,1.3872,1.4291,1.5059,1.541,1.541,1.541,1.541,1.541,1.541,1.541,1.541,0.4773,0.4941,0.5046,0.4904,0.4772,0.468,0.4657,0.4573,0.4535,0.0,0.0,0.0,0.0,0.0,0.0,0.0,0.0,0.0,0.0,0.0,0.0,0.4491,0.4491,0.0,0.0,0.0,0.0,0.0,0.0,0.0,0.0,0.0,0.0,0.0,0.4687,0.4938,0.5292,0.51,0.5232,0.5582,0.5528,0.5444,0.5395,0.5458,0.5458,0.5395,0.5395,0.5395,0.5395,0.5395,0.5257,0.5083,0.5002,0.5023,0.512,0.5245,0.5516,0.5832,0.6022,0.6278,0.656,0.6776,0.0,0.0,0.9608,1.0689,1.1781,1.2841,1.3186,1.3382,1.3769,1.3826,1.3818,1.3815,1.364,1.3465,1.3322,1.3298,1.3298,1.3298,1.3298,1.3243,1.3044,1.3084,1.3004,1.2829,1.2678,1.259,1.259,1.259,1.2498,1.2305,1.2158,1.2027,1.1934,1.184,1.1833,1.1903,1.1903,1.205,1.2297,1.229,1.2704,1.3455,1.3923,1.441,1.4913,1.5362,1.5478,1.541,1.541,1.541,1.541,1.5478,1.5546,1.5546,0.0,0.5012,0.51,0.51,0.4914,0.4779,0.487,0.4687,0.4638,0.0,0.0,0.0,0.0,0.0,0.0,0.0,0.0,0.0,0.0,0.0,0.0,0.4491,0.4491,0.4563,0.0,0.0,0.0,0.0,0.0,0.0,0.0,0.0,0.0,0.0,0.4519,0.4762,0.5146,0.5005,0.5206,0.5588,0.5603,0.5555,0.5458,0.555,0.5521,0.5428,0.5395,0.5395,0.5395,0.5395,0.527,0.5123,0.5123,0.5126,0.5139,0.5121,0.5348,0.5629,0.5808,0.602,0.6316,0.6785,0.726,0.0,0.9114,1.0054,1.0922,1.1826,1.2395,1.2908,1.3466,1.3407,1.3375,1.3799,1.3981,1.3937,1.3688,1.3673,1.3673,1.3673,1.3673,1.3624,1.3584,1.3354,1.3171,1.31,1.2789,1.259,1.259,1.259,1.2498,1.2305,1.2182,1.212,1.2096,1.1934,1.1988,1.2274,1.2243,1.2605,1.326,1.3161,1.3704,1.4706,1.4736,1.503,1.5478,1.5643,1.5604,1.5439,1.5439,1.5439,1.5478,1.5643,1.5711,1.574,0.5036,0.5079,0.51,0.51,0.5052,0.4985,0.4901,0.4867,0.485,0.4881,0.0,0.0,0.5002,0.4833,0.0,0.0,0.0,0.0,0.0,0.0,0.4491,0.4491,0.4491,0.4563,0.4687,0.4597,0.0,0.0,0.0,0.0,0.0,0.0,0.0,0.0,0.4605,0.4785,0.4964,0.5203,0.5419,0.5594,0.5597,0.5681,0.5789,0.565,0.5583,0.5554,0.5425,0.5395,0.5395,0.5395,0.5375,0.5351,0.5351,0.533,0.5348,0.535,0.5453,0.5607,0.564,0.5919,0.6222,0.632,0.6634,0.0,0.7892,0.8348,0.8891,0.9982,1.0433,1.0761,1.132,1.1922,1.239,1.2482,1.3179,1.3762,1.3987,1.4013,1.4013,1.4013,1.4013,1.3894,1.3642,1.3783,1.3688,1.3132,1.2789,1.259,1.259,1.259,1.2498,1.2305,1.2274,1.2212,1.2096,1.2182,1.2182,1.2158,1.2758,1.3047,1.307,1.3704,1.4293,1.4855,1.5021,1.5362,1.5827,1.5856,1.5769,1.5643,1.5643,1.5701,1.5788,1.573,1.5769,1.5885,0.5069,0.5192,0.5247,0.5247,0.5182,0.51,0.5138,0.5016,0.4972,0.5121,0.5142,0.5135,0.51,0.4968,0.4911,0.4887,0.0,0.0,0.4684,0.4576,0.4491,0.4491,0.4491,0.4525,0.4604,0.4528,0.0,0.0,0.0,0.0,0.0,0.0,0.0,0.0,0.4723,0.4913,0.5299,0.5361,0.5585,0.5894,0.5888,0.59,0.5888,0.5785,0.5683,0.5583,0.5458,0.5395,0.5395,0.5395,0.5395,0.5395,0.5395,0.5395,0.5411,0.5404,0.5465,0.5503,0.5585,0.5752,0.5947,0.6145,0.6309,0.0,0.0,0.7767,0.8122,0.9148,0.9359,0.9508,1.0042,1.0412,1.0803,1.1229,1.2153,1.2856,1.3054,1.3766,1.4273,1.4336,1.4344,1.4272,1.4132,1.4109,1.3831,1.3147,1.2925,1.2781,1.2606,1.259,1.256,1.2467,1.2336,1.2274,1.2212,1.2212,1.2212,1.2212,1.2942,1.3472,1.3765,1.4481,1.504,1.5507,1.5613,1.5739,1.5914,1.5961,1.5951,1.5894,1.5817,1.5827,1.5885,1.5904,1.5951,1.6019,0.5069,0.5233,0.5358,0.5388,0.5257,0.5216,0.5375,0.5159,0.5091,0.5361,0.5395,0.5347,0.5189,0.5117,0.5076,0.5053,0.4857,0.4758,0.4846,0.4651,0.4549,0.4576,0.4522,0.4505,0.4535,0.4505,0.0,0.0,0.0,0.0,0.0,0.0,0.4654,0.4941,0.4847,0.5121,0.5634,0.5593,0.5797,0.6192,0.6241,0.6148,0.5987,0.5954,0.5818,0.565,0.5458,0.5395,0.5395,0.5395,0.5395,0.5395,0.5395,0.5395,0.5395,0.5395,0.5395,0.5428,0.5521,0.5583,0.5683,0.6013,0.6145,0.6408,0.0,0.0,0.0,0.8409,0.8412,0.8456,0.8911,0.8939,0.9171,0.9892,1.0863,1.1552,1.1688,1.2983,1.4032,1.4359,1.4458,1.4533,1.4569,1.4225,1.3815,1.3322,1.31,1.2925,1.271,1.263,1.259,1.259,1.2428,1.2398,1.2513,1.2428,1.2482,1.2658,1.3381,1.4043,1.4647,1.5294,1.5797,1.6153,1.6153,1.6105,1.6,1.6095,1.6153,1.6142,1.599,1.5972,1.6,1.6066,1.6114,1.6181,0.5069,0.5113,0.5199,0.5371,0.5382,0.5375,0.5392,0.5365,0.5354,0.5392,0.5395,0.5388,0.5371,0.5213,0.5201,0.5491,0.5131,0.5003,0.53,0.4924,0.4724,0.486,0.4634,0.4552,0.4663,0.4559,0.0,0.0,0.0,0.0,0.0,0.0,0.4573,0.4745,0.5016,0.5258,0.5472,0.5906,0.6139,0.6223,0.6343,0.635,0.6317,0.6214,0.605,0.5822,0.5528,0.5395,0.5395,0.5395,0.5395,0.5395,0.5395,0.5395,0.5395,0.5395,0.5395,0.5395,0.5428,0.5521,0.5617,0.565,0.5947,0.6243,0.6342,0.0,0.6613,0.69,0.0,0.6972,0.7162,0.0,0.0,0.8248,0.9121,0.9876,1.0203,1.1323,1.2517,1.3564,1.3996,1.4238,1.4425,1.3968,1.3743,1.3982,1.3172,1.2773,1.302,1.2766,1.259,1.259,1.259,1.2828,1.3359,1.3359,1.3563,1.4004,1.4776,1.5147,1.5147,1.5923,1.6316,1.6374,1.6374,1.6345,1.6345,1.6345,1.6374,1.6345,1.6153,1.6192,1.6316,1.6153,1.621,1.6374,0.5069,0.5203,0.5284,0.5385,0.5395,0.5395,0.5395,0.547,0.5494,0.5405,0.5474,0.5528,0.5528,0.5437,0.5447,0.5579,0.5335,0.5189,0.5223,0.4975,0.4853,0.4884,0.4711,0.4655,0.4691,0.4569,0.4491,0.0,0.4491,0.0,0.0,0.0,0.4674,0.4991,0.5137,0.5438,0.5871,0.6093,0.6237,0.631,0.6388,0.6387,0.6383,0.6247,0.6013,0.5686,0.5495,0.5395,0.5395,0.5395,0.5395,0.5395,0.5395,0.5395,0.5395,0.5395,0.5395,0.5395,0.5395,0.5425,0.5488,0.5583,0.5716,0.5881,0.5984,0.6053,0.6119,0.6218,0.0,0.0,0.0,0.0,0.0,0.0,0.7913,0.8641,0.8799,0.9964,1.1099,1.2026,1.2972,1.3673,1.4069,1.3854,1.3813,1.4066,1.3521,1.3172,1.3092,1.2981,1.2805,1.2598,1.295,1.3238,1.3511,1.3902,1.4163,1.4371,1.5079,1.5381,1.5352,1.6077,1.6413,1.6413,1.6413,1.6413,1.6413,1.6413,1.6413,1.6374,1.6306,1.6345,1.6374,1.6306,1.6345,1.6413,0.5079,0.5254,0.5395,0.5395,0.5395,0.5395,0.5395,0.5491,0.5521,0.5409,0.5491,0.5542,0.5586,0.5589,0.5623,0.5705,0.5572,0.5433,0.5288,0.5142,0.504,0.504,0.4857,0.4772,0.4809,0.4651,0.4552,0.4552,0.4511,0.0,0.0,0.0,0.0,0.5056,0.5196,0.5567,0.6071,0.6189,0.6298,0.6383,0.6363,0.6343,0.6343,0.6176,0.5948,0.5647,0.5481,0.537,0.5341,0.5382,0.5363,0.5341,0.5382,0.5395,0.5395,0.5395,0.5395,0.5395,0.5395,0.5395,0.5428,0.5521,0.5583,0.565,0.5785,0.5855,0.5888,0.5888,0.5893,0.0,0.0,0.0,0.5971,0.6226,0.0,0.745,0.755,0.8618,0.9688,1.0606,1.1906,1.2886,1.329,1.3401,1.3629,1.4032,1.3628,1.3345,1.3235,1.3139,1.2965,1.2606,1.3186,1.3601,1.3773,1.441,1.4824,1.4942,1.5449,1.5652,1.5613,1.6163,1.6413,1.6413,1.6413,1.6413,1.6413,1.6413,1.6413,1.6413,1.6413,1.6413,1.6413,1.6413,1.6413,1.6413,0.5096,0.5254,0.5395,0.5395,0.5395,0.5395,0.5395,0.5399,0.5399,0.5395,0.5399,0.5457,0.5576,0.5589,0.5705,0.5952,0.5874,0.5786,0.5779,0.5542,0.5382,0.5382,0.5067,0.4945,0.5079,0.4833,0.4684,0.4684,0.4563,0.4491,0.0,0.0,0.0,0.0,0.5206,0.552,0.5752,0.6205,0.6412,0.6404,0.6257,0.6215,0.6188,0.6002,0.5907,0.5856,0.5505,0.5263,0.5128,0.535,0.5269,0.5133,0.5347,0.5395,0.5395,0.5395,0.5395,0.5395,0.5395,0.5395,0.5395,0.5395,0.5488,0.5617,0.5617,0.5752,0.5888,0.5888,0.5885,0.5914,0.5914,0.5912,0.5895,0.5899,0.6037,0.0,0.0,0.7199,0.827,0.9579,1.0987,1.186,1.1867,1.2347,1.2999,1.3827,1.3249,1.304,1.3553,1.3267,1.2965,1.2606,1.3186,1.3803,1.4469,1.5059,1.5584,1.6056,1.6278,1.6278,1.6085,1.6306,1.6413,1.6413,1.6413,1.6413,1.6413,1.6413,1.6413,1.6413,1.6413,1.6413,1.6413,1.6413,1.6413,1.6413,0.5264,0.5358,0.5395,0.5395,0.5395,0.5429,0.5532,0.5545,0.5579,0.564,0.565,0.5711,0.5864,0.5881,0.5885,0.5983,0.5946,0.5911,0.581,0.562,0.5555,0.5647,0.527,0.5128,0.5281,0.4992,0.4843,0.4843,0.4792,0.4765,0.0,0.0,0.0,0.0,0.5132,0.5428,0.5713,0.6107,0.6317,0.6412,0.6351,0.6286,0.618,0.5994,0.5899,0.5875,0.5773,0.5558,0.5398,0.6037,0.6124,0.6063,0.6547,0.6736,0.6638,0.6207,0.6075,0.598,0.5524,0.5719,0.5947,0.5524,0.5782,0.6009,0.5554,0.5524,0.5561,0.5561,0.5657,0.5686,0.5686,0.5811,0.5904,0.5904,0.6048,0.6149,0.0,0.6414,0.6901,0.763,0.8908,1.0205,1.1349,1.1622,1.2325,1.3785,1.346,1.3418,1.3918,1.36,1.3453,1.353,1.3943,1.4469,1.5089,1.5749,1.6134,1.6306,1.6374,1.6374,1.6306,1.6374,1.6413,1.6413,1.6413,1.6413,1.6413,1.6413,1.6413,1.6413,1.6413,1.6413,1.6413,1.6413,1.6413,1.6413,0.5375,0.5395,0.5395,0.5395,0.544,0.5511,0.5576,0.5633,0.5698,0.5789,0.58,0.5861,0.5976,0.5993,0.6013,0.6108,0.6112,0.6023,0.5817,0.5766,0.5739,0.5728,0.5494,0.5393,0.5477,0.5203,0.505,0.4965,0.4914,0.4887,0.0,0.0,0.0,0.0,0.5157,0.5428,0.5717,0.6178,0.6373,0.6412,0.6347,0.6282,0.6207,0.6333,0.6364,0.631,0.6018,0.5899,0.5919,0.6221,0.6343,0.6476,0.6902,0.7173,0.7214,0.6763,0.6422,0.6161,0.6039,0.6152,0.629,0.6162,0.6437,0.6568,0.5914,0.5752,0.5752,0.5752,0.562,0.5617,0.5844,0.5848,0.5771,0.5716,0.5864,0.5932,0.0,0.6032,0.6289,0.6557,0.7917,0.9273,1.0464,1.1067,1.1992,1.3401,1.3296,1.3421,1.3947,1.3682,1.3655,1.3998,1.4317,1.4795,1.5381,1.6048,1.6413,1.6413,1.6413,1.6413,1.6413,1.6413,1.6413,1.6413,1.6413,1.6413,1.6413,1.6413,1.6413,1.6413,1.6413,1.6413,1.6413,1.6413,1.6413,1.6413,0.5395,0.5399,0.5405,0.5405,0.5521,0.5586,0.5606,0.5715,0.5796,0.581,0.5813,0.5867,0.5976,0.6,0.6101,0.6286,0.63,0.6177,0.5844,0.5952,0.5908,0.5637,0.5739,0.5742,0.5613,0.5487,0.5301,0.512,0.4978,0.4942,0.0,0.0,0.0,0.0,0.5263,0.5501,0.5756,0.6396,0.6574,0.6392,0.6257,0.6215,0.627,0.6961,0.7212,0.7094,0.6306,0.6319,0.6599,0.5997,0.6089,0.6461,0.6542,0.6865,0.7199,0.7168,0.6586,0.6111,0.6893,0.6724,0.6483,0.721,0.7419,0.7288,0.6597,0.6465,0.6465,0.6465,0.5947,0.5686,0.6301,0.5972,0.5599,0.5428,0.5519,0.5614,0.562,0.6058,0.6367,0.6407,0.7923,0.9061,0.9285,1.0661,1.1895,1.2751,1.2781,1.3093,1.3797,1.3478,1.3524,1.4055,1.4357,1.4824,1.5439,1.6077,1.6413,1.6413,1.6413,1.6413,1.6413,1.6413,1.6413,1.6413,1.6413,1.6413,1.6413,1.6413,1.6413,1.6413,1.6413,1.6413,1.6413,1.6413,1.6413,1.6413,0.5395,0.5487,0.5532,0.5532,0.5504,0.5566,0.5867,0.5762,0.5725,0.5905,0.5936,0.5949,0.599,0.6132,0.6255,0.6296,0.63,0.6265,0.6187,0.6071,0.6047,0.6126,0.5905,0.5837,0.5878,0.5664,0.5511,0.5471,0.5321,0.5279,0.5276,0.0,0.0,0.0,0.53,0.5511,0.5717,0.6158,0.6314,0.6253,0.6314,0.6298,0.6287,0.7127,0.7408,0.7463,0.773,0.7412,0.6968,0.7842,0.779,0.7537,0.8409,0.8784,0.8798,0.8276,0.8064,0.7863,0.7421,0.7688,0.7955,0.7502,0.7809,0.8037,0.7316,0.7251,0.7381,0.7381,0.7218,0.7022,0.6691,0.6396,0.6027,0.5475,0.5528,0.5696,0.6004,0.6037,0.6103,0.6355,0.7824,0.8926,0.9279,1.011,1.1233,1.2684,1.2572,1.2949,1.4174,1.3419,1.3599,1.5081,1.4705,1.504,1.6134,1.6316,1.6413,1.6413,1.6413,1.6413,1.6413,1.6413,1.6413,1.6413,1.6413,1.6413,1.6413,1.6413,1.6413,1.6413,1.6413,1.6413,1.6413,1.6413,1.6413,1.6413,0.5494,0.5633,0.5783,0.5783,0.5711,0.5739,0.5952,0.5945,0.5918,0.5979,0.5993,0.5966,0.5935,0.6067,0.6159,0.6159,0.6259,0.6272,0.6166,0.6142,0.6139,0.6159,0.6057,0.601,0.5993,0.58,0.565,0.5589,0.547,0.5395,0.5392,0.0,0.0,0.0,0.5485,0.5683,0.5944,0.6175,0.6338,0.642,0.6412,0.6551,0.0,0.7636,0.7939,0.8069,0.9069,0.8622,0.7705,0.835,0.8425,0.8361,0.8888,0.9235,0.9392,0.9003,0.8734,0.8542,0.8439,0.8555,0.8704,0.8559,0.8844,0.8945,0.8101,0.8116,0.8227,0.8122,0.796,0.78,0.7725,0.7074,0.6268,0.5524,0.5513,0.5686,0.5902,0.6002,0.6097,0.6282,0.7413,0.8297,0.8559,0.9983,1.1312,1.2376,1.241,1.286,1.3848,1.3206,1.3484,1.4941,1.4329,1.4617,1.5961,1.5951,1.6105,1.6413,1.6413,1.6413,1.6413,1.6413,1.6413,1.6413,1.6413,1.6413,1.6413,1.6413,1.6413,1.6413,1.6413,1.6413,1.6413,1.6413,1.6413,1.6413,0.5647,0.5871,0.6016,0.5996,0.601,0.6023,0.6023,0.6159,0.6183,0.601,0.601,0.6003,0.5847,0.5969,0.6013,0.5993,0.6152,0.6166,0.5973,0.6146,0.6169,0.5996,0.6176,0.6238,0.6027,0.5911,0.5762,0.5616,0.5498,0.5416,0.5425,0.0,0.0,0.0,0.5735,0.5944,0.6247,0.635,0.6513,0.6643,0.6481,0.6778,0.7423,0.8199,0.8458,0.8554,1.0072,0.9684,0.8484,0.8355,0.8619,0.9017,0.878,0.9046,0.9488,0.9488,0.9084,0.8807,0.9542,0.9377,0.9147,0.9825,0.9983,0.9787,0.8974,0.8968,0.9044,0.8823,0.8452,0.8324,0.8828,0.7757,0.6555,0.5785,0.5804,0.5919,0.5907,0.6226,0.6514,0.6514,0.7278,0.0,0.7837,0.9983,1.1534,1.1812,1.2189,1.2623,1.3215,1.2871,1.315,1.4213,1.3692,1.4013,1.5264,1.5449,1.5778,1.6259,1.6345,1.6413,1.6413,1.6413,1.6413,1.6413,1.6413,1.6413,1.6413,1.6413,1.6413,1.6413,1.6413,1.6413,1.6413,1.6413,1.6413,1.6413,0.5915,0.6098,0.6179,0.6016,0.6135,0.6259,0.6259,0.6135,0.6023,0.5996,0.6142,0.6162,0.5969,0.6129,0.6169,0.6003,0.6016,0.6006,0.585,0.5983,0.602,0.5993,0.6176,0.6286,0.6259,0.6067,0.5915,0.5766,0.562,0.5552,0.555,0.0,0.0,0.5855,0.6019,0.622,0.635,0.6383,0.6403,0.6465,0.6399,0.6482,0.6745,0.8004,0.8166,0.7939,0.9913,0.9684,0.8651,0.9588,0.9594,0.9306,0.9626,0.9818,0.9907,0.9907,0.9939,0.9976,0.9964,0.9977,1.0015,1.0009,0.9983,0.997,0.9793,0.9737,0.9715,0.967,0.9391,0.9021,0.858,0.7865,0.7281,0.7007,0.7402,0.7666,0.744,0.7825,0.8086,0.8109,0.8881,0.916,0.8576,0.9602,1.0488,1.0981,1.1486,1.2081,1.2856,1.231,1.2577,1.3852,1.4009,1.4243,1.4647,1.5691,1.6019,1.5594,1.6134,1.6413,1.6413,1.6413,1.6413,1.6413,1.6413,1.6413,1.6413,1.6413,1.6413,1.6413,1.6413,1.6413,1.6413,1.6413,1.6413,1.6413,0.6363,0.6437,0.6441,0.6285,0.6318,0.6385,0.631,0.6235,0.6122,0.6003,0.6095,0.6081,0.5928,0.6047,0.6112,0.6,0.6101,0.6118,0.6081,0.6108,0.6149,0.6149,0.6259,0.63,0.63,0.6108,0.5919,0.58,0.5657,0.561,0.5617,0.5617,0.5749,0.6057,0.6346,0.6439,0.6391,0.6513,0.6501,0.6387,0.6387,0.6839,0.7554,0.8231,0.8522,0.8716,1.0104,0.9907,0.9166,1.0009,1.0079,0.9856,0.9951,1.0079,1.0149,1.0149,1.0301,1.0434,1.0339,1.0364,1.0434,1.0339,1.0308,1.0268,1.0081,1.0036,0.9959,0.9837,0.9662,0.9324,0.8539,0.8234,0.7871,0.7299,0.7497,0.7759,0.7794,0.8002,0.8217,0.8474,0.8877,0.8967,0.8646,0.9384,1.0079,1.0503,1.1192,1.1836,1.2347,1.2074,1.229,1.3092,1.3414,1.3885,1.4499,1.542,1.5894,1.5923,1.6259,1.6413,1.6413,1.6413,1.6413,1.6413,1.6413,1.6413,1.6413,1.6413,1.6413,1.6413,1.6413,1.6413,1.6413,1.6413,1.6413,1.6413,0.6725,0.6722,0.6654,0.6538,0.6487,0.6429,0.6317,0.63,0.6255,0.6095,0.6078,0.6034,0.5911,0.6006,0.6064,0.5996,0.6142,0.6238,0.6204,0.6231,0.6248,0.6248,0.6282,0.63,0.63,0.6142,0.6003,0.585,0.5743,0.5693,0.57,0.573,0.5933,0.6311,0.6593,0.6635,0.6538,0.6635,0.6595,0.6469,0.6432,0.7162,0.8296,0.8458,0.8909,0.9582,1.0333,1.0231,0.9811,1.0238,1.0371,1.0339,1.0174,1.0238,1.0371,1.0371,1.0466,1.0593,1.0593,1.0593,1.0593,1.0593,1.0593,1.0512,1.018,1.0067,0.994,0.9646,0.9539,0.9306,0.8654,0.8628,0.846,0.7642,0.7692,0.7885,0.8069,0.8212,0.8412,0.8801,0.883,0.882,0.8775,0.9441,0.9988,1.0262,1.1076,1.1638,1.1886,1.1901,1.2062,1.2351,1.2911,1.3554,1.4231,1.5147,1.5807,1.6202,1.6316,1.6413,1.6413,1.6413,1.6413,1.6413,1.6413,1.6413,1.6413,1.6413,1.6413,1.6413,1.6413,1.6413,1.6413,1.6413,1.6459,1.6563,0.6862,0.6797,0.6654,0.6538,0.6405,0.6317,0.6303,0.63,0.6293,0.6279,0.6279,0.6272,0.6259,0.6269,0.6183,0.6003,0.6003,0.5993,0.5854,0.5973,0.6013,0.6013,0.6186,0.63,0.63,0.6286,0.6162,0.5973,0.6042,0.6068,0.6043,0.6122,0.6334,0.6668,0.6688,0.6808,0.6926,0.6775,0.6702,0.6669,0.6481,0.6872,0.7652,0.8264,0.8909,0.9582,1.0333,1.0561,1.0498,1.0555,1.0561,1.0561,1.0561,1.0561,1.0561,1.0561,1.0593,1.0593,1.0593,1.0593,1.0593,1.0593,1.0593,1.0512,1.018,0.9913,0.9639,0.9317,0.9044,0.8891,0.8927,0.9054,0.9088,0.8867,0.9182,0.9395,0.9099,0.9538,0.9908,0.9934,0.994,0.9884,0.9685,0.9903,1.0146,1.0299,1.0951,1.1411,1.1635,1.1635,1.1698,1.1854,1.3177,1.3765,1.342,1.5332,1.6038,1.5497,1.6105,1.6413,1.6413,1.6413,1.6413,1.6413,1.6413,1.6413,1.6413,1.6413,1.6413,1.6413,1.6413,1.6413,1.6413,1.6413,1.6712,1.7129,0.6903,0.6807,0.6654,0.6538,0.6395,0.63,0.63,0.63,0.63,0.63,0.63,0.63,0.63,0.63,0.6276,0.6173,0.6169,0.6142,0.6119,0.6135,0.6169,0.6169,0.6265,0.63,0.63,0.63,0.6259,0.6172,0.6224,0.6299,0.6463,0.6499,0.6638,0.689,0.6964,0.6932,0.6837,0.6865,0.6751,0.6547,0.6902,0.7489,0.8166,0.8844,0.9556,1.0199,1.0491,1.0593,1.0593,1.0593,1.0593,1.0593,1.0593,1.0593,1.0593,1.0593,1.0593,1.0593,1.0593,1.0593,1.0593,1.0593,1.0593,1.0512,1.018,0.9893,0.9599,0.9277,0.8984,0.8818,0.8884,0.8995,0.902,0.8903,0.9093,0.9266,0.9203,0.9564,0.986,0.986,1.0258,1.0416,1.0164,1.0479,1.0755,1.0899,1.1062,1.1374,1.1823,1.2024,1.2134,1.2093,1.3687,1.4323,1.3825,1.5536,1.6259,1.599,1.6259,1.6413,1.6413,1.6413,1.6413,1.6413,1.6413,1.6413,1.6413,1.6413,1.6413,1.6413,1.6413,1.6591,1.687,1.687,1.7251,1.7793,0.6913,0.6807,0.6654,0.6538,0.6395,0.63,0.63,0.6335,0.6374,0.6374,0.6451,0.6412,0.63,0.63,0.63,0.63,0.63,0.63,0.63,0.63,0.63,0.63,0.63,0.63,0.63,0.6377,0.6395,0.6389,0.6455,0.6563,0.6744,0.6765,0.6877,0.7073,0.7167,0.7086,0.6859,0.6959,0.6812,0.656,0.7222,0.7912,0.8587,0.923,0.9945,1.0593,1.0593,1.0593,1.0593,1.0593,1.0593,1.0593,1.0593,1.0593,1.0593,1.0593,1.0593,1.0593,1.0593,1.0593,1.0593,1.0593,1.0593,1.0492,1.0074,0.9833,0.9573,0.9164,0.8924,0.8804,0.8804,0.887,0.8916,0.8811,0.8877,0.8982,0.9057,0.9365,0.9552,0.9552,1.0002,1.0366,1.0453,1.0686,1.0986,1.1358,1.1317,1.1506,1.2108,1.2437,1.2631,1.2703,1.4189,1.4825,1.451,1.5768,1.6413,1.6413,1.6413,1.6413,1.6413,1.6413,1.6413,1.6413,1.6413,1.6413,1.6413,1.6413,1.6413,1.6413,1.6563,1.687,1.723,1.7396,1.7847,1.8429,0.6913,0.6807,0.6654,0.6538,0.6395,0.63,0.63,0.649,0.6602,0.6602,0.6749,0.6753,0.6338,0.63,0.63,0.63,0.63,0.63,0.63,0.63,0.63,0.63,0.63,0.63,0.63,0.649,0.6602,0.6598,0.6776,0.6878,0.6912,0.6961,0.7086,0.7183,0.7187,0.7187,0.7171,0.7065,0.6886,0.6744,0.7281,0.7912,0.8587,0.923,0.9945,1.0593,1.0593,1.0593,1.0593,1.0593,1.0593,1.0593,1.0593,1.0593,1.0593,1.0593,1.0593,1.0593,1.0593,1.0593,1.0593,1.0593,1.0593,1.0439,0.9849,0.9715,0.9519,0.8931,0.8811,0.8804,0.8804,0.8811,0.8811,0.8804,0.8811,0.8811,0.8811,0.9038,0.9217,0.9217,0.9224,0.9593,1.0504,1.0353,1.0615,1.1547,1.1591,1.1856,1.2458,1.2704,1.307,1.3657,1.4688,1.5196,1.5206,1.598,1.6413,1.6413,1.6413,1.6413,1.6413,1.6413,1.6413,1.6413,1.6413,1.6413,1.6413,1.6413,1.6413,1.6459,1.6972,1.7202,1.7285,1.7863,1.8483,1.8987,0.6647,0.6661,0.6661,0.6602,0.6609,0.6649,0.6694,0.6753,0.6788,0.6788,0.6865,0.6865,0.6714,0.6602,0.6451,0.63,0.63,0.63,0.63,0.6412,0.6451,0.63,0.6563,0.6641,0.6525,0.6714,0.6868,0.7026,0.7088,0.7171,0.7319,0.7338,0.7384,0.7395,0.7277,0.7155,0.7065,0.6878,0.6664,0.6601,0.7741,0.8296,0.8619,0.9811,1.0521,1.0861,1.0667,1.072,1.0854,1.066,1.0593,1.0593,1.0593,1.0593,1.0593,1.0593,1.0593,1.0593,1.0593,1.0593,1.0593,1.0593,1.0593,1.0486,1.0067,0.9637,0.9244,0.8884,0.8804,0.8804,0.8804,0.8804,0.8804,0.8804,0.8804,0.8804,0.8804,0.9031,0.9239,0.9384,0.9851,1.0321,1.0756,1.1005,1.1279,1.1577,1.1591,1.1954,1.2798,1.311,1.3522,1.403,1.5114,1.5507,1.5196,1.599,1.6413,1.6413,1.6413,1.6413,1.6413,1.6413,1.6413,1.6413,1.6413,1.6413,1.6413,1.6413,1.6609,1.6972,1.7118,1.7699,1.8456,1.8655,1.9081,1.9552,0.6576,0.6634,0.6723,0.677,0.6813,0.6867,0.7058,0.7064,0.7068,0.7194,0.723,0.7219,0.7202,0.7094,0.6849,0.6461,0.649,0.649,0.6412,0.6602,0.6637,0.6525,0.6749,0.6826,0.6714,0.6907,0.7061,0.7184,0.7296,0.7369,0.7484,0.7484,0.7484,0.7476,0.7301,0.7127,0.698,0.6865,0.671,0.6651,0.8156,0.8759,0.8925,1.0352,1.0995,1.1129,1.0949,1.1002,1.1129,1.0949,1.0847,1.0754,1.0754,1.068,1.0593,1.0593,1.0593,1.0593,1.0593,1.0593,1.0593,1.0593,1.0593,1.0512,1.018,0.9637,0.9191,0.9152,0.8958,0.8838,0.8918,0.8878,0.8844,0.8924,0.8944,0.8944,0.8944,0.9098,0.9273,0.9467,0.9909,1.0374,1.0846,1.1176,1.1398,1.1584,1.1591,1.1947,1.2767,1.3378,1.393,1.4464,1.5527,1.5933,1.5652,1.6134,1.6413,1.6413,1.6413,1.6413,1.6413,1.6413,1.6413,1.6413,1.6413,1.6506,1.6694,1.6694,1.7039,1.7562,1.7793,1.8348,1.9013,1.9225,1.9526,1.9798,0.6702,0.6709,0.6836,0.7071,0.7001,0.7002,0.7387,0.7346,0.7372,0.7689,0.7757,0.7797,0.7712,0.7732,0.744,0.6737,0.6813,0.6845,0.6655,0.6795,0.6903,0.6903,0.6942,0.6942,0.6903,0.7103,0.7219,0.7219,0.7407,0.7484,0.7484,0.7484,0.7484,0.7476,0.7301,0.7131,0.7008,0.6996,0.6886,0.688,0.8523,0.9206,0.9381,1.0833,1.1402,1.1422,1.1395,1.1402,1.1415,1.1395,1.1243,1.1022,1.1022,1.0854,1.062,1.06,1.0593,1.0593,1.0593,1.0593,1.0593,1.0593,1.0593,1.0512,1.018,0.9664,0.9344,0.9633,0.9252,0.8951,0.9198,0.9024,0.8958,0.9198,0.9244,0.9244,0.9244,0.9244,0.9334,0.9549,0.9584,0.9953,1.0846,1.0934,1.1117,1.1569,1.1591,1.1856,1.242,1.3425,1.4264,1.4875,1.5855,1.6374,1.6413,1.6413,1.6413,1.6413,1.6413,1.6413,1.6413,1.6413,1.6413,1.6413,1.6431,1.674,1.7202,1.7257,1.7617,1.8228,1.8762,1.9013,1.9119,1.963,1.9798,1.9798,0.6702,0.6961,0.7172,0.7303,0.7522,0.7674,0.7826,0.7821,0.7837,0.7922,0.7938,0.7926,0.7926,0.793,0.7778,0.7456,0.7209,0.7015,0.6976,0.7056,0.7061,0.6903,0.7211,0.7292,0.7142,0.733,0.7446,0.7446,0.7484,0.7484,0.7484,0.7484,0.7484,0.7476,0.7301,0.7167,0.7151,0.7049,0.6963,0.7068,0.8584,0.9206,0.9381,1.0833,1.1563,1.1737,1.151,1.157,1.173,1.1503,1.1342,1.1323,1.1323,1.1122,1.0881,1.066,1.0593,1.0593,1.0593,1.0593,1.0593,1.0593,1.0593,1.0512,1.018,0.9977,0.9866,0.9713,0.9573,0.9499,0.9566,0.9526,0.9499,0.9566,0.9579,0.9579,0.9579,0.9659,0.9884,1.0293,1.0468,1.0803,1.1376,1.1419,1.148,1.1591,1.1591,1.1654,1.1802,1.3213,1.4264,1.4875,1.5719,1.6239,1.6413,1.6413,1.6413,1.6413,1.6413,1.6413,1.6413,1.6413,1.6413,1.6431,1.6842,1.7073,1.723,1.7699,1.8228,1.8789,1.8934,1.9239,1.963,1.9747,1.9798,1.9798,0.6958,0.7165,0.7389,0.7715,0.7854,0.799,0.8225,0.8122,0.8073,0.8243,0.8191,0.8174,0.826,0.8268,0.8225,0.8102,0.7736,0.7469,0.7388,0.7505,0.7494,0.7336,0.7528,0.753,0.7334,0.7446,0.7484,0.7484,0.7484,0.7484,0.7484,0.7484,0.7484,0.7476,0.7301,0.7187,0.7183,0.7123,0.7078,0.7191,0.8471,0.9197,0.9663,1.082,1.1602,1.2044,1.1884,1.1931,1.2044,1.1877,1.1737,1.163,1.163,1.143,1.1156,1.1002,1.0801,1.0593,1.0593,1.0593,1.0593,1.0593,1.0593,1.0553,1.0354,1.0214,1.0107,1.0117,0.9903,0.9726,0.986,0.9773,0.9726,0.986,0.9969,1.0028,1.0028,1.0146,1.0349,1.0696,1.0838,1.1088,1.1562,1.1591,1.1591,1.1591,1.1591,1.1709,1.2011,1.3183,1.4055,1.4471,1.5642,1.6278,1.6413,1.6413,1.6413,1.6413,1.6413,1.6413,1.6413,1.6413,1.6534,1.6768,1.7073,1.7506,1.8038,1.8375,1.8857,1.937,1.937,1.954,1.9798,1.9798,1.9798,1.9798,0.7318,0.7429,0.7598,0.8129,0.8084,0.8127,0.8544,0.83,0.8211,0.8571,0.843,0.8394,0.8596,0.8612,0.8612,0.8612,0.8256,0.7974,0.7812,0.7885,0.791,0.7808,0.78,0.771,0.7488,0.7484,0.7484,0.7484,0.7484,0.7484,0.7484,0.7484,0.7484,0.7476,0.733,0.7227,0.7227,0.7227,0.7227,0.7314,0.8292,0.9188,0.997,1.0807,1.1595,1.2305,1.2305,1.2305,1.2305,1.2305,1.2138,1.1973,1.1973,1.173,1.149,1.149,1.1116,1.072,1.072,1.0687,1.0646,1.06,1.0593,1.0593,1.0593,1.0399,1.0254,1.0539,1.0191,0.9893,1.014,0.998,0.99,1.014,1.0333,1.0461,1.0461,1.0606,1.0737,1.0875,1.0898,1.1096,1.1496,1.1518,1.154,1.1591,1.1591,1.1895,1.2512,1.3317,1.3867,1.4174,1.5594,1.6374,1.6413,1.6413,1.6413,1.6413,1.6413,1.6413,1.6413,1.6413,1.6684,1.7202,1.7285,1.7984,1.9013,1.9093,1.9396,1.9798,1.9798,1.9798,1.9798,1.9798,1.9798,1.9798,0.7811,0.7946,0.8082,0.8193,0.836,0.8536,0.8608,0.8563,0.8547,0.8604,0.8588,0.858,0.8608,0.8612,0.8612,0.8612,0.8369,0.8247,0.8205,0.7967,0.7829,0.7804,0.78,0.771,0.7488,0.7484,0.7484,0.7484,0.7484,0.7484,0.7484,0.7484,0.7484,0.748,0.7456,0.7443,0.7443,0.7443,0.7443,0.752,0.8347,0.9188,0.997,1.0807,1.1595,1.2305,1.2305,1.2305,1.2305,1.2305,1.2271,1.2231,1.2231,1.2037,1.1832,1.1832,1.1557,1.1289,1.1289,1.1109,1.0868,1.0653,1.0593,1.0593,1.0593,1.0553,1.0539,1.0579,1.0519,1.0472,1.0512,1.0486,1.0472,1.0512,1.0645,1.0732,1.0732,1.0982,1.11,1.0859,1.0987,1.1092,1.118,1.118,1.1298,1.1569,1.1591,1.1957,1.2704,1.3515,1.4264,1.4991,1.5758,1.622,1.6413,1.6413,1.6413,1.6413,1.6413,1.6413,1.6413,1.6413,1.6684,1.723,1.7727,1.8348,1.904,1.95,1.9721,1.9798,1.9798,1.9798,1.9798,1.9798,1.9798,1.9798,0.8028,0.8113,0.8201,0.8384,0.852,0.8612,0.8612,0.8612,0.8612,0.8612,0.8612,0.8612,0.8612,0.8612,0.8612,0.8612,0.8531,0.8482,0.8482,0.8237,0.8,0.7902,0.7992,0.7959,0.7677,0.7669,0.762,0.7484,0.7484,0.7484,0.7484,0.7484,0.7484,0.7484,0.7484,0.7484,0.7484,0.7484,0.7484,0.7557,0.836,0.9188,0.997,1.0807,1.1595,1.2305,1.2305,1.2305,1.2305,1.2305,1.2305,1.2305,1.2305,1.2211,1.2104,1.2104,1.1784,1.1389,1.1389,1.1295,1.1156,1.0868,1.0827,1.0787,1.0626,1.0593,1.0624,1.0681,1.0713,1.0744,1.0846,1.087,1.087,1.087,1.0965,1.1083,1.1083,1.131,1.1408,1.1263,1.1149,1.1107,1.1107,1.1107,1.1166,1.132,1.1496,1.205,1.3108,1.3606,1.4382,1.5546,1.6009,1.6306,1.6413,1.6413,1.6413,1.6413,1.6413,1.6413,1.6413,1.6413,1.6864,1.7699,1.7984,1.8605,1.9448,1.9708,1.9798,1.9798,1.9798,1.9798,1.9798,1.9798,1.9798,1.9798,0.8248,0.8245,0.8292,0.8564,0.8612,0.8612,0.8612,0.8612,0.8612,0.8612,0.8612,0.8612,0.8612,0.8612,0.8612,0.8612,0.8571,0.8547,0.8547,0.8369,0.8227,0.8085,0.8174,0.8117,0.7926,0.7882,0.7771,0.7584,0.7584,0.7563,0.7484,0.7484,0.7484,0.7484,0.7484,0.7484,0.7484,0.7484,0.7484,0.7557,0.836,0.9188,0.997,1.0807,1.1595,1.2305,1.2305,1.2305,1.2305,1.2305,1.2305,1.2305,1.2305,1.2305,1.2305,1.2305,1.1984,1.1617,1.155,1.153,1.1463,1.1169,1.1075,1.1001,1.0772,1.0735,1.0751,1.0839,1.087,1.0933,1.1059,1.109,1.109,1.109,1.1209,1.1303,1.1303,1.1466,1.1562,1.1489,1.1261,1.1107,1.1107,1.1107,1.1136,1.121,1.1452,1.2205,1.3532,1.3726,1.4442,1.5972,1.6269,1.6413,1.6413,1.6413,1.6413,1.6413,1.6413,1.6413,1.6413,1.6413,1.7022,1.8093,1.8093,1.8738,1.9798,1.9798,1.9798,1.9798,1.9798,1.9798,1.9798,1.9798,1.9798,1.9837,0.8564,0.8564,0.8568,0.8612,0.8612,0.8612,0.8612,0.8612,0.8612,0.8612,0.8612,0.8612,0.8612,0.8612,0.8612,0.8612,0.841,0.8312,0.8312,0.83,0.8284,0.8272,0.8117,0.8101,0.8247,0.8081,0.791,0.778,0.778,0.769,0.7484,0.7484,0.7484,0.7484,0.7484,0.7484,0.7484,0.7484,0.7484,0.7557,0.836,0.9188,0.997,1.0807,1.1595,1.2305,1.2305,1.2305,1.2305,1.2305,1.2305,1.2305,1.2305,1.2305,1.2305,1.2305,1.2271,1.2178,1.1946,1.1873,1.1764,1.147,1.129,1.1179,1.1152,1.1102,1.1059,1.109,1.109,1.109,1.109,1.109,1.109,1.109,1.1209,1.1303,1.1303,1.1466,1.1481,1.118,1.1122,1.1107,1.1107,1.1107,1.1232,1.1533,1.1584,1.229,1.3876,1.3965,1.4717,1.6316,1.6384,1.6413,1.6413,1.6413,1.6413,1.6413,1.6413,1.6413,1.6413,1.6413,1.7022,1.8093,1.8093,1.8738,1.9798,1.9798,1.9798,1.9798,1.9798,1.9798,1.9798,1.9798,1.9798,1.9837,0.8612,0.8612,0.8612,0.8612,0.8612,0.8612,0.8612,0.8612,0.8612,0.8612,0.8612,0.8612,0.8612,0.8612,0.8612,0.8612,0.8547,0.8506,0.8506,0.8506,0.8506,0.8506,0.8394,0.8337,0.8292,0.8223,0.8097,0.7914,0.7849,0.7763,0.769,0.7575,0.7484,0.7484,0.7484,0.7484,0.7484,0.7484,0.7484,0.7595,0.8917,0.9631,0.997,1.0807,1.1595,1.2224,1.1744,1.1892,1.2305,1.2305,1.2305,1.2305,1.2305,1.2305,1.2305,1.2305,1.2305,1.2278,1.2171,1.2247,1.2252,1.1988,1.1964,1.1888,1.1473,1.1358,1.1322,1.1251,1.1216,1.1247,1.1404,1.1404,1.1404,1.1404,1.1466,1.1498,1.1498,1.156,1.1547,1.1423,1.1224,1.1107,1.1107,1.1107,1.1158,1.1276,1.1828,1.2634,1.3747,1.4767,1.5642,1.6374,1.6413,1.6413,1.6413,1.6413,1.6413,1.6413,1.6413,1.6413,1.6402,1.674,1.7335,1.812,1.8494,1.9095,1.9798,1.9798,1.9798,1.9798,1.9798,1.9798,1.9798,1.9798,1.9862,1.9952,0.8612,0.8612,0.8612,0.8612,0.8612,0.8612,0.8612,0.8612,0.8612,0.8612,0.8612,0.8612,0.8612,0.8612,0.8612,0.8612,0.8612,0.8612,0.8612,0.8612,0.8612,0.8612,0.8612,0.8551,0.8381,0.8377,0.8284,0.8101,0.7983,0.7935,0.7877,0.7707,0.765,0.765,0.765,0.765,0.7646,0.7594,0.7608,0.7716,0.9284,0.9895,0.997,1.0807,1.1446,1.1855,1.1298,1.1446,1.1966,1.2224,1.2305,1.2305,1.2305,1.2305,1.2305,1.2305,1.2305,1.2305,1.2305,1.2489,1.2625,1.2382,1.2444,1.241,1.184,1.1683,1.1625,1.143,1.1404,1.1428,1.156,1.1591,1.1591,1.1591,1.1591,1.1591,1.1591,1.1591,1.1591,1.1591,1.1393,1.1261,1.1261,1.1261,1.1261,1.1261,1.2088,1.3053,1.4106,1.5459,1.6249,1.6413,1.6413,1.6413,1.6413,1.6413,1.6413,1.6413,1.6413,1.6413,1.6431,1.6972,1.7534,1.812,1.8735,1.9291,1.9798,1.9798,1.9798,1.9798,1.9798,1.9798,1.9811,1.9837,1.9926,2.0042,0.8612,0.8612,0.8612,0.8612,0.8612,0.8612,0.8612,0.8612,0.8612,0.8612,0.8612,0.8612,0.8612,0.8612,0.8612,0.8612,0.8612,0.8612,0.8612,0.8612,0.8612,0.8612,0.8612,0.8612,0.8612,0.8612,0.8522,0.8292,0.8292,0.8195,0.8016,0.8012,0.8012,0.8012,0.8012,0.8012,0.8004,0.7873,0.7804,0.7938,0.9311,0.9895,0.997,1.0769,1.1074,1.1074,1.1074,1.1074,1.1223,1.204,1.2305,1.2305,1.2305,1.2305,1.2305,1.2305,1.2305,1.2305,1.2305,1.2599,1.2863,1.2636,1.2662,1.2606,1.2285,1.2104,1.1916,1.1657,1.1591,1.1591,1.1591,1.1591,1.1591,1.1591,1.1591,1.1591,1.1591,1.1591,1.1591,1.1591,1.1591,1.1591,1.1591,1.1591,1.1591,1.1591,1.2343,1.3515,1.5108,1.5961,1.6413,1.6413,1.6413,1.6413,1.6413,1.6413,1.6413,1.6413,1.6413,1.6413,1.6431,1.6972,1.7534,1.812,1.8735,1.9317,1.9798,1.9798,1.9798,1.9798,1.9798,1.9798,1.9837,1.9952,1.999,2.0042,0.8612,0.8612,0.8612,0.8612,0.8612,0.8612,0.8612,0.8612,0.8612,0.8612,0.8612,0.8612,0.8612,0.8612,0.8612,0.8612,0.8612,0.8612,0.8612,0.8612,0.8612,0.8612,0.8612,0.8612,0.8612,0.8612,0.8584,0.8526,0.8353,0.8264,0.8203,0.8073,0.8012,0.8012,0.8012,0.8012,0.8008,0.7959,0.787,0.7871,0.8857,0.9169,0.9074,0.9339,0.975,1.0271,1.0271,1.0614,1.1223,1.204,1.2305,1.2305,1.2305,1.2305,1.2342,1.2489,1.2526,1.2526,1.2673,1.29,1.3046,1.2856,1.3048,1.3092,1.254,1.2378,1.2219,1.1701,1.1591,1.1591,1.1591,1.1591,1.1591,1.1591,1.1591,1.1591,1.1591,1.1591,1.1591,1.1591,1.1591,1.1591,1.1591,1.1591,1.1654,1.174,1.3009,1.4382,1.5758,1.6192,1.6413,1.6413,1.6413,1.6413,1.6413,1.6413,1.6413,1.6413,1.6413,1.6413,1.6431,1.739,1.7929,1.8147,1.9148,1.9643,1.9798,1.9798,1.9798,1.9798,1.9798,1.9798,1.9837,1.9952,2.0067,2.0182,0.8612,0.8612,0.8612,0.8612,0.8612,0.8612,0.8612,0.8612,0.8612,0.8612,0.8612,0.8612,0.8612,0.8612,0.8612,0.8612,0.8612,0.8612,0.8612,0.8612,0.8612,0.8612,0.8612,0.8612,0.8612,0.8612,0.8612,0.8612,0.8498,0.8398,0.8398,0.8284,0.8231,0.8231,0.8231,0.8231,0.8227,0.8154,0.8065,0.8037,0.8714,0.893,0.8812,0.8732,0.8998,0.941,0.941,0.9938,1.0763,1.1552,1.204,1.2305,1.2305,1.2305,1.2342,1.2526,1.2599,1.2636,1.2863,1.3046,1.3156,1.3046,1.3273,1.3323,1.2638,1.2485,1.2336,1.1723,1.1591,1.1591,1.1591,1.1591,1.1591,1.1591,1.1591,1.1591,1.1591,1.1591,1.1591,1.1591,1.1591,1.1591,1.1591,1.1833,1.2251,1.297,1.3936,1.4982,1.6153,1.6345,1.6413,1.6413,1.6413,1.6413,1.6413,1.6413,1.6413,1.6413,1.6413,1.6506,1.674,1.7694,1.8228,1.8509,1.941,1.9798,1.9798,1.9798,1.9798,1.9798,1.9798,1.9798,1.9837,2.0003,2.0131,2.0233,0.8612,0.8612,0.8612,0.8612,0.8612,0.8612,0.8612,0.8612,0.8612,0.8612,0.8612,0.8612,0.8612,0.8612,0.8612,0.8612,0.8612,0.8612,0.8612,0.8612,0.8612,0.8612,0.8612,0.8612,0.8612,0.8612,0.8612,0.8612,0.8612,0.8612,0.8612,0.8612,0.8612,0.8612,0.8612,0.8612,0.86,0.8385,0.8304,0.8344,0.877,0.8925,0.8892,0.8692,0.8617,0.8613,0.867,0.9226,1.0045,1.0919,1.1706,1.2305,1.2305,1.2305,1.2342,1.2526,1.2599,1.2673,1.2863,1.3083,1.3236,1.3236,1.3346,1.3323,1.2638,1.2485,1.2336,1.1723,1.1591,1.1591,1.1591,1.1591,1.1591,1.1591,1.1591,1.1591,1.1591,1.1591,1.1591,1.1591,1.1654,1.1685,1.1685,1.2243,1.3226,1.4787,1.4904,1.5371,1.6345,1.6413,1.6413,1.6413,1.6413,1.6413,1.6413,1.6413,1.6413,1.6413,1.6413,1.6684,1.723,1.7809,1.8429,1.904,1.9578,1.9798,1.9798,1.9798,1.9798,1.9798,1.9798,1.9811,1.9862,2.0105,2.0207,2.0258,0.8612,0.8612,0.8612,0.8612,0.8612,0.8612,0.8612,0.8612,0.8612,0.8612,0.8612,0.8612,0.8612,0.8612,0.8612,0.8612,0.8612,0.8612,0.8612,0.8612,0.8612,0.8612,0.8612,0.8612,0.8612,0.8612,0.8612,0.8612,0.8612,0.8612,0.8612,0.8612,0.8612,0.8612,0.8612,0.8612,0.8608,0.8567,0.8422,0.8326,0.8413,0.8371,0.822,0.8043,0.8015,0.8073,0.853,0.9226,1.0121,1.1552,1.2157,1.2305,1.2305,1.2305,1.2342,1.2526,1.2709,1.2863,1.3083,1.3273,1.3419,1.3419,1.3455,1.3323,1.2638,1.2485,1.2336,1.1723,1.1591,1.1591,1.1591,1.1591,1.1591,1.1591,1.1591,1.1591,1.1591,1.1591,1.1591,1.1591,1.2011,1.2305,1.2305,1.2978,1.3855,1.4825,1.504,1.5497,1.6345,1.6413,1.6413,1.6413,1.6413,1.6413,1.6413,1.6413,1.6413,1.6413,1.6413,1.6684,1.723,1.7809,1.8429,1.904,1.9578,1.9798,1.9798,1.9798,1.9798,1.9798,1.9798,1.9862,1.9978,2.0131,2.0296,2.0461,0.8612,0.8612,0.8612,0.8612,0.8612,0.8612,0.8612,0.8612,0.8612,0.8612,0.8612,0.8612,0.8612,0.8612,0.8612,0.8612,0.8612,0.8612,0.8612,0.8612,0.8612,0.8612,0.8612,0.8612,0.8612,0.8612,0.8612,0.8612,0.8612,0.8612,0.8612,0.8612,0.8612,0.8612,0.8612,0.8612,0.8612,0.8612,0.8555,0.8414,0.8325,0.8231,0.8126,0.7947,0.7882,0.7946,0.8246,0.9082,1.0297,1.1979,1.2418,1.2305,1.2305,1.2305,1.2342,1.2526,1.2746,1.2936,1.3163,1.3346,1.3492,1.3492,1.3492,1.3367,1.2862,1.2602,1.2423,1.2087,1.1804,1.1643,1.1758,1.1787,1.1736,1.1613,1.1716,1.1736,1.1613,1.1591,1.1591,1.1591,1.212,1.2779,1.3485,1.3923,1.4549,1.542,1.5575,1.5855,1.6374,1.6413,1.6413,1.6413,1.6413,1.6413,1.6413,1.6413,1.6413,1.6413,1.6666,1.7084,1.7644,1.8267,1.8842,1.9396,1.9682,1.9798,1.9798,1.9798,1.9798,1.9798,1.9798,1.9888,2.0016,2.0156,2.0372,2.0612,0.8612,0.8612,0.8612,0.8612,0.8612,0.8612,0.8612,0.8612,0.8612,0.8612,0.8612,0.8612,0.8612,0.8612,0.8612,0.8612,0.8612,0.8612,0.8612,0.8612,0.8612,0.8612,0.8612,0.8612,0.8612,0.8612,0.8612,0.8612,0.8612,0.8612,0.8612,0.8612,0.8612,0.8612,0.8612,0.8612,0.8612,0.8612,0.8612,0.86,0.8398,0.8337,0.8316,0.813,0.8061,0.8057,0.8024,0.8963,1.0511,1.2273,1.2659,1.2458,1.2458,1.2458,1.2489,1.2621,1.2785,1.2963,1.3097,1.3309,1.3455,1.3492,1.3492,1.3426,1.3155,1.284,1.2558,1.2499,1.2094,1.1802,1.2032,1.204,1.1916,1.1716,1.1816,1.186,1.1628,1.1591,1.1591,1.1591,1.2243,1.3274,1.4736,1.4893,1.5245,1.6028,1.6114,1.6181,1.6374,1.6413,1.6413,1.6413,1.6413,1.6413,1.6413,1.6413,1.6413,1.6402,1.7056,1.7617,1.812,1.8709,1.9291,1.9798,1.9798,1.9798,1.9798,1.9798,1.9798,1.9798,1.9837,1.9914,2.0042,2.0207,2.0473,2.0699,0.8612,0.8612,0.8612,0.8612,0.8612,0.8612,0.8612,0.8612,0.8612,0.8612,0.8612,0.8612,0.8612,0.8612,0.8612,0.8612,0.8612,0.8612,0.8612,0.8612,0.8612,0.8612,0.8612,0.8612,0.8612,0.8612,0.8612,0.8612,0.8612,0.8612,0.8612,0.8612,0.8612,0.8612,0.8612,0.8612,0.8612,0.8612,0.8612,0.8608,0.8584,0.8571,0.8555,0.8325,0.8251,0.8231,0.8069,0.9091,1.0803,1.2541,1.312,1.3086,1.3086,1.3086,1.3033,1.2842,1.2875,1.2965,1.297,1.3083,1.3273,1.3455,1.3492,1.3484,1.344,1.3177,1.2862,1.2543,1.2453,1.2401,1.2412,1.2193,1.1989,1.1945,1.178,1.1643,1.1599,1.1591,1.1591,1.1591,1.2757,1.4076,1.543,1.5682,1.5846,1.6085,1.6114,1.6181,1.6374,1.6413,1.6413,1.6413,1.6413,1.6413,1.6413,1.6413,1.6413,1.6402,1.7473,1.8011,1.812,1.8709,1.9291,1.9798,1.9798,1.9798,1.9798,1.9798,1.9798,1.9798,1.9926,2.0054,2.0207,2.0524,2.0649,2.0699,0.8612,0.8612,0.8612,0.8612,0.8612,0.8612,0.8612,0.8612,0.8612,0.8612,0.8612,0.8612,0.8612,0.8612,0.8612,0.8612,0.8612,0.8612,0.8612,0.8612,0.8612,0.8612,0.8612,0.8612,0.8612,0.8612,0.8612,0.8612,0.8612,0.8612,0.8612,0.8612,0.8612,0.8612,0.8612,0.8612,0.8612,0.8612,0.8612,0.8612,0.8612,0.8612,0.8604,0.8518,0.849,0.8607,0.9531,1.059,1.1717,1.2996,1.3307,1.3213,1.3213,1.3213,1.318,1.3189,1.3181,1.3206,1.3306,1.3373,1.3382,1.3499,1.3492,1.3492,1.3492,1.3389,1.3243,1.3097,1.2775,1.2543,1.2726,1.2672,1.2426,1.2062,1.2072,1.1977,1.1643,1.1591,1.174,1.2066,1.3053,1.4106,1.5138,1.571,1.6066,1.6249,1.6278,1.6306,1.6413,1.6413,1.6413,1.6413,1.6413,1.6413,1.6413,1.6413,1.6413,1.6402,1.7567,1.8093,1.812,1.9042,1.9578,1.9798,1.9798,1.9798,1.9798,1.9798,1.9798,1.9798,1.9952,2.0144,2.0398,2.0624,2.0699,2.0699]}]]